     2              OBSERVATION DATA    GPS                 RINEX VERSION / TYPE
teqc 2000Jul20 Karen Wendt 20030303 20:34:35UTC             PGM / RUN BY / DATE
                                                            COMMENT
L2: 1 -> 1; 150 -> 5; 250 -> 9                              COMMENT
L2: 1 -> 1; 150 -> 5; 250 -> 9                              COMMENT
L2: 1 -> 1; 150 -> 5; 250 -> 9                              COMMENT
L2: 1 -> 1; 150 -> 5; 250 -> 9                              COMMENT
L2: 1 -> 1; 150 -> 5; 250 -> 9                              COMMENT
L2: 1 -> 1; 150 -> 5; 250 -> 9                              COMMENT
L2: 1 -> 1; 150 -> 5; 250 -> 9                              COMMENT
L2: 1 -> 1; 150 -> 5; 250 -> 9                              COMMENT
L2: 1 -> 1; 150 -> 5; 250 -> 9                              COMMENT
L2: 1 -> 1; 150 -> 5; 250 -> 9                              COMMENT
L2: 1 -> 1; 150 -> 5; 250 -> 9                              COMMENT
L2: 1 -> 1; 150 -> 5; 250 -> 9                              COMMENT
L2: 1 -> 1; 150 -> 5; 250 -> 9                              COMMENT
L2: 1 -> 1; 150 -> 5; 250 -> 9                              COMMENT
Original Marker Name: rich Rich_1939_USC&GS                 COMMENT
Campaign Name: USGS 2003                                    COMMENT
4-Character Station Name: RICH                              COMMENT
6-Character Antenna Code: DMRCHT                            COMMENT
Vertical Measurement Point: BCR                             COMMENT
Vertical Offset to Rinex Ref. Point: 0.0348                 COMMENT
Radial Measurement Point: ECF                               COMMENT
Radial Offset to Rinex Ref. Point: 0.1897                   COMMENT
Antenna Height from Field Measurement: 0.5780 m             COMMENT
Additional Antenna Identification Info.:                    COMMENT
Turborogue and Ashtech Choke Ring                           COMMENT
Original XYZ: -2352395.4608 -4724661.5837 3571435.1440      COMMENT
New XYZ position is based on association with SCEC monument COMMENT
E1F2G5O8+0011. Position of that monument is believed to be  COMMENT
valid to within 1 m horizontally; vertical accuracy         COMMENT
should be no worse than 3-times this value.                 COMMENT
                                                            COMMENT
Revised Rinex header created by UCSD GPS archive for        COMMENT
GSAC on 11-Jul-2003 (2003:192) 16:36:17 GMT                 COMMENT
For assistance contact dagnew@ucsd.edu                      COMMENT
or anderson@python.ucsd.edu                                 COMMENT
                                                            COMMENT
RICH 1939                                                   MARKER NAME
JLS US GEOLOGICAL SURVEY                                    OBSERVER / AGENCY
ZE120023204 RECEIVER UNKNOWN ZC00                           REC # / TYPE / VERS
CR14329 DORNE-MARGOL. TYPE T                                ANT # / TYPE
 -2352410.9779 -4724631.7464  3571416.4168                  APPROX POSITION XYZ
        0.5112        0.0000        0.0000                  ANTENNA: DELTA H/E/N
     1     1     0                                          WAVELENGTH FACT L1/2
     5    C1    L1    L2    P1    P2                        # / TYPES OF OBSERV
    30                                                      INTERVAL
  2003     2    28     0     0    0.000000                  TIME OF FIRST OBS
  2003     2    28    15    40    0.000000                  TIME OF LAST OBS
                                                            END OF HEADER
 03  2 28  0  0  0.0000000  0 10G17G26G15G30G10G 6G29G23G16G18
  21105299.239   -19996769.57644 -15372835.07742  21105301.083    21105299.344
  21708031.030   -19472126.09043 -15127391.59842  21708033.998    21708033.124
  22460583.564   -14808985.04243 -11492782.14042  22460585.698    22460585.144
  24048566.739    -3887861.65543  -3012670.57042  24048569.059    24048573.015
  24516052.487    -3821969.34343  -2926511.24442  24516054.149    24516055.572
  20447162.305   -27866135.28544 -21679360.42342  20447164.588    20447162.103
  22701309.723   -16074760.07543 -12349779.72142  22701312.472    22701311.305
  20662520.800   -23212368.08444 -17379223.01142  20662523.004    20662520.948
  23890411.039    -5814982.14043  -4499354.72542  23890413.374    23890412.072
  21901631.230   -16750469.71343 -12547920.14542  21901633.801    21901631.947
 03  2 28  0  0 30.0000000  0 10G17G26G15G30G10G 6G29G23G16G18
  21100671.928   -20021086.18744 -15391783.06142  21100673.756    21100672.010
  21702456.970   -19501417.48343 -15150215.98142  21702459.952    21702459.070
  22448643.010   -14871732.79343 -11541676.42342  22448645.144    22448644.556
  24067836.527    -3786599.18843  -2933764.99742  24067838.852    24067842.875
  24536164.183    -3716281.56543  -2844157.17442  24536165.897    24536167.410
  20453041.319   -27835240.82244 -21655286.82842  20453043.629    20453041.135
  22702994.528   -16065905.97243 -12342880.36542  22702997.306    22702996.103
  20658265.833   -23234727.95044 -17396646.22842  20658268.030    20658265.953
  23882645.794    -5855788.83443  -4531152.10942  23882648.087    23882646.714
  21887143.835   -16826601.07243 -12607243.17642  21887146.408    21887144.525
 03  2 28  0  1  0.0000000  0 10G17G26G15G30G10G 6G29G23G16G18
  21096072.082   -20045258.47244 -15410618.58242  21096073.907    21096072.127
  21696996.586   -19530111.70143 -15172575.03642  21696999.560    21696998.688
  22436723.270   -14934371.16443 -11590485.47442  22436725.410    22436724.787
  24087099.003    -3685374.96943  -2854889.25342  24087101.354    24087105.309
  24556279.126    -3610577.00743  -2761790.04942  24556280.874    24556282.337
  20459011.524   -27803867.28144 -21630839.92042  20459013.838    20459011.341
  22704781.991   -16056512.39643 -12335560.63842  22704784.790    22704783.580
  20654098.817   -23256625.44344 -17413709.15742  20654101.026    20654098.933
  23874976.880    -5896089.55943  -4562555.23242  23874979.127    23874977.666
  21872722.465   -16902385.50543 -12666295.87742  21872725.025    21872723.110
 03  2 28  0  1 30.0000000  0 10G17G26G15G30G10G 6G29G23G16G18
  21091498.691   -20069291.72544 -15429345.77442  21091500.525    21091498.717
  21691649.253   -19558211.94643 -15194471.25542  21691652.194    21691651.317
  22424823.406   -14996905.05843 -11639213.10442  22424825.561    22424824.940
  24106352.855    -3584196.76643  -2776049.36042  24106355.162    24106359.156
  24576395.840    -3504863.04643  -2679415.58942  24576397.657    24576399.063
  20465071.905   -27772019.85544 -21606023.74642  20465074.208    20465071.722
  22706671.193   -16046584.46343 -12327824.54242  22706673.938    22706672.697
  20650018.752   -23278066.06844 -17430416.09142  20650020.952    20650018.867
  23867403.435    -5935888.57543  -4593567.42742  23867405.661    23867404.150
  21858366.330   -16977826.80843 -12725081.20242  21858368.915    21858367.005
 03  2 28  0  2  0.0000000  0 10G17G26G15G30G10G 6G29G23G16G18
  21086952.489   -20093182.05644 -15447961.59142  21086954.318    21086952.519
  21686415.910   -19585713.23643 -15215900.77042  21686418.864    21686417.900
  22412944.041   -15059331.27443 -11687856.82542  22412946.187    22412945.563
  24125597.985    -3483063.97143  -2697244.85642  24125600.289    24125604.341
  24596514.605    -3399138.13643  -2597032.58142  24596516.402    24596517.939
  20471223.082   -27739695.21644 -21580835.72442  20471225.400    20471222.905
  22708662.702   -16036118.80243 -12319669.43842  22708665.405    22708664.182
  20646026.183   -23299046.89944 -17446764.74742  20646028.377    20646026.295
  23859926.255    -5975181.48343  -4624185.26242  23859928.484    23859926.944
  21844076.385   -17052920.47343 -12783595.64442  21844078.955    21844077.028
 03  2 28  0  2 30.0000000  0 10G17G26G15G30G10G 6G29G23G16G18
  21082436.862   -20116911.77944 -15466452.26042  21082438.680    21082436.869
  21681300.347   -19612595.43643 -15236847.87442  21681303.289    21681302.287
  22401088.712   -15121631.14043 -11736402.11942  22401090.865    22401090.242
  24144837.453    -3381961.01043  -2618463.58742  24144839.748    24144843.814
  24616638.710    -3293385.75843  -2514628.11042  24616640.371    24616642.010
  20477468.553   -27706875.08744 -21555261.60642  20477470.863    20477468.362
  22710760.048   -16025096.83343 -12311080.84842  22710762.750    22710761.540
  20642124.547   -23319549.95244 -17462741.10942  20642126.741    20642124.654
  23852549.065    -6013948.85343  -4654393.57542  23852551.323    23852549.812
  21829856.283   -17127647.11943 -12841824.10742  21829858.868    21829856.882
 03  2 28  0  3  0.0000000  0 10G17G26G15G30G10G 6G29G23G16G18
  21077948.844   -20140496.33344 -15484829.81442  21077950.664    21077948.845
  21676299.994   -19638872.38743 -15257323.35842  21676302.908    21676301.868
  22389254.480   -15183820.20543 -11784861.06242  22389256.654    22389255.993
  24164067.707    -3280906.19843  -2539719.87342  24164069.993    24164074.287
  24636764.418    -3187624.03143  -2432216.37642  24636766.106    24636767.910
  20483805.327   -27673575.16344 -21529313.61642  20483807.622    20483805.136
  22712960.327   -16013534.11243 -12302070.91342  22712963.008    22712961.820
  20638310.750   -23339591.37744 -17478357.75942  20638312.943    20638310.863
  23845269.077    -6052205.32143  -4684203.79442  23845271.314    23845269.851
  21815703.328   -17202021.26543 -12899777.88642  21815705.882    21815703.812
 03  2 28  0  3 30.0000000  0 10G17G26G15G30G10G 6G29G23G16G18
  21073487.877   -20163938.77444 -15503096.62442  21073489.689    21073487.877
  21671414.523   -19664545.52743 -15277328.35442  21671417.425    21671416.301
  22377440.733   -15245901.54943 -11833236.05542  22377442.904    22377442.242
  24183287.692    -3179905.33343  -2461018.20242  24183289.903    24183294.359
  24656891.061    -3081857.86643  -2349801.19142  24656892.723    24656894.605
  20490232.818   -27639798.57044 -21502994.20242  20490235.106    20490232.617
  22715262.924   -16001433.88743 -12292642.14442  22715265.583    22715264.369
  20634584.134   -23359174.80944 -17493617.53442  20634586.322    20634584.212
  23838085.948    -6089953.01643  -4713617.57042  23838088.171    23838086.665
  21801617.090   -17276044.69243 -12957458.38542  21801619.642    21801617.495
 03  2 28  0  4  0.0000000  0 10G17G26G15G30G10G 6G29G23G16G18
  21069054.994   -20187233.70344 -15521248.49542  21069056.770    21069054.967
  21666645.240   -19689608.00343 -15296857.49842  21666648.159    21666646.987
  22365648.496   -15307869.93443 -11881523.02842  22365650.671    22365649.988
  24202497.909    -3078955.84943  -2382356.55142  24202500.166    24202504.698
  24677019.181    -2976084.06243  -2267380.04442  24677020.787    24677022.701
  20496752.007   -27605540.14144 -21476299.33742  20496754.305    20496751.774
  22717668.765   -15988790.99943 -12282790.53542  22717671.424    22717670.160
  20630945.551   -23378295.54844 -17508516.77542  20630947.733    20630945.617
  23831000.744    -6127185.98943  -4742630.25742  23831002.988    23831001.441
  21787598.779   -17349711.23243 -13014860.78942  21787601.323    21787599.104
 03  2 28  0  4 30.0000000  0 10G17G26G15G30G10G 6G29G23G16G18
  21064650.591   -20210378.85244 -15539283.65342  21064652.354    21064650.545
  21661992.883   -19714056.31643 -15315908.07242  21661995.780    21661994.553
  22353878.070   -15369723.40343 -11929720.45842  22353880.288    22353879.570
  24221698.295    -2978058.61243  -2303735.62142  24221700.400    24221705.140
  24697148.628    -2870302.94343  -2184953.20442  24697150.269    24697152.228
  20503363.190   -27570798.17244 -21449227.68642  20503365.506    20503362.966
  22720178.243   -15975603.59043 -12272514.62442  22720180.860    22720179.611
  20627395.244   -23396952.41144 -17523054.55642  20627397.406    20627395.291
  23824014.023    -6163901.50243  -4771239.73142  23824016.238    23824014.662
  21773648.920   -17423017.93243 -13071982.80142  21773651.474    21773649.186
 03  2 28  0  5  0.0000000  0 10G17G26G15G30G10G 6G29G23G16G18
  21060273.370   -20233381.19744 -15557207.53442  21060275.137    21060273.292
  21657456.464   -19737895.36643 -15334483.90242  21657459.354    21657458.089
  22342128.337   -15431468.41543 -11977833.38242  22342130.539    22342129.813
  24240886.972    -2877222.83943  -2225162.58742  24240889.037    24240893.887
  24717277.901    -2764522.70443  -2102527.04942  24717279.656    24717281.530
  20510065.121   -27535579.27844 -21421784.40842  20510067.441    20510064.897
  22722790.110   -15961878.14243 -12261819.46142  22722792.727    22722791.462
  20623931.837   -23415152.46244 -17537236.38242  20623934.012    20623931.896
  23817124.679    -6200105.16843  -4799450.36842  23817126.911    23817125.331
  21759766.512   -17495970.00543 -13128828.48442  21759769.087    21759766.767
 03  2 28  0  5 30.0000000  0  9G17G26G15G30G 6G29G23G16G18
  21055925.590   -20256228.82644 -15575010.85942  21055927.351    21055925.493
  21653038.551   -19761111.73243 -15352574.50342  21653041.431    21653040.109
  22330401.522   -15493093.01743 -12025852.49042  22330403.706    22330402.969
  24260065.693    -2776439.27243  -2146630.25242  24260067.901    24260072.666
  20516860.040   -27499871.73744 -21393960.35042  20516862.343    20516859.836
  22725506.627   -15947602.85643 -12250695.85342  22725509.270    22725507.967
  20620557.537   -23432884.36044 -17551053.41342  20620559.713    20620557.579
  23810335.169    -6235784.06043  -4827252.08242  23810337.374    23810335.843
  21745954.060   -17568554.62043 -13185387.83742  21745956.625    21745954.308
 03  2 28  0  6  0.0000000  0  9G17G26G15G30G 6G29G23G16G18
  21051611.156   -20278901.13944 -15592677.57042  21051612.954    21051611.058
  21648743.283   -19783683.42943 -15370162.76942  21648746.173    21648744.798
  22318701.495   -15554576.86243 -12073761.91142  22318703.645    22318702.889
  24279237.782    -2675690.40643  -2068124.94642  24279239.977    24279244.841
  20523751.772   -27463655.43044 -21365739.86642  20523754.066    20523751.553
  22728331.613   -15932757.78443 -12239128.26242  22728334.235    22728332.863
  20617276.095   -23450128.29744 -17564490.21742  20617278.263    20617276.126
  23803649.521    -6270917.19243  -4854628.52742  23803651.823    23803650.150
  21732215.605   -17640750.32343 -13241644.14442  21732218.156    21732215.846
 03  2 28  0  6 30.0000000  0  9G17G26G15G30G 6G29G23G16G18
  21047322.266   -20301439.28244 -15610239.73242  21047324.106    21047322.155
  21644563.094   -19805650.08443 -15387279.56442  21644566.002    21644564.603
  22307020.456   -15615961.05343 -12121593.68742  22307022.569    22307021.777
  24298395.046    -2575019.70243  -1989680.54542  24298397.271    24298402.288
  20530732.496   -27426971.58744 -21337155.06342  20530734.788    20530732.267
  22731257.228   -15917383.82243 -12227148.55742  22731259.818    22731258.436
  20614079.586   -23466925.96044 -17577579.27442  20614081.746    20614079.601
  23797060.074    -6305544.86643  -4881611.10342  23797062.337    23797060.680
  21718543.645   -17712596.63843 -13297628.20142  21718546.169    21718543.885
 03  2 28  0  7  0.0000000  0  9G17G26G15G30G 6G29G23G16G18
  21043058.051   -20323847.73844 -15627700.83942  21043059.899    21043057.944
  21640497.471   -19827014.90443 -15403927.39942  21640500.342    21640498.951
  22295357.482   -15677250.02543 -12169351.25642  22295359.603    22295358.814
  24317536.060    -2474434.72643  -1911302.95542  24317538.212    24317543.249
  20537801.185   -27389825.33944 -21308209.94942  20537803.500    20537800.965
  22734282.528   -15901486.04243 -12214760.67842  22734285.075    22734283.665
  20610966.989   -23483282.69144 -17590324.74442  20610969.148    20610966.972
  23790566.062    -6339671.02843  -4908202.90742  23790568.233    23790566.655
  21704937.310   -17784098.09243 -13353343.53842  21704939.832    21704937.543
 03  2 28  0  7 30.0000000  0  9G17G26G15G30G 6G29G23G16G18
  21038821.327   -20346111.63344 -15645049.30042  21038823.209    21038821.247
  21636549.393   -19847761.77643 -15420093.70842  21636552.269    21636550.872
  22283715.468   -15738428.87943 -12217023.01342  22283717.606    22283716.791
  24336663.023    -2373923.39943  -1832982.75042  24336665.177    24336670.252
  20544960.716   -27352201.95344 -21278893.03942  20544962.997    20544960.459
  22737410.280   -15885049.69243 -12201953.11842  22737412.827    22737411.400
  20607940.998   -23499184.26844 -17602715.54042  20607943.154    20607940.956
  23784170.426    -6373280.14543  -4934391.82642  23784172.647    23784171.015
  21691399.558   -17855239.21043 -13408778.09542  21691402.064    21691399.765
 03  2 28  0  8  0.0000000  0  9G17G26G15G30G 6G29G23G16G18
  21034613.479   -20368223.95144 -15662279.65042  21034615.343    21034613.373
  21632720.516   -19867882.33343 -15435771.97542  21632723.421    21632721.962
  22272095.763   -15799490.69543 -12264603.57142  22272097.883    22272097.032
  24355776.695    -2273481.44943  -1754716.61542  24355778.921    24355784.080
  20552212.267   -27314094.84744 -21249199.20642  20552214.564    20552212.011
  22740641.725   -15868068.25643 -12188720.81342  22740644.276    22740642.851
  20605002.764   -23514624.66044 -17614746.97642  20605004.936    20605002.700
  23777874.625    -6406364.53943  -4960171.87542  23777876.817    23777875.226
  21677931.962   -17926011.51943 -13463925.26442  21677934.458    21677932.142
 03  2 28  0  8 30.0000000  0  9G17G26G15G30G 6G29G23G16G18
  21030433.292   -20390190.84544 -15679396.68442  21030435.155    21030433.197
  21629009.923   -19887381.39343 -15450965.95742  21629012.837    21629011.352
  22260497.034   -15860441.87643 -12312097.92442  22260499.213    22260498.330
  24374875.455    -2173117.61743  -1676511.33242  24374877.614    24374883.008
  20559554.580   -27275510.64144 -21219133.60342  20559556.886    20559554.367
  22743975.620   -15850548.28443 -12175068.88542  22743978.190    22743976.785
  20602150.989   -23529610.75244 -17626424.41642  20602153.140    20602150.896
  23771677.638    -6438929.72143  -4985547.33842  23771679.787    23771678.330
  21664533.553   -17996420.25043 -13518789.12442  21664536.048    21664533.701
 03  2 28  0  9  0.0000000  0  9G17G26G15G30G 6G29G23G16G18
  21026283.148   -20411999.82744 -15696390.66842  21026285.046    21026283.041
  21625420.198   -19906244.95743 -15465664.74842  21625423.139    21625421.662
  22248921.873   -15921269.45643 -12359495.96742  22248924.045    22248923.129
  24393961.331    -2072822.05943  -1598359.26442  24393963.450    24393968.894
  20566990.061   -27236436.92244 -21188686.57242  20566992.368    20566989.877
  22747414.361   -15832477.21643 -12160987.51642  22747416.931    22747415.603
  20599387.937   -23544130.60844 -17637738.55042  20599390.082    20599387.827
  23765581.955    -6470962.36543  -5010507.81742  23765584.064    23765582.641
  21651206.887   -18066451.98043 -13573359.22542  21651209.374    21651206.974
 03  2 28  0  9 30.0000000  0  9G17G26G15G30G 6G29G23G16G18
  21022159.567   -20433669.39744 -15713276.02942  21022161.428    21022159.433
  21621948.120   -19924490.39243 -15479881.87942  21621951.027    21621949.598
  22237366.717   -15981991.84743 -12406812.03842  22237368.893    22237367.957
  24413030.160    -1972616.02943  -1520276.96442  24413032.377    24413037.837
  20574515.100   -27196892.67244 -21157872.88142  20574517.362    20574514.913
  22750954.402   -15813874.05743 -12146491.54842  22750956.998    22750955.606
  20596709.894   -23558203.58344 -17648704.47942  20596712.079    20596709.793
  23759584.205    -6502480.45543  -5035067.37042  23759586.425    23759584.977
  21637948.632   -18136124.12643 -13627649.12942  21637951.156    21637948.677
 03  2 28  0 10  0.0000000  0  9G17G26G15G30G 6G29G23G16G18
  21018068.563   -20455167.78944 -15730028.00342  21018070.417    21018068.413
  21618599.924   -19942084.83643 -15493591.75042  21618602.811    21618601.396
  22225837.586   -16042577.53243 -12454021.58942  22225839.767    22225838.810
  24432087.407    -1872470.57543  -1442241.86642  24432089.701    24432095.135
  20582135.594   -27156846.77144 -21126668.29842  20582137.865    20582135.410
  22754601.572   -15794707.74843 -12131556.73342  22754604.196    22754602.860
  20594122.742   -23571798.95744 -17659298.24042  20594124.950    20594122.642
  23753690.430    -6533452.10243  -5059201.09942  23753692.647    23753691.247
  21624764.995   -18205404.33343 -13681633.62542  21624767.523    21624765.002
 03  2 28  0 10 30.0000000  0  9G17G26G15G30G 6G29G23G16G18
  21014003.788   -20476528.31644 -15746672.55342  21014005.643    21014003.620
  21615369.411   -19959060.64343 -15506819.55942  21615372.322    21615370.919
  22214328.095   -16103059.99643 -12501150.69842  22214330.273    22214329.270
  24451126.243    -1772421.98043  -1364282.25042  24451128.430    24451133.858
  20589845.095   -27116333.20244 -21095099.30042  20589847.365    20589844.897
  22758349.489   -15775012.17143 -12116209.51042  22758352.117    22758350.788
  20591619.954   -23584951.08944 -17669546.61342  20591622.163    20591619.842
  23747894.504    -6563909.92743  -5082934.45042  23747896.736    23747895.318
  21611649.725   -18274325.24043 -13735338.14642  21611652.269    21611649.723
 03  2 28  0 11  0.0000000  0  9G17G26G15G30G 6G29G23G16G18
  21009966.130   -20497746.30244 -15763206.03542  21009967.989    21009965.946
  21612257.858   -19975411.58143 -15519560.45942  21612260.733    21612259.347
  22202839.173   -16163434.34743 -12548195.57742  22202841.333    22202840.335
  24470147.079    -1672467.92043  -1286396.29442  24470149.263    24470154.691
  20597644.497   -27075347.27144 -21063162.23342  20597646.783    20597644.265
  22762199.007   -15754782.74943 -12100446.30342  22762201.605    22762200.283
  20589202.285   -23597655.85744 -17679446.39642  20589204.477    20589202.173
  23742197.305    -6593848.72943  -5106263.35642  23742199.566    23742198.153
  21598603.967   -18342881.00443 -13788758.14842  21598606.508    21598603.926
 03  2 28  0 11 30.0000000  0  9G17G26G15G30G 6G29G23G16G18
  21005954.076   -20518829.72844 -15779634.66942  21005955.943    21005953.896
  21609263.823   -19991144.94343 -15531820.13042  21609266.685    21609265.292
  22191369.257   -16223708.84343 -12595162.64242  22191371.417    22191370.392
  24489147.874    -1572619.39043  -1208592.56242  24489150.132    24489155.540
  20605532.064   -27033897.95744 -21030864.08742  20605534.344    20605531.822
  22766148.418   -15734028.25443 -12084273.94142  22766151.027    22766149.696
  20586868.011   -23609922.44844 -17689004.74342  20586870.174    20586867.886
  23736597.493    -6623276.05243  -5129193.71342  23736599.741    23736598.283
  21585626.274   -18411079.13843 -13841899.47642  21585628.770    21585626.207
 03  2 28  0 12  0.0000000  0  9G17G26G15G30G 6G29G23G16G18
  21001976.577   -20539731.48744 -15795921.74542  21001978.463    21001976.411
  21606396.539   -20006212.29843 -15543560.83242  21606399.453    21606397.980
  22179927.317   -16283836.33443 -12642015.16642  22179929.485    22179928.438
  24508137.067    -1472831.83543  -1130836.37542  24508139.364    24508144.835
  20613516.675   -26991938.58444 -20998168.49442  20613518.953    20613516.461
  22770206.713   -15712701.92343 -12067656.00242  22770209.274    22770207.918
  20584625.942   -23621704.39644 -17698185.44842  20584628.097    20584625.823
  23731104.063    -6652144.31943  -5151688.44642  23731106.318    23731104.787
  21572725.694   -18478871.79443 -13894724.85642  21572728.198    21572725.656
 03  2 28  0 12 30.0000000  0  9G17G26G15G30G 6G29G23G16G18
  20998025.947   -20560492.11344 -15812098.84242  20998027.808    20998025.782
  21603648.463   -20020653.26143 -15554813.44642  21603651.388    21603649.867
  22168505.722   -16343857.16643 -12688784.58242  22168507.862    22168506.792
  24527106.499    -1373148.49843  -1053161.37042  24527108.797    24527114.322
  20621590.579   -26949510.03744 -20965107.31342  20621592.822    20621590.361
  22774365.932   -15690844.96543 -12050624.58342  22774368.507    22774367.170
  20582468.210   -23633043.17944 -17707020.83242  20582470.361    20582468.090
  23725709.306    -6680493.92743  -5173779.02842  23725711.586    23725709.982
  21559894.769   -18546298.57243 -13947265.13442  21559897.229    21559894.721
 03  2 28  0 13  0.0000000  0  9G17G26G15G30G 6G29G23G16G18
  20994104.036   -20581101.78944 -15828158.31642  20994105.895    20994103.877
  21601021.748   -20034456.62343 -15565569.23042  21601024.666    21601023.083
  22157106.315   -16403761.09943 -12735462.91342  22157108.488    22157107.388
  24546057.507    -1273561.91243   -975561.78742  24546059.710    24546065.340
  20629755.562   -26906602.75644 -20931673.08842  20629757.802    20629755.378
  22778627.949   -15668447.83443 -12033172.25642  22778630.549    22778629.154
  20580396.556   -23643929.60444 -17715503.72942  20580398.687    20580396.421
  23720415.356    -6708314.00143  -5195456.99542  23720417.606    23720415.897
  21547135.546   -18613348.44543 -13999511.72042  21547137.995    21547135.491
 03  2 28  0 13 30.0000000  0  9G17G26G15G30G 6G29G23G16G18
  20990206.523   -20601583.33744 -15844117.94842  20990208.345    20990206.350
  21598512.013   -20047645.07943 -15575845.86742  21598514.941    21598513.292
  22145724.689   -16463571.88843 -12782068.67542  22145726.851    22145725.723
  24564985.091    -1174098.20743   -898057.95742  24564987.340    24564992.990
  20638007.086   -26863240.83344 -20897884.60542  20638009.332    20638006.894
  22782988.204   -15645534.53443 -12015317.71642  22782990.808    22782989.426
  20578406.320   -23654388.19344 -17723653.24942  20578408.469    20578406.186
  23715217.753    -6735627.71943  -5216740.39242  23715220.034    23715218.286
  21534443.688   -18680044.31343 -14051482.45042  21534446.135    21534443.610
 03  2 28  0 14  0.0000000  0  9G17G26G15G30G 6G29G23G16G18
  20986337.740   -20621913.92844 -15859959.95942  20986339.538    20986337.552
  21596123.931   -20060194.37543 -15585624.46442  21596126.824    21596125.158
  22134365.191   -16523266.16743 -12828583.64742  22134367.387    22134366.235
  24583893.150    -1074737.04243   -820634.01142  24583895.381    24583901.090
  20646349.423   -26819401.75844 -20863724.31442  20646351.651    20646349.225
  22787450.965   -15622082.58343 -11997043.44142  22787453.556    22787452.166
  20576501.737   -23664396.78144 -17731452.11242  20576503.890    20576501.560
  23710120.962    -6762411.80143  -5237611.09542  23710123.176    23710121.444
  21521823.744   -18746362.24643 -14103158.68842  21521826.183    21521823.630
 03  2 28  0 14 30.0000000  0  9G17G26G15G30G 6G29G23G16G18
  20982499.319   -20642084.90744 -15875677.59742  20982501.107    20982499.145
  21593859.284   -20072094.84543 -15594897.48142  21593862.188    21593860.476
  22123029.527   -16582835.26043 -12875001.07442  22123031.767    22123030.541
  24602782.844     -975472.31843   -743285.23342  24602785.096    24602790.908
  20654784.069   -26775077.48144 -20829185.94642  20654786.298    20654783.876
  22792017.771   -15598083.86343 -11978343.11242  22792020.349    22792018.973
  20574684.266   -23673947.72344 -17738894.37442  20574686.427    20574684.040
  23705126.612    -6788657.17843  -5258062.03442  23705128.857    23705127.126
  21509277.504   -18812292.90143 -14154533.15142  21509279.955    21509277.355
 03  2 28  0 15  0.0000000  0  9G17G26G15G30G 6G29G23G16G18
  20978689.731   -20662104.46444 -15891277.24442  20978691.514    20978689.537
  21591716.668   -20083354.25743 -15603670.97742  21591719.561    21591717.816
  22111716.078   -16642287.60743 -12921327.53242  22111718.313    22111717.088
  24621652.000     -876315.25443   -666020.33642  24621654.292    24621660.312
  20663309.338   -26730276.97144 -20794276.48942  20663311.565    20663309.153
  22796686.842   -15573547.51443 -11959223.84142  22796689.434    22796688.019
  20572952.082   -23683050.38544 -17745987.33242  20572954.239    20572951.838
  23700233.243    -6814371.94343  -5278099.51142  23700235.451    23700233.789
  21496803.450   -18877844.12944 -14205611.95642  21496805.903    21496803.269
 03  2 28  0 15 30.0000000  0  9G17G26G15G30G 6G29G23G16G18
  20974910.813   -20681962.91244 -15906751.35442  20974912.604    20974910.608
  21589698.014   -20093962.15143 -15611936.79942  21589700.898    21589699.117
  22100426.679   -16701613.74043 -12967555.63942  22100428.900    22100427.640
  24640502.035     -777258.90643   -588833.92442  24640504.193    24640510.393
  20671926.915   -26684991.43344 -20758989.08742  20671929.136    20671926.745
  22801459.825   -15548465.00143 -11939678.99442  22801462.453    22801461.028
  20571306.798   -23691696.37444 -17752724.44542  20571308.949    20571306.521
  23695442.658    -6839546.32743  -5297715.90342  23695444.918    23695443.351
  21484403.562   -18943005.77443 -14256387.18842  21484405.989    21484403.317
 03  2 28  0 16  0.0000000  0  9G17G26G15G30G 6G29G23G16G18
  20971158.931   -20701679.08444 -15922114.59242  20971160.748    20971158.749
  21587799.961   -20103936.30843 -15619708.80542  21587802.838    21587801.040
  22089157.792   -16760831.96543 -13013699.66342  22089160.006    22089158.760
  24659328.932     -678324.57043   -511742.57942  24659330.904    24659337.335
  20680633.054   -26639240.34844 -20723338.91642  20680635.295    20680632.910
  22806333.120   -15522855.38643 -11919723.40542  22806335.761    22806334.299
  20569744.657   -23699905.43544 -17759121.10242  20569746.807    20569744.376
  23690751.431    -6864198.86343  -5316925.68042  23690753.693    23690752.108
  21472074.392   -19007795.68643 -14306872.76442  21472076.830    21472074.145
 03  2 28  0 16 30.0000000  0  9G17G26G15G30G 6G29G23G16G18
  20967439.749   -20721223.51444 -15937344.01042  20967441.562    20967439.559
  21586028.278   -20113246.42843 -15626963.38742  21586031.140    21586029.305
  22077915.034   -16819912.90843 -13059736.71342  22077917.255    22077915.990
  24678137.725     -579485.36143   -434725.37242  24678139.604    24678146.109
  20689433.297   -26592994.81344 -20687303.45942  20689435.525    20689433.173
  22811312.232   -15496689.85743 -11899334.65142  22811314.890    22811313.387
  20568271.082   -23707649.05644 -17765155.06642  20568273.216    20568270.806
  23686165.237    -6888299.40543  -5335705.32142  23686167.586    23686165.893
  21459821.706   -19072183.69844 -14357045.17242  21459824.138    21459821.460
 03  2 28  0 17  0.0000000  0  8G17G26G15G 6G29G23G16G18
  20963749.544   -20740615.51444 -15952454.64742  20963751.384    20963749.376
  21584379.337   -20121911.40543 -15633715.25742  21584382.183    21584380.366
  22066694.619   -16878876.37543 -13105682.21042  22066696.854    22066695.568
  20698323.786   -26546275.17844 -20650898.57342  20698326.003    20698323.640
  22816393.253   -15469988.80043 -11878528.58042  22816395.915    22816394.415
  20566882.107   -23714947.94344 -17770842.47342  20566884.259    20566881.852
  23681680.311    -6911867.71143  -5354070.23742  23681682.681    23681681.037
  21447641.880   -19136188.80944 -14406919.21442  21447644.312    21447641.665
 03  2 28  0 17 30.0000000  0  8G17G26G15G 6G29G23G16G18
  20960089.588   -20759848.72944 -15967441.55842  20960091.420    20960089.420
  21582854.478   -20129924.47243 -15639959.14842  21582857.310    21582855.502
  22055497.796   -16937715.91943 -13151531.15642  22055500.028    22055498.729
  20707305.468   -26499076.22544 -20614120.19242  20707307.699    20707305.336
  22821577.164   -15442747.12443 -11857301.26542  22821579.819    22821578.307
  20565578.701   -23721797.23044 -17776179.54242  20565580.852    20565578.453
  23677297.769    -6934897.76743  -5372015.71642  23677300.124    23677298.572
  21435536.180   -19199804.44644 -14456489.77542  21435538.607    21435535.975
 03  2 28  0 18  0.0000000  0  8G17G26G15G 6G29G23G16G18
  20956455.864   -20778943.98544 -15982320.96342  20956457.680    20956455.699
  21581449.880   -20137305.49843 -15645710.54242  21581452.714    21581450.894
  22044320.611   -16996452.12243 -13197299.56742  22044322.864    22044321.543
  20716374.369   -26451419.03444 -20576984.74942  20716376.580    20716374.227
  22826859.817   -15414986.11443 -11835669.26142  22826862.492    22826861.046
  20564356.757   -23728218.38244 -17781183.00342  20564358.917    20564356.513
  23673013.948    -6957409.52543  -5389557.34742  23673016.251    23673014.747
  21423500.819   -19263050.35344 -14505772.23142  21423503.275    21423500.621
 03  2 28  0 18 30.0000000  0  8G17G26G15G 6G29G23G16G18
  20952850.660   -20797889.32444 -15997083.55242  20952852.473    20952850.492
  21580167.960   -20144041.74743 -15650959.50942  21580170.782    21580168.948
  22033165.439   -17055072.90543 -13242978.04242  22033167.658    22033166.334
  20725532.545   -26403292.51444 -20539483.58542  20725534.786    20725532.428
  22832243.478   -15386694.58343 -11813623.88442  22832246.157    22832244.695
  20563218.342   -23734200.65344 -17785844.47742  20563220.512    20563218.093
  23668830.987    -6979391.14043  -5406685.86642  23668833.214    23668831.676
  21411538.212   -19325913.97544 -14554756.80142  21411540.673    21411538.008
 03  2 28  0 19  0.0000000  0  8G17G26G15G 6G29G23G16G18
  20949270.239   -20816704.45344 -16011744.67642  20949272.052    20949270.081
  21579005.004   -20150152.80043 -15655721.31442  21579007.830    21579005.994
  22022028.381   -17113598.34243 -13288582.21942  22022030.584    22022029.259
  20734776.044   -26354717.56044 -20501632.99342  20734778.287    20734775.972
  22837724.073   -15357893.56343 -11791181.48342  22837726.743    22837725.345
  20562159.441   -23739765.19344 -17790180.45042  20562161.614    20562159.164
  23664745.142    -7000862.49543  -5423416.78542  23664747.381    23664745.725
  21399644.589   -19388415.04044 -14603458.86342  21399647.052    21399644.378
 03  2 28  0 19 30.0000000  0  8G17G26G15G 6G29G23G16G18
  20945720.129   -20835360.43144 -16026281.78642  20945721.934    20945719.927
  21577966.682   -20155608.81143 -15659972.69242  21577969.532    21577967.670
  22010915.008   -17171999.28343 -13334089.38642  22010917.206    22010915.866
  20744110.288   -26305665.72144 -20463410.80142  20744112.539    20744110.252
  22843307.042   -15328554.70443 -11768320.00942  22843309.671    22843308.333
  20561185.324   -23744883.97444 -17794169.07742  20561187.520    20561185.052
  23660761.946    -7021794.36443  -5439727.32142  23660764.128    23660762.583
  21387825.639   -19450523.73944 -14651855.18242  21387828.098    21387825.375
 03  2 28  0 20  0.0000000  0  8G17G26G15G 6G29G23G16G18
  20942198.798   -20853865.16444 -16040701.04242  20942200.603    20942198.565
  21577051.582   -20160417.53343 -15663719.69942  21577054.439    21577052.522
  21999823.794   -17230283.83943 -13379505.86242  21999825.974    21999824.623
  20753533.551   -26256146.16144 -20424824.14642  20753535.807    20753533.540
  22848990.552   -15298687.28643 -11745046.66242  22848993.216    22848991.898
  20560294.276   -23749566.37344 -17797817.66442  20560296.472    20560293.977
  23656879.794    -7042195.02343  -5455623.93242  23656882.026    23656880.407
  21376079.946   -19512247.49744 -14699951.54342  21376082.406    21376079.642
 03  2 28  0 20 30.0000000  0  8G17G26G15G 6G29G23G16G18
  20938708.378   -20872207.46544 -16054993.73042  20938710.209    20938708.121
  21576261.889   -20164567.14143 -15666953.10242  21576264.770    21576262.830
  21988756.885   -17288440.69543 -13424822.83742  21988759.057    21988757.654
  20763047.790   -26206148.55744 -20385864.99642  20763050.033    20763047.778
  22854776.649   -15268280.70043 -11721353.18642  22854779.311    22854778.083
  20559488.139   -23753802.39344 -17801118.41542  20559490.341    20559487.855
  23653100.869    -7062053.06343  -5471097.73542  23653103.211    23653101.512
  21364409.694   -19573574.66644 -14747738.87342  21364412.184    21364409.382
 03  2 28  0 21  0.0000000  0  8G17G26G15G 6G29G23G16G18
  20935245.691   -20890403.85044 -16069172.71442  20935247.558    20935245.449
  21575594.516   -20168074.04643 -15669685.70742  21575597.348    21575595.438
  21977711.057   -17346486.85143 -13470053.54942  21977713.180    21977711.765
  20772649.635   -26155690.66244 -20346547.17142  20772651.882    20772649.589
  22860661.928   -15237353.08843 -11697253.71742  22860664.596    22860663.386
  20558763.495   -23757610.24244 -17804085.52442  20558765.685    20558763.221
  23649422.001    -7081385.68443  -5486162.10642  23649424.327    23649422.555
  21352811.805   -19634521.70644 -14795230.00142  21352814.279    21352811.470
 03  2 28  0 21 30.0000000  0  8G17G26G15G 6G29G23G16G18
  20931813.294   -20908441.10144 -16083227.68542  20931815.178    20931813.082
  21575052.033   -20170924.40143 -15671906.71542  21575054.878    21575052.965
  21966688.853   -17404408.60043 -13515187.32442  21966690.993    21966689.594
  20782341.447   -26104760.03044 -20306860.99242  20782343.677    20782341.383
  22866648.820   -15205891.83643 -11672738.43042  22866651.474    22866650.227
  20558122.663   -23760977.67044 -17806709.45042  20558124.852    20558122.399
  23645845.672    -7100179.24943  -5500806.43442  23645847.968    23645846.285
  21341288.921   -19695074.57944 -14842413.98442  21341291.375    21341288.593
 03  2 28  0 22  0.0000000  0  8G17G26G15G 6G29G23G16G18
  20928406.870   -20926341.82044 -16097176.27242  20928408.754    20928406.682
  21574630.182   -20173140.77843 -15673633.72642  21574633.062    21574631.157
  21955686.001   -17462228.86743 -13560242.01842  21955688.090    21955686.719
  20792118.656   -26053380.56544 -20266825.06242  20792120.890    20792118.581
  22872732.607   -15173921.21243 -11647826.22042  22872735.291    22872734.034
  20557561.044   -23763928.89544 -17809009.06942  20557563.217    20557560.759
  23642367.608    -7118456.74243  -5515048.61942  23642369.894    23642368.180
  21329836.743   -19755255.93044 -14889308.47042  21329839.183    21329836.414
 03  2 28  0 22 30.0000000  0  8G17G26G15G 6G29G23G16G18
  20925032.128   -20944076.00044 -16110995.08542  20925034.018    20925031.952
  21574334.781   -20174692.81743 -15674843.07342  21574337.656    21574335.728
  21944708.151   -17519917.72243 -13605194.31642  21944710.190    21944708.815
  20801986.784   -26001523.26044 -20226416.79542  20801989.040    20801986.703
  22878918.917   -15141412.01843 -11622494.35442  22878921.616    22878920.304
  20557084.095   -23766435.16244 -17810961.96742  20557086.259    20557083.805
  23638993.227    -7136188.49543  -5528865.55642  23638995.597    23638993.965
  21318461.014   -19815035.44844 -14935889.84242  21318463.464    21318460.689
 03  2 28  0 23  0.0000000  0  8G17G26G15G 6G29G23G16G18
  20921689.953   -20961639.15644 -16124680.62642  20921691.844    20921689.761
  21574166.760   -20175575.63843 -15675530.95242  21574169.623    21574167.707
  21933756.172   -17577470.50443 -13650040.57942  21933758.197    21933756.844
  20811946.575   -25949184.27844 -20185633.19242  20811948.824    20811946.503
  22885208.421   -15108360.81943 -11596740.14642  22885211.080    22885209.680
  20556692.450   -23768493.20444 -17812565.60142  20556694.608    20556692.131
  23635723.623    -7153369.96843  -5542253.69242  23635726.012    23635724.458
  21307162.767   -19874407.84544 -14982153.97642  21307165.201    21307162.446
 03  2 28  0 23 30.0000000  0  8G17G26G15G 6G29G23G16G18
  20918379.130   -20979037.59544 -16138237.82042  20918381.019    20918378.917
  21574124.950   -20175795.37043 -15675702.14042  21574127.781    21574125.844
  21922828.877   -17634893.56143 -13694785.75842  21922830.877    21922829.540
  20821996.603   -25896371.21644 -20144480.17742  20821998.856    20821996.514
  22891599.603   -15074775.18243 -11570569.48242  22891602.210    22891600.759
  20556384.609   -23770110.92544 -17813826.13142  20556386.745    20556384.245
  23632557.573    -7170007.80343  -5555218.21742  23632559.915    23632558.335
  21295940.839   -19933379.22644 -15028105.62942  21295943.262    21295940.494
 03  2 28  0 24  0.0000000  0  8G17G26G15G 6G29G23G16G18
  20915096.491   -20996287.91344 -16151679.59242  20915098.374    20915096.248
  21574206.126   -20175368.61943 -15675369.57242  21574208.958    21574207.008
  21911923.063   -17692203.81443 -13739443.03342  21911925.057    21911923.706
  20832133.425   -25843101.94644 -20102971.67742  20832135.662    20832133.362
  22898088.972   -15040673.28143 -11543996.54742  22898091.571    22898090.113
  20556157.073   -23771306.46344 -17814757.69142  20556159.218    20556156.692
  23629491.762    -7186119.07443  -5567772.43042  23629494.003    23629492.413
  21284792.029   -19991966.37944 -15073757.87942  21284794.440    21284791.643
 03  2 28  0 24 30.0000000  0  8G17G26G15G 6G29G23G16G18
  20911839.040   -21013405.79544 -16165018.16942  20911840.939    20911838.785
  21574407.408   -20174310.81143 -15674545.26742  21574410.220    21574408.265
  21901035.753   -17749416.77543 -13784024.49442  21901037.745    21901036.378
  20842353.880   -25789393.16044 -20061120.69542  20842356.136    20842353.836
  22904673.424   -15006071.70443 -11517034.24842  22904676.010    22904674.528
  20556006.658   -23772096.74644 -17815373.45842  20556008.806    20556006.274
  23626523.077    -7201719.64443  -5579928.69142  23626525.328    23626523.658
  21273713.477   -20050184.32744 -15119122.43442  21273715.913    21273713.048
 03  2 28  0 25  0.0000000  0  8G17G26G15G 6G29G23G16G18
  20908615.623   -21030344.94844 -16178217.47842  20908617.496    20908615.358
  21574737.559   -20172575.73243 -15673193.21242  21574740.322    21574738.406
  21890175.667   -17806486.41143 -13828494.26942  21890177.704    21890176.339
  20852666.540   -25735199.91744 -20018892.21642  20852668.806    20852666.494
  22911361.478   -14970925.54643 -11489647.61242  22911364.045    22911362.576
  20555941.831   -23772437.11144 -17815638.64242  20555944.003    20555941.455
  23623660.356    -7216763.54643  -5591651.18442  23623662.635    23623660.887
  21262714.037   -20107986.62544 -15164163.10542  21262716.469    21262713.535
 03  2 28  0 25 30.0000000  0  8G17G26G15G 6G29G23G16G18
  20905419.868   -21047138.63144 -16191303.42642  20905421.745    20905419.591
  21575190.263   -20170196.46043 -15671339.19042  21575193.010    21575191.136
  21879336.587   -17863445.81743 -13872878.15342  21879338.625    21879337.274
  20863064.798   -25680556.68944 -19976313.09642  20863067.090    20863064.777
  22918146.584   -14935269.38543 -11461863.54342  22918149.145    22918147.688
  20555956.024   -23772362.38944 -17815580.38242  20555958.188    20555955.635
  23620897.084    -7231284.73643  -5602966.37042  23620899.354    23620897.604
  21251787.380   -20165406.35444 -15208905.66942  21251789.797    21251786.852
 03  2 28  0 26  0.0000000  0  8G17G26G15G 6G29G23G16G18
  20902249.519   -21063798.76244 -16204285.31342  20902251.422    20902249.254
  21575763.296   -20167185.25043 -15668992.74342  21575765.997    21575764.122
  21868516.116   -17920307.45243 -13917185.85442  21868518.170    21868516.827
  20873546.126   -25625476.96543 -19933393.84742  20873548.418    20873546.131
  22925026.169   -14899116.87843 -11433692.71142  22925028.752    22925027.173
  20556046.602   -23771886.30744 -17815209.37842  20556048.762    20556046.196
  23618230.925    -7245295.73643  -5613884.00342  23618233.177    23618231.410
  21240931.235   -20222455.42544 -15253359.41242  21240933.674    21240930.705
 03  2 28  0 26 30.0000000  0  8G17G26G15G 6G29G23G16G18
  20899107.783   -21080308.56444 -16217150.05442  20899109.678    20899107.532
  21576459.770   -20163524.88143 -15666140.45942  21576462.545    21576460.647
  21857717.529   -17977054.17343 -13961404.01742  21857719.568    21857718.211
  20884113.621   -25569944.56444 -19890121.86542  20884115.911    20884113.589
  22932003.228   -14862452.04143 -11405122.66442  22932005.843    22932004.150
  20556216.562   -23770992.95844 -17814513.23742  20556218.738    20556216.168
  23615665.066    -7258779.42343  -5624390.74342  23615667.342    23615665.481
  21230148.912   -20279116.46344 -15297510.78942  21230151.361    21230148.414
 03  2 28  0 27  0.0000000  0  8G17G26G15G 6G29G23G16G18
  20896001.670   -21096631.18544 -16229868.93742  20896003.565    20896001.415
  21577286.785   -20159178.73543 -15662753.80142  21577289.598    21577287.692
  21846947.839   -18033648.99343 -14005503.81442  21846949.896    21846948.505
  20894773.951   -25513924.23444 -19846469.67742  20894776.239    20894773.925
  22939084.526   -14825239.50743 -11376125.82442  22939087.134    22939085.377
  20556472.626   -23769647.21444 -17813464.57342  20556474.808    20556472.234
  23613206.433    -7271699.70443  -5634458.46642  23613208.676    23613206.841
  21219447.472   -20335352.45444 -15341330.96042  21219449.922    21219446.994
 03  2 28  0 27 30.0000000  0  8G17G26G15G 6G29G23G16G18
  20892927.830   -21112784.08944 -16242455.56942  20892929.750    20892927.575
  21578240.986   -20154164.15343 -15658846.28242  21578243.815    21578241.921
  21836203.705   -18090109.42943 -14049498.89842  21836205.781    21836204.358
  20905523.608   -25457434.50644 -19802451.72542  20905525.896    20905523.565
  22946266.439   -14787498.12043 -11346716.89442  22946269.093    22946267.254
  20556811.196   -23767867.90644 -17812078.07042  20556813.347    20556810.793
  23610851.574    -7284074.39943  -5644101.04142  23610853.866    23610852.020
  21208823.624   -20391180.69944 -15384833.40842  21208826.073    21208823.168
 03  2 28  0 28  0.0000000  0  8G17G26G15G 6G29G23G16G18
  20889882.189   -21128788.86444 -16254926.77442  20889884.127    20889881.941
  21579318.168   -20148503.38643 -15654435.24342  21579321.001    21579319.063
  21825481.004   -18146457.40443 -14093406.33842  21825483.068    21825481.626
  20916358.129   -25400498.74343 -19758086.20942  20916360.415    20916358.085
  22953544.581   -14749251.15243 -11316914.00542  22953547.199    22953545.321
  20557227.748   -23765678.74044 -17810372.18942  20557229.914    20557227.346
  23608596.200    -7295926.33143  -5653336.27642  23608598.541    23608596.744
  21198273.275   -20446622.89244 -15428035.03242  21198275.691    21198272.799
 03  2 28  0 28 30.0000000  0  8G17G26G15G 6G29G23G16G18
  20886864.831   -21144644.94044 -16267282.11142  20886866.772    20886864.564
  21580518.451   -20142195.75543 -15649520.15342  21580521.275    21580519.296
  21814779.790   -18202692.33443 -14137225.69542  21814781.888    21814780.383
  20927277.442   -25343117.32943 -19713373.43742  20927279.718    20927277.420
  22960918.714   -14710499.64043 -11286717.96542  22960921.354    22960919.390
  20557722.134   -23763080.49344 -17808347.55142  20557724.309    20557721.736
  23606440.454    -7307255.05043  -5662163.82442  23606442.721    23606440.959
  21187796.488   -20501678.47044 -15470935.40342  21187798.906    21187795.982
 03  2 28  0 29  0.0000000  0  8G17G26G15G 6G29G23G16G18
  20883879.672   -21160331.91144 -16279505.68542  20883881.625    20883879.365
  21581845.608   -20135221.28143 -15644085.44142  21581848.423    21581846.411
  21804103.878   -18258794.07943 -14180941.26242  21804106.021    21804104.507
  20938285.164   -25285271.34843 -19668298.65642  20938287.447    20938285.167
  22968392.478   -14671224.50043 -11256113.89642  22968395.068    22968393.154
  20558297.983   -23760054.41244 -17805989.53542  20558300.130    20558297.530
  23604387.984    -7318040.68343  -5670568.17442  23604390.292    23604388.527
  21177397.210   -20556326.81744 -15513518.44942  21177399.615    21177396.649
 03  2 28  0 29 30.0000000  0  8G17G26G15G 6G29G23G16G18
  20880919.877   -21175885.53644 -16291625.34942  20880921.826    20880919.560
  21583292.845   -20127615.73943 -15638158.98542  21583295.676    21583293.618
  21793446.580   -18314798.22343 -14224580.77542  21793448.742    21793447.201
  20949374.270   -25226997.85644 -19622890.75742  20949376.548    20949374.283
  22975958.764   -14631463.01143 -11225130.86142  22975961.384    22975959.471
  20558948.114   -23756637.77444 -17803327.18542  20558950.270    20558947.645
  23602431.936    -7328319.54543  -5678577.64542  23602434.252    23602432.501
  21167068.669   -20610603.37644 -15555811.78942  21167071.078    21167068.058
 03  2 28  0 30  0.0000000  0  8G17G26G15G 6G29G23G16G18
  20877991.084   -21191276.43344 -16303618.21942  20877992.995    20877990.706
  21584865.783   -20119349.76743 -15631717.91042  21584868.604    21584866.484
  21782813.493   -18370675.06143 -14268121.08542  21782815.682    21782814.133
  20960550.067   -25168268.63243 -19577127.73742  20960552.358    20960550.114
  22983622.982   -14591186.97443 -11193746.87442  22983625.603    22983623.699
  20559677.858   -23752802.73744 -17800338.80342  20559680.023    20559677.402
  23600577.757    -7338062.90943  -5686169.83742  23600580.099    23600578.385
  21156816.452   -20664478.79644 -15597792.55742  21156818.862    21156815.814
 03  2 28  0 30 30.0000000  0  8G17G26G15G 6G29G23G16G18
  20875100.193   -21206467.92644 -16315455.71042  20875102.105    20875099.821
  21586571.205   -20110387.34443 -15624734.14142  21586574.044    21586571.930
  21772211.536   -18426388.38043 -14311533.98142  21772213.740    21772212.169
  20971819.223   -25109048.82343 -19530982.44242  20971821.506    20971819.282
  22991391.743   -14550361.63243 -11161934.87742  22991394.351    22991392.471
  20560493.836   -23748514.53844 -17796997.30642  20560496.012    20560493.373
  23598832.310    -7347234.81443  -5693316.75042  23598834.679    23598832.971
  21146647.541   -20717916.37044 -15639432.14242  21146649.989    21146646.908
 03  2 28  0 31  0.0000000  0  8G17G26G15G 6G29G23G16G18
  20872239.768   -21221499.31344 -16327168.44042  20872241.674    20872239.409
  21588401.638   -20100768.18443 -15617238.62642  21588404.461    21588402.354
  21761633.210   -18481977.57443 -14354850.15442  21761635.410    21761633.837
  20983174.003   -25049379.11543 -19484486.57942  20983176.282    20983174.065
  22999257.189   -14509028.04843 -11129726.84142  22999259.828    22999257.946
  20561388.257   -23743814.16544 -17793334.63142  20561390.425    20561387.795
  23597188.054    -7355875.38443  -5700049.62842  23597190.447    23597188.663
  21136554.478   -20770955.58244 -15680761.32042  21136556.909    21136553.819
 03  2 28  0 31 30.0000000  0  8G17G26G15G 6G29G23G16G18
  20869407.289   -21236383.90444 -16338766.79042  20869409.173    20869406.923
  21590354.352   -20090506.19343 -15609242.20042  21590357.212    21590355.112
  21751075.914   -18537456.21043 -14398080.18342  21751078.121    21751076.527
  20994611.550   -24989274.46343 -19437651.79542  20994613.835    20994611.598
  23007216.570   -14467201.08643 -11097134.36942  23007219.196    23007217.301
  20562358.210   -23738716.78144 -17789362.59742  20562360.392    20562357.750
  23595642.189    -7363998.67843  -5706379.43742  23595644.580    23595642.739
  21126534.677   -20823609.76744 -15721790.47642  21126537.113    21126533.978
 03  2 28  0 32  0.0000000  0  8G17G26G15G 6G29G23G16G18
  20866607.323   -21251097.72644 -16350232.07442  20866609.176    20866606.947
  21592433.994   -20079577.42943 -15600726.21442  21592436.846    21592434.736
  21740544.251   -18592800.06343 -14441205.18842  21740546.477    21740544.898
  21006136.196   -24928712.11743 -19390460.36642  21006138.468    21006136.243
  23015274.113   -14424858.25843 -11064139.93342  23015276.726    23015274.815
  20563408.015   -23733199.83244 -17785063.62742  20563410.187    20563407.559
  23594199.181    -7371581.51343  -5712288.12242  23594201.544    23594199.717
  21116592.746   -20875854.69244 -15762500.72642  21116595.178    21116592.050
 03  2 28  0 32 30.0000000  0  8G17G26G15G 6G29G23G16G18
  20863835.182   -21265665.29944 -16361583.39542  20863837.026    20863834.810
  21594635.702   -20068007.12343 -15591710.32142  21594638.566    21594636.435
  21730033.619   -18648033.46843 -14484244.12842  21730035.825    21730034.246
  21017742.958   -24867718.19943 -19342932.64942  21017745.257    21017743.016
  23023424.869   -14382025.76443 -11030763.93742  23023427.481    23023425.568
  20564532.625   -23727289.64744 -17780458.24142  20564534.828    20564532.192
  23592854.258    -7378649.05743  -5717795.28142  23592856.590    23592854.813
  21106723.971   -20927715.09944 -15802911.35542  21106726.399    21106723.282
 03  2 28  0 33  0.0000000  0  8G17G26G15G 6G29G23G16G18
  20861091.034   -21280085.76244 -16372820.08942  20861092.867    20861090.658
  21596959.555   -20055794.97843 -15582194.31042  21596962.403    21596960.270
  21719544.082   -18703155.89743 -14527196.59542  21719546.302    21719544.731
  21029431.675   -24806293.52443 -19295069.27042  21029433.997    21029431.759
  23031668.590   -14338704.63343 -10997007.18942  23031671.203    23031669.281
  20565731.889   -23720987.37744 -17775547.33942  20565734.079    20565731.430
  23591607.331    -7385201.49043  -5722901.05542  23591609.686    23591607.855
  21096928.488   -20979190.39344 -15843021.89742  21096930.916    21096927.793
 03  2 28  0 33 30.0000000  0  8G17G26G15G 6G29G23G16G18
  20858378.855   -21294338.21044 -16383925.85742  20858380.674    20858378.511
  21599409.402   -20042920.68143 -15572162.32842  21599412.219    21599410.116
  21709079.668   -18758146.50343 -14570046.34042  21709081.869    21709080.295
  21041206.012   -24744418.98643 -19246855.35842  21041208.336    21041206.132
  23040008.892   -14294875.94143 -10962854.94942  23040011.494    23040009.597
  20567009.378   -23714273.92444 -17770316.03342  20567011.581    20567008.933
  23590462.281    -7391218.87943  -5727589.91542  23590464.606    23590462.695
  21087210.264   -21030259.73244 -15882816.10942  21087212.661    21087209.541
 03  2 28  0 34  0.0000000  0  8G17G26G15G 6G29G23G16G18
  20855699.955   -21308415.70744 -16394895.30242  20855701.790    20855699.657
  21601986.491   -20029377.85143 -15561609.41742  21601989.287    21601987.161
  21698641.629   -18812998.60243 -14612788.15942  21698643.811    21698642.206
  21053066.992   -24682089.12143 -19198286.64542  21053069.313    21053067.110
  23048446.823   -14250534.14143 -10928302.88842  23048449.427    23048447.536
  20568366.149   -23707143.95644 -17764760.16942  20568368.314    20568365.670
  23589420.240    -7396694.87943  -5731856.91142  23589422.587    23589420.719
  21077570.546   -21080916.34844 -15922288.71342  21077572.961    21077569.838
 03  2 28  0 34 30.0000000  0  8G17G26G15G 6G29G23G16G18
  20853050.869   -21322336.62344 -16405742.73742  20853052.697    20853050.577
  21604687.151   -20015185.69643 -15550550.54242  21604689.932    21604687.788
  21688226.446   -18867730.50043 -14655436.31642  21688228.630    21688226.987
  21065010.859   -24619323.68743 -19149378.52542  21065013.187    21065010.997
  23056978.575   -14205699.60443 -10893366.87542  23056981.152    23056979.250
  20569798.307   -23699617.74344 -17758895.54842  20569800.476    20569797.820
  23588477.517    -7401648.98843  -5735717.23642  23588479.833    23588477.906
  21068005.906   -21131178.46844 -15961453.92142  21068008.319    21068005.192
 03  2 28  0 35  0.0000000  0  8G17G26G15G 6G29G23G16G18
  20850429.870   -21336110.09444 -16416475.28542  20850431.689    20850429.570
  21607509.522   -20000353.81843 -15538993.18642  21607512.334    21607510.165
  21677832.363   -18922351.40543 -14697997.98842  21677834.590    21677832.890
  21077035.547   -24556133.58343 -19100139.48942  21077037.859    21077035.672
  23065601.948   -14160383.20043 -10858055.38742  23065604.537    23065602.682
  20571303.765   -23691706.37044 -17752730.80642  20571305.936    20571303.274
  23587632.117    -7406091.15743  -5739178.63242  23587634.472    23587632.585
  21058514.585   -21181055.39844 -16000318.97842  21058517.007    21058513.856
 03  2 28  0 35 30.0000000  0  8G17G26G15G 6G29G23G16G18
  20847845.203   -21349692.57744 -16427059.00442  20847847.035    20847844.905
  21610461.859   -19984839.18643 -15526903.82042  21610464.661    21610462.492
  21667467.745   -18976817.60343 -14740439.10942  21667469.985    21667468.240
  21089149.067   -24492476.71043 -19050536.74642  21089151.363    21089149.191
  23074325.032   -14114542.98443 -10822335.72742  23074327.600    23074325.711
  20572890.519   -23683367.81144 -17746233.19442  20572892.682    20572890.011
  23586892.299    -7409978.98243  -5742208.08842  23586894.611    23586892.802
  21049104.810   -21230503.67144 -16038850.01842  21049107.250    21049104.077
 03  2 28  0 36  0.0000000  0  8G17G26G15G 6G29G23G16G18
  20845292.395   -21363107.55844 -16437512.20442  20845294.242    20845292.079
  21613539.456   -19968666.27843 -15514301.50842  21613542.216    21613540.058
  21657128.058   -19031152.74643 -14782778.10842  21657130.329    21657128.504
  21101346.575   -24428378.48043 -19000590.08842  21101348.843    21101346.680
  23083142.914   -14068204.54143 -10786227.83942  23083145.489    23083143.634
  20574553.691   -23674627.73344 -17739422.70842  20574555.837    20574553.137
  23586253.332    -7413336.86043  -5744824.57542  23586255.655    23586253.792
  21039772.024   -21279547.38844 -16077065.81842  21039774.494    21039771.288
 03  2 28  0 36 30.0000000  0  8G17G26G15G 6G29G23G16G18
  20842764.854   -21376389.68244 -16447861.88042  20842766.723    20842764.566
  21616735.545   -19951870.46143 -15501213.81142  21616738.322    21616736.148
  21646806.691   -19085391.66543 -14825042.12942  21646808.962    21646807.102
  21113621.174   -24363875.16343 -18950327.77642  21113623.430    21113621.256
  23092048.717   -14021404.26043 -10749760.08642  23092051.283    23092049.417
  20576286.317   -23665522.44544 -17732327.64442  20576288.484    20576285.770
  23585708.395    -7416200.42943  -5747055.89142  23585710.667    23585708.934
  21030509.674   -21328221.12344 -16114993.32842  21030512.133    21030508.907
 03  2 28  0 37  0.0000000  0  8G17G26G15G 6G29G23G16G18
  20840273.680   -21389480.60744 -16458062.57042  20840275.568    20840273.393
  21620061.116   -19934394.27943 -15487595.95942  21620063.907    21620061.685
  21636514.705   -19139476.07943 -14867185.76242  21636517.008    21636515.100
  21125983.612   -24298910.13743 -18899705.69442  21125985.893    21125983.672
  23101053.112   -13974085.70743 -10712888.47242  23101055.713    23101053.869
  20578099.195   -23655995.57744 -17724904.07342  20578101.367    20578098.625
  23585268.376    -7418512.49043  -5748857.46342  23585270.668    23585268.949
  21021328.816   -21376466.54044 -16152587.08242  21021331.283    21021328.000
 03  2 28  0 37 30.0000000  0  8G17G26G15G 6G29G23G16G18
  20837816.461   -21402393.33644 -16468124.40942  20837818.330    20837816.152
  21623513.577   -19916251.28043 -15473458.50942  21623516.378    21623514.124
  21626249.737   -19193418.66343 -14909218.88042  21626252.023    21626250.106
  21138431.119   -24233498.09143 -18848735.29142  21138433.415    21138431.190
  23110153.329   -13926263.69743 -10675624.56742  23110155.932    23110154.090
  20579989.492   -23646061.79944 -17717163.42742  20579991.669    20579988.923
  23584930.659    -7420287.04043  -5750240.21042  23584932.965    23584931.187
  21012226.861   -21424297.36744 -16189857.77942  21012229.314    21012225.989
 03  2 28  0 38  0.0000000  0  8G17G26G15G 6G29G23G16G18
  20835390.647   -21415140.99844 -16478057.63042  20835392.498    20835390.302
  21627090.179   -19897456.04943 -15458812.83642  21627092.968    21627090.668
  21616009.191   -19247232.92343 -14951152.00442  21616011.460    21616009.534
  21150960.799   -24167654.24043 -18797428.41842  21150963.108    21150960.865
  23119346.424   -13877953.86843 -10637980.55142  23119349.002    23119347.203
  20581954.264   -23635736.72044 -17709117.88042  20581956.440    20581953.666
  23584692.471    -7421538.58143  -5751215.41742  23584694.778    23584692.963
  21003201.302   -21471726.75344 -16226815.66942  21003203.736    21003200.380
 03  2 28  0 38 30.0000000  0  8G17G26G15G 6G29G23G16G18
  20832997.084   -21427719.15744 -16487858.76242  20832998.921    20832996.743
  21630791.617   -19878004.93043 -15443656.07742  21630794.402    21630792.032
  21605793.868   -19300914.61943 -14992981.83142  21605796.139    21605794.196
  21163573.134   -24101375.97543 -18745783.03842  21163575.472    21163573.207
  23128632.804   -13829153.62143 -10599954.38442  23128635.384    23128633.611
  20583994.000   -23625017.69544 -17700765.35642  20583996.179    20583993.390
  23584554.471    -7422263.78643  -5751780.48942  23584556.805    23584554.915
  20994252.856   -21518750.71644 -16263457.64242  20994255.309    20994251.919
 03  2 28  0 39  0.0000000  0  8G17G26G15G 6G29G23G16G18
  20830631.581   -21440149.81144 -16497544.95742  20830633.423    20830631.219
  21634613.500   -19857920.80343 -15428006.07542  21634616.253    21634613.872
  21595599.577   -19354485.74443 -15034725.49842  21595601.834    21595599.905
  21176263.658   -24034686.96643 -18693817.59942  21176265.968    21176263.721
  23138008.016   -13779886.68943 -10561564.57442  23138010.600    23138008.788
  20586104.151   -23613928.53744 -17692124.41042  20586106.358    20586103.555
  23584512.217    -7422485.73643  -5751953.41342  23584514.559    23584512.647
  20985377.363   -21565391.44444 -16299800.98842  20985379.808    20985376.392
 03  2 28  0 39 30.0000000  0  8G17G26G15G 6G29G23G16G18
  20828297.787   -21452413.83044 -16507101.30342  20828299.653    20828297.420
  21638559.240   -19837185.62743 -15411848.75742  21638562.008    21638559.633
  21585429.961   -19407927.23443 -15076368.15242  21585432.217    21585430.274
  21189035.626   -23967570.04643 -18641518.72442  21189037.925    21189035.675
  23147475.219   -13730136.17543 -10522797.94742  23147477.772    23147476.027
  20588287.989   -23602452.22744 -17683181.78542  20588290.194    20588287.391
  23584569.165    -7422186.58943  -5751720.30542  23584571.518    23584569.480
  20976578.356   -21611630.39744 -16335831.26742  20976580.769    20976577.333
 03  2 28  0 40  0.0000000  0  8G17G26G15G 6G29G23G16G18
  20825994.455   -21464517.89644 -16516533.01342  20825996.298    20825994.049
  21642627.426   -19815806.95643 -15395190.01842  21642630.168    21642627.821
  21575283.757   -19461245.66043 -15117914.90742  21575286.005    21575284.056
  21201887.433   -23900033.55143 -18588892.90842  21201889.724    21201887.483
  23157032.841   -13679910.68743 -10483661.20642  23157035.311    23157033.615
  20590543.853   -23590597.39844 -17673944.21642  20590546.067    20590543.258
  23584723.659    -7421374.50043  -5751087.49042  23584726.089    23584723.943
  20967854.467   -21657474.44444 -16371553.82542  20967856.889    20967853.445
 03  2 28  0 40 30.0000000  0  8G17G26G15G 6G29G23G16G18
  20823728.491   -21476425.38644 -16525811.54542  20823730.365    20823728.096
  21646824.785   -19793749.35143 -15378002.25342  21646827.529    21646825.224
  21565167.978   -19514404.26543 -15159337.12942  21565170.194    21565168.258
  21214825.700   -23832042.64543 -18535913.00842  21214827.992    21214825.752
  23166687.457   -13629175.43943 -10444127.25842  23166689.873    23166688.208
  20592878.370   -23578329.23444 -17664384.57142  20592880.577    20592877.784
  23584982.681    -7420013.61543  -5750027.04842  23584985.018    23584982.894
  20959212.661   -21702887.15444 -16406940.27642  20959215.074    20959211.640
 03  2 28  0 41  0.0000000  0  8G17G26G15G 6G29G23G16G18
  20821494.063   -21488167.33544 -16534961.08242  20821495.904    20821493.625
  21651145.246   -19771045.00743 -15360310.52742  21651147.978    21651145.662
  21555076.600   -19567434.60643 -15200659.40342  21555078.819    21555076.835
  21227844.118   -23763630.52643 -18482604.88942  21227846.384    21227844.175
  23176432.650   -13577964.05843 -10404222.29942  23176435.094    23176433.405
  20595285.200   -23565681.13444 -17654528.86842  20595287.410    20595284.604
  23585339.856    -7418136.65343  -5748564.47142  23585342.195    23585340.057
  20950646.935   -21747900.10744 -16442015.22742  20950649.335    20950645.893
 03  2 28  0 41 30.0000000  0  8G17G26G15G 6G29G23G16G18
  20819288.755   -21499756.16044 -16543991.30842  20819290.613    20819288.292
  21655586.222   -19747707.27443 -15342125.25342  21655588.960    21655586.652
  21545007.313   -19620348.79243 -15241891.17042  21545009.528    21545007.531
  21240939.999   -23694811.27043 -18428979.52542  21240942.272    21240940.079
  23186265.778   -13526290.60443 -10363957.28342  23186268.229    23186266.485
  20597761.673   -23552667.02544 -17644387.96642  20597763.857    20597761.071
  23585792.665    -7415757.09943  -5746710.25842  23585794.945    23585792.817
  20942154.841   -21792525.95644 -16476788.54442  20942157.260    20942153.808
 03  2 28  0 42  0.0000000  0  8G17G26G15G 6G29G23G16G18
  20817118.642   -21511160.09744 -16552877.46142  20817120.523    20817118.143
  21660153.495   -19723705.85743 -15323422.82942  21660156.221    21660153.930
  21534966.102   -19673115.44543 -15283007.97542  21534968.318    21534966.316
  21254118.952   -23625555.51743 -18375014.02742  21254121.220    21254119.052
  23196192.412   -13474125.92243 -10323309.48342  23196194.847    23196193.080
  20600313.333   -23539257.71244 -17633939.11042  20600315.535    20600312.740
  23586346.807    -7412844.99143  -5744441.07142  23586349.100    23586346.984
  20933742.303   -21836733.92344 -16511236.23742  20933744.696    20933741.217
 03  2 28  0 42 30.0000000  0  8G17G26G15G 6G29G23G16G18
  20814978.821   -21522404.90544 -16561639.61942  20814980.705    20814978.281
  21664841.916   -19699067.75443 -15304224.28042  21664844.655    21664842.362
  21524948.068   -19725760.29243 -15324029.87142  21524950.270    21524948.263
  21267375.698   -23555890.92343 -18320729.95342  21267377.963    21267375.800
  23206207.225   -13421497.82043 -10282300.57142  23206209.691    23206207.838
  20602934.913   -23525481.03444 -17623203.99842  20602937.118    20602934.324
  23586997.192    -7409427.14143  -5741777.79142  23586999.495    23586997.380
  20925404.312   -21880549.85944 -16545378.44942  20925406.731    20925403.241
 03  2 28  0 43  0.0000000  0  8G17G26G15G 6G29G23G16G18
  20812873.579   -21533468.07444 -16570260.23842  20812875.448    20812872.993
  21669655.533   -19673771.83243 -15284513.15042  21669658.249    21669655.976
  21514957.474   -19778261.02843 -15364939.47942  21514959.644    21514957.637
  21280714.118   -23485797.03243 -18266111.37242  21280716.389    21280714.250
  23216314.100   -13368385.92843 -10240914.67942  23216316.623    23216314.689
  20605630.339   -23511316.32244 -17612166.52742  20605632.549    20605629.735
  23587747.774    -7405482.80043  -5738704.25842  23587750.083    23587747.972
  20917145.129   -21923951.79744 -16579198.06942  20917147.553    20917144.033
 03  2 28  0 43 30.0000000  0  8G17G26G15G 6G29G23G16G18
  20810802.437   -21544351.92444 -16578741.12542  20810804.295    20810801.823
  21674593.679   -19647821.63743 -15264292.19342  21674596.362    21674594.098
  21504993.878   -19830619.95543 -15405738.58242  21504996.017    21504993.985
  21294133.398   -23415278.20143 -18211161.66042  21294135.680    21294133.579
  23226512.180   -13314794.92043 -10199155.45442  23226514.702    23226512.694
  20608398.757   -23496768.21644 -17600830.31042  20608400.943    20608398.117
  23588597.875    -7401015.51043  -5735223.23842  23588600.153    23588598.100
  20908964.195   -21966942.57344 -16612697.30242  20908966.629    20908963.080
 03  2 28  0 44  0.0000000  0  8G17G26G15G 6G29G23G16G18
  20808763.962   -21555064.06544 -16587088.21842  20808765.806    20808763.345
  21679654.597   -19621226.14543 -15243568.40442  21679657.301    21679655.002
  21495055.775   -19882844.70943 -15446433.13342  21495057.939    21495055.881
  21307631.772   -23344343.99543 -18155888.28042  21307634.033    21307631.930
  23236799.475   -13260734.60343 -10157030.51942  23236802.080    23236800.020
  20611238.261   -23481846.44844 -17589202.93042  20611240.447    20611237.596
  23589545.690    -7396034.57743  -5731341.97542  23589548.002    23589545.970
  20900859.941   -22009530.43044 -16645882.57642  20900862.378    20900858.808
 03  2 28  0 44 30.0000000  0  8G17G26G15G 6G29G23G16G18
  20806756.021   -21565615.63944 -16595310.18842  20806757.887    20806755.422
  21684836.011   -19593997.51943 -15222351.26142  21684838.751    21684836.397
  21485141.160   -19934946.08143 -15487031.54042  21485143.335    21485141.261
  21321206.726   -23273007.25643 -18100301.23742  21321208.959    21321206.871
  23247173.613   -13206218.00143 -10114550.05542  23247176.212    23247174.167
  20614146.394   -23466564.00444 -17577294.50542  20614148.575    20614145.715
  23590588.980    -7390552.23643  -5727070.00542  23590591.220    23590589.205
  20892830.207   -22051726.61244 -16678762.64842  20892832.660    20892829.095
 03  2 28  0 45  0.0000000  0  8G17G26G15G 6G29G23G16G18
  20804782.071   -21575988.68744 -16603393.04742  20804783.923    20804781.491
  21690141.029   -19566119.44843 -15200628.05242  21690143.776    21690141.406
  21475253.357   -19986906.74643 -15527520.30842  21475255.523    21475253.390
  21334861.242   -23201252.43843 -18044388.42142  21334863.477    21334861.375
  23257637.474   -13151229.90943 -10071702.17242  23257640.051    23257638.081
  20617126.118   -23450905.26944 -17565092.86542  20617128.313    20617125.442
  23591730.633    -7384552.54143  -5722394.90642  23591732.880    23591730.898
  20884878.248   -22093514.24644 -16711324.36342  20884880.680    20884877.124
 03  2 28  0 45 30.0000000  0  8G17G26G15G 6G29G23G16G18
  20802840.803   -21586189.96244 -16611342.06142  20802842.642    20802840.246
  21695568.000   -19537600.46343 -15178405.42142  21695570.770    21695568.365
  21465391.011   -20038733.39543 -15567904.64842  21465393.167    21465391.034
  21348593.592   -23129088.59943 -17988156.88242  21348595.843    21348593.732
  23268189.347   -13095779.41843 -10028493.98742  23268191.907    23268189.954
  20620175.726   -23434879.31544 -17552605.08042  20620177.932    20620175.039
  23592969.191    -7378043.71543  -5717323.08142  23592971.448    23592969.454
  20877002.642   -22134900.63244 -16743573.41842  20877005.058    20877001.519
 03  2 28  0 46  0.0000000  0  8G17G26G15G 6G29G23G16G18
  20800933.982   -21596210.19144 -16619149.99942  20800935.820    20800933.438
  21701118.535   -19508432.19543 -15155676.85442  21701121.311    21701118.919
  21455556.009   -20090416.44743 -15608177.09542  21455558.164    21455555.992
  21362405.189   -23056508.28243 -17931600.81442  21362407.431    21362405.327
  23278830.589   -13039859.09343  -9984919.69742  23278833.119    23278831.269
  20623296.654   -23418478.69344 -17539825.34742  20623298.828    20623295.934
  23594306.168    -7371017.84243  -5711848.34842  23594308.397    23594306.469
  20869205.123   -22175876.56344 -16775502.65042  20869207.540    20869203.997
 03  2 28  0 46 30.0000000  0  8G17G26G15G 6G29G23G16G18
  20799059.392   -21606061.10344 -16626825.99942  20799061.212    20799058.855
  21706789.995   -19478628.29543 -15132452.98642  21706792.765    21706790.391
  21445745.988   -20141968.14043 -15648347.18742  21445748.166    21445745.983
  21376293.373   -22983525.49443 -17874731.13042  21376295.646    21376293.530
  23289558.488   -12983483.51043  -9940990.65142  23289561.017    23289559.233
  20626486.190   -23401717.50944 -17526764.65742  20626488.371    20626485.445
  23595738.936    -7363488.46843  -5705981.29642  23595741.197    23595739.217
  20861483.288   -22216454.78744 -16807121.98142  20861485.697    20861482.143
 03  2 28  0 47  0.0000000  0  8G17G26G15G 6G29G23G16G18
  20797220.405   -21615724.85444 -16634356.15942  20797222.230    20797219.868
  21712585.501   -19448172.44343 -15108721.10242  21712588.274    21712585.919
  21435964.415   -20193370.56143 -15688400.96242  21435966.571    21435964.347
  21390261.155   -22910124.54443 -17817535.60642  21390263.430    21390261.281
  23300375.944   -12926637.07143  -9896694.69042  23300378.510    23300376.782
  20629747.320   -23384580.08544 -17513410.79242  20629749.483    20629746.565
  23597270.563    -7355439.46743  -5699709.33542  23597272.828    23597270.830
  20853840.436   -22256617.99444 -16838417.92642  20853842.836    20853839.257
 03  2 28  0 47 30.0000000  0  8G17G26G15G 6G29G23G16G18
  20795415.130   -21625211.47544 -16641748.29942  20795416.956    20795414.587
  21718502.967   -19417075.63743 -15084489.77042  21718505.750    21718503.392
  21426209.415   -20244633.11243 -15728345.75342  21426211.577    21426209.336
  21404306.281   -22836317.11843 -17760023.35042  21404308.563    21404306.396
  23311280.817   -12869331.45643  -9852040.92942  23311283.393    23311281.675
  20633077.822   -23367078.08644 -17499772.84042  20633079.980    20633077.066
  23598898.969    -7346881.97643  -5693041.14242  23598901.290    23598899.267
  20846274.664   -22296376.28644 -16869398.35542  20846277.031    20846273.409
 03  2 28  0 48  0.0000000  0  8G17G26G15G 6G29G23G16G18
  20793639.385   -21634542.90944 -16649019.51342  20793641.190    20793638.832
  21724537.803   -19385362.06443 -15059777.84442  21724540.598    21724538.231
  21416476.742   -20295778.37843 -15768199.14542  21416478.910    21416476.628
  21418424.041   -22762127.88843 -17702213.58842  21418426.345    21418424.152
  23322268.312   -12811591.70543  -9807048.88442  23322270.925    23322269.161
  20636472.987   -23349236.24844 -17485870.07442  20636475.148    20636472.244
  23600619.568    -7337840.21943  -5685995.60442  23600621.904    23600619.857
  20838781.472   -22335752.96944 -16900081.42442  20838783.864    20838780.180
 03  2 28  0 48 30.0000000  0  9G17G26G15G 2G 6G29G23G16G18
  20791905.715   -21643653.24344 -16656118.43942  20791907.516    20791905.138
  21730702.260   -19352967.60143 -15034535.34742  21730705.036    21730702.626
  21406778.873   -20346740.81543 -15807910.07842  21406781.009    21406778.723
  25095832.425    -2747368.86753  -2119734.69552  25095834.732    25095834.558
  21432626.509   -22687493.33743 -17644056.81442  21432628.821    21432626.645
  23333350.439   -12753354.54343  -9761669.24142  23333353.030    23333351.293
  20639944.883   -23330991.11744 -17471653.05142  20639947.046    20639944.148
  23602444.496    -7328250.20143  -5678522.85242  23602446.821    23602444.731
  20831373.317   -22374682.91144 -16930416.38042  20831375.686    20831371.970
 03  2 28  0 49  0.0000000  0  9G17G26G15G 2G 6G29G23G16G18
  20790201.479   -21652608.90344 -16663096.84142  20790203.292    20790200.882
  21736983.339   -19319960.18243 -15008815.22942  21736986.106    21736983.668
  21397103.184   -20397586.75943 -15847530.23142  21397105.292    21397102.991
  25091699.157    -2769089.35343  -2136659.71742  25091701.418    25091701.165
  21446900.713   -22612481.93343 -17585606.39742  21446903.007    21446900.874
  23344514.167   -12694688.63743  -9715955.50642  23344516.790    23344514.989
  20643480.529   -23312411.12144 -17457175.09542  20643482.688    20643479.766
  23604360.786    -7318179.85843  -5670675.82442  23604363.118    23604361.056
  20824037.510   -22413232.68744 -16960455.10142  20824039.856    20824036.129
 03  2 28  0 49 30.0000000  0  9G17G26G15G 2G 6G29G23G16G18
  20788528.838   -21661398.52644 -16669945.86742  20788530.650    20788528.228
  21743382.840   -19286330.24743 -14982610.03942  21743385.634    21743383.160
  21387451.838   -20448304.72743 -15887050.66442  21387453.941    21387451.610
  25087643.037    -2790404.21443  -2153268.67242  25087645.274    25087645.061
  21461248.320   -22537084.66843 -17526855.30542  21461250.607    21461248.496
  23355761.119   -12635585.24843  -9669900.88342  23355763.795    23355761.919
  20647081.560   -23293487.40944 -17442429.30642  20647083.729    20647080.796
  23606370.263    -7307619.74043  -5662447.16442  23606372.646    23606370.590
  20816775.921   -22451392.23644 -16990189.75342  20816778.289    20816774.558
 03  2 28  0 50  0.0000000  0  9G17G26G15G 2G 6G29G23G16G18
  20786892.778   -21669995.98844 -16676645.15842  20786894.581    20786892.135
  21749905.444   -19252053.28243 -14955900.66842  21749908.239    21749905.760
  21377829.794   -20498868.74343 -15926451.13142  21377831.899    21377829.539
  25083668.993    -2811287.68243  -2169541.47842  25083671.274    25083670.909
  21475673.953   -22461277.62043 -17467784.90042  21475676.204    21475674.101
  23367095.916   -12576020.39243  -9623486.67542  23367098.547    23367096.732
  20650752.601   -23274195.83644 -17427396.86942  20650754.763    20650751.832
  23608477.671    -7296545.42543  -5653817.81142  23608480.012    23608477.991
  20809593.447   -22489136.14244 -17019600.52942  20809595.807    20809592.079
 03  2 28  0 50 30.0000000  0  9G17G26G15G 2G 6G29G23G16G18
  20785293.000   -21678402.74544 -16683195.84742  20785294.792    20785292.341
  21756550.613   -19217132.33143 -14928689.49742  21756553.401    21756550.951
  21368236.783   -20549280.02743 -15965732.58742  21368238.881    21368236.543
  25079776.720    -2831741.69643  -2185479.64242  25079779.030    25079778.673
  21490176.879   -22385064.30543 -17408397.92442  21490179.146    21490177.040
  23378517.740   -12515998.13743  -9576716.05442  23378520.367    23378518.507
  20654492.941   -23254540.03044 -17412080.61942  20654495.106    20654492.174
  23610682.247    -7284960.19543  -5644790.34142  23610684.592    23610682.613
  20802489.743   -22526466.03444 -17048688.69142  20802492.111    20802488.395
 03  2 28  0 51  0.0000000  0  9G17G26G15G 2G 6G29G23G16G18
  20783727.618   -21686628.78244 -16689605.71842  20783729.400    20783726.939
  21763316.052   -19181579.37143 -14900985.85642  21763318.871    21763316.370
  21358670.908   -20599548.79543 -16004902.99442  21358673.010    21358670.653
  25075964.119    -2851777.17243  -2201091.67642  25075966.386    25075966.077
  21504754.742   -22308457.24843 -17348704.14442  21504757.006    21504754.903
  23390024.213   -12455530.94943  -9529598.73542  23390026.860    23390025.038
  20658300.241   -23234532.31244 -17396490.15242  20658302.425    20658299.490
  23612981.789    -7272875.93943  -5635374.01842  23612984.158    23612982.175
  20795462.660   -22563393.25744 -17077463.08542  20795465.035    20795461.333
 03  2 28  0 51 30.0000000  0  9G17G26G15G 2G 6G29G23G16G18
  20782195.838   -21694678.21144 -16695877.97342  20782197.637    20782195.151
  21770200.593   -19145400.64743 -14872794.60742  21770203.416    21770200.886
  21349131.337   -20649679.27743 -16043965.65142  21349133.448    21349131.079
  25072230.149    -2871398.92443  -2216381.34042  25072232.394    25072232.271
  21519406.295   -22231462.90643 -17288708.58442  21519408.556    21519406.463
  23401614.104   -12394625.72343  -9482140.08842  23401616.744    23401614.931
  20662173.280   -23214179.13844 -17380630.50042  20662175.443    20662172.526
  23615375.239    -7260298.62543  -5625573.50342  23615377.534    23615375.518
  20788511.280   -22599922.67844 -17105927.49942  20788513.670    20788509.965
 03  2 28  0 52  0.0000000  0  9G17G26G15G 2G 6G29G23G16G18
  20780700.084   -21702538.35244 -16702002.73142  20780701.896    20780699.397
  21777206.399   -19108584.87343 -14844106.95442  21777209.225    21777206.654
  21339620.571   -20699658.47443 -16082910.43242  21339622.682    21339620.305
  25068577.323    -2890594.65543  -2231339.03042  25068579.503    25068579.399
  21534133.531   -22154070.72643 -17228403.02142  21534135.825    21534133.733
  23413289.372   -12333271.89943  -9434331.88942  23413292.002    23413290.140
  20666114.082   -23193470.01244 -17364493.48942  20666116.232    20666113.310
  23617864.514    -7247217.35443  -5615380.30842  23617866.808    23617864.817
  20781637.884   -22636042.38344 -17134072.65442  20781640.286    20781636.555
 03  2 28  0 52 30.0000000  0  9G17G26G15G 2G 6G29G23G16G18
  20779237.216   -21710225.73744 -16707992.87742  20779239.024    20779236.479
  21784329.853   -19071150.66643 -14814937.41242  21784332.696    21784330.120
  21330135.366   -20749503.20743 -16121750.43042  21330137.497    21330135.113
  25065002.231    -2909381.49243  -2245978.10142  25065004.388    25065004.393
  21548932.822   -22076299.79343 -17167802.32642  21548935.133    21548933.075
  23425046.310   -12271488.78543  -9386189.17142  23425048.913    23425047.044
  20670119.009   -23172423.79744 -17348093.80642  20670121.155    20670118.224
  23620446.160    -7233650.67243  -5604808.86642  23620448.446    23620446.448
  20774839.200   -22671769.53844 -17161911.93342  20774841.590    20774837.826
 03  2 28  0 53  0.0000000  0  9G17G26G15G 2G 6G29G23G16G18
  20777810.691   -21717722.16144 -16713834.22542  20777812.503    20777809.919
  21791574.068   -19033082.08243 -14785273.54742  21791576.888    21791574.271
  21320679.153   -20799195.58043 -16160471.71042  21320681.298    21320678.928
  25061508.253    -2927742.45943  -2260285.33842  25061510.459    25061510.421
  21563807.190   -21998134.44643 -17106894.28342  21563809.515    21563807.505
  23436887.856   -12209261.17143  -9337700.10342  23436890.436    23436888.519
  20674191.044   -23151024.95844 -17331419.35142  20674193.191    20674190.251
  23623123.211    -7219582.66443  -5593846.78242  23623125.500    23623123.441
  20768118.467   -22707086.99144 -17189431.96542  20768120.869    20768117.070
 03  2 28  0 53 30.0000000  0  9G17G26G15G 2G 6G29G23G16G18
  20776418.732   -21725036.90944 -16719534.00642  20776420.533    20776417.941
  21798936.861   -18994390.31243 -14755124.09242  21798939.684    21798937.026
  21311250.225   -20848744.76943 -16199081.41842  21311252.358    21311249.965
  25058093.472    -2945687.43443  -2274268.40742  25058095.637    25058095.669
  21578754.406   -21919586.47043 -17045688.09842  21578756.699    21578754.744
  23448811.718   -12146600.67743  -9288873.72442  23448814.328    23448812.399
  20678327.956   -23129285.14144 -17314479.20142  20678330.126    20678327.159
  23625893.500    -7205024.58443  -5582502.82142  23625895.794    23625893.707
  20761473.808   -22742004.81044 -17216640.59642  20761476.186    20761472.351
 03  2 28  0 54  0.0000000  0  9G17G26G15G 2G 6G29G23G16G18
  20775063.106   -21732160.62444 -16725084.93242  20775064.889    20775062.308
  21806419.667   -18955067.90343 -14724483.22142  21806422.443    21806419.781
  21301850.342   -20898141.26243 -16237572.13942  21301852.470    21301850.081
  25054759.481    -2963207.71943  -2287920.56342  25054761.592    25054761.466
  21593775.796   -21840648.69143 -16984178.16942  21593778.099    21593776.149
  23460819.234   -12083500.52243  -9239704.75342  23460821.882    23460819.930
  20682531.168   -23107196.99944 -17297267.62742  20682533.322    20682530.367
  23628758.460    -7189968.86643  -5570771.08442  23628760.754    23628758.700
  20754906.773   -22776514.47644 -17243531.18742  20754909.181    20754905.309
 03  2 28  0 54 30.0000000  0  9G17G26G15G 2G 6G29G23G16G18
  20773742.234   -21739101.75144 -16730493.57542  20773744.007    20773741.451
  21814020.459   -18915125.41943 -14693359.18542  21814023.230    21814020.542
  21292477.862   -20947393.72443 -16275950.63242  21292479.989    21292477.580
  25051504.487    -2980312.77043  -2301249.15042  25051506.687    25051506.466
  21608869.259   -21761332.09043 -16922373.05242  21608871.574    21608869.633
  23472908.250   -12019972.07243  -9190202.03942  23472910.943    23472908.973
  20686798.546   -23084771.63844 -17279793.28642  20686800.702    20686797.754
  23631716.101    -7174426.36043  -5558660.04342  23631718.392    23631716.297
  20748415.649   -22810625.31744 -17270111.00942  20748418.049    20748414.155
 03  2 28  0 55  0.0000000  0  9G17G26G15G 2G 6G29G23G16G18
  20772452.800   -21745877.54644 -16735773.38742  20772454.591    20772452.059
  21821735.497   -18874582.62143 -14661767.37042  21821738.258    21821735.542
  21283129.471   -20996519.76943 -16314230.61842  21283131.592    21283129.147
  25048325.029    -2997020.83843  -2314268.39742  25048327.115    25048327.048
  21624031.052   -21681656.60443 -16860288.29342  21624033.347    21624031.396
  23485075.018   -11956035.31643  -9140381.16942  23485077.644    23485075.689
  20691126.331   -23062028.94144 -17262071.67442  20691128.481    20691125.504
  23634762.676    -7158416.57643  -5546184.87542  23634764.915    23634762.828
  20741996.901   -22844355.84144 -17296394.47742  20741999.295    20741995.391
 03  2 28  0 55 30.0000000  0  9G17G26G15G 2G 6G29G23G16G18
  20771205.070   -21752434.37744 -16740882.57842  20771206.865    20771204.325
  21829574.691   -18833387.25443 -14629667.05442  21829577.477    21829574.734
  21273815.469   -21045465.00343 -16352369.71242  21273817.588    21273815.126
  25045231.319    -3013278.67343  -2326936.81442  25045233.305    25045233.141
  21639270.950   -21601570.63143 -16797883.66342  21639273.242    21639271.271
  23497329.200   -11891638.90743  -9090202.12342  23497331.829    23497329.899
  20695524.353   -23038917.06744 -17244062.39042  20695526.512    20695523.512
  23637908.099    -7141887.46043  -5533305.03842  23637910.303    23637908.220
  20735660.641   -22877652.90844 -17322340.18542  20735663.027    20735659.116
 03  2 28  0 56  0.0000000  0  9G17G26G15G 2G 6G29G23G16G18
  20769990.299   -21758817.99944 -16745856.80042  20769992.095    20769989.551
  21837528.816   -18791587.90843 -14597096.10542  21837531.616    21837528.860
  21264527.022   -21094275.97943 -16390404.18942  21264529.137    21264526.674
  25042214.215    -3029133.26743  -2339291.03742  25042216.220    25042216.164
  21654579.658   -21521122.98143 -16735197.20542  21654581.947    21654579.954
  23509661.572   -11826831.73343  -9039702.98142  23509664.184    23509662.286
  20699983.352   -23015484.74444 -17225803.41142  20699985.498    20699982.501
  23641143.107    -7124887.40543  -5520058.23642  23641145.300    23641143.274
  20729397.870   -22910563.86944 -17347985.03642  20729400.253    20729396.315
 03  2 28  0 56 30.0000000  0  9G17G26G15G 2G 6G29G23G16G18
  20768811.671   -21765011.56644 -16750682.92842  20768813.507    20768810.924
  21845600.780   -18749169.24743 -14564042.57242  21845603.579    21845600.867
  21255267.409   -21142935.41543 -16428320.58542  21255269.529    21255267.056
  25039276.931    -3044568.38643  -2351318.39842  25039278.975    25039278.975
  21669959.969   -21440298.87343 -16672217.40842  21669962.251    21669960.287
  23522074.871   -11761599.22543  -8988872.42042  23522077.520    23522075.592
  20704506.183   -22991717.07944 -17207283.12842  20704508.314    20704505.307
  23644470.641    -7107401.40543  -5506432.79642  23644472.810    23644470.749
  20723211.722   -22943072.14044 -17373316.10842  20723214.104    20723210.139
 03  2 28  0 57  0.0000000  0  9G17G26G15G 2G 6G29G23G16G18
  20767671.436   -21771003.49444 -16755351.93442  20767673.256    20767670.678
  21853792.258   -18706122.48843 -14530499.61742  21853795.066    21853792.374
  21246038.771   -21191432.02743 -16466110.09842  21246040.883    21246038.420
  25036421.495    -3059573.69643  -2363010.81942  25036423.566    25036423.542
  21685413.578   -21359089.48843 -16608937.38642  21685415.862    21685413.931
  23534570.727   -11695932.85943  -8937703.77242  23534573.366    23534571.439
  20709094.494   -22967605.14844 -17188494.58642  20709096.643    20709093.622
  23647892.390    -7089420.17743  -5492421.45442  23647894.497    23647892.443
  20717104.110   -22975167.74844 -17398325.62242  20717106.502    20717102.480
 03  2 28  0 57 30.0000000  0  9G17G26G15G 2G 6G29G23G16G18
  20766570.682   -21776787.84744 -16759859.19542  20766572.508    20766569.908
  21862104.019   -18662443.55743 -14496464.05642  21862106.821    21862104.185
  21236842.275   -21239759.66943 -16503767.94242  21236844.375    21236841.943
  25033648.860    -3074143.82343  -2374364.16942  25033651.048    25033650.957
  21700941.182   -21277491.38043 -16545354.46442  21700943.463    21700941.590
  23547149.757   -11629829.46743  -8886194.59242  23547152.417    23547150.471
  20713749.031   -22943145.23644 -17169434.89042  20713751.185    20713748.153
  23651409.058    -7070939.89843  -5478021.24942  23651411.114    23651409.090
  20711075.960   -23006845.62944 -17423009.63442  20711078.368    20711074.319
 03  2 28  0 58  0.0000000  0  9G17G26G15G 2G 6G29G23G16G18
  20765504.565   -21782390.05144 -16764224.51942  20765506.414    20765503.819
  21870530.807   -18618160.19243 -14461957.50542  21870533.617    21870531.014
  21227673.078   -21287943.83343 -16541313.99042  21227675.172    21227672.755
  25030953.938    -3088305.23043  -2385399.02742  25030956.281    25030956.150
  21716537.506   -21195532.34943 -16481490.31142  21716539.770    21716537.919
  23559806.671   -11563317.03243  -8834366.67342  23559809.290    23559807.331
  20718464.470   -22918365.31144 -17150125.83142  20718466.600    20718463.600
  23655015.374    -7051988.20743  -5463253.70542  23655017.494    23655015.512
  20705122.359   -23038131.82044 -17447388.43042  20705124.766    20705120.680
 03  2 28  0 58 30.0000000  0  9G17G26G15G 2G 6G29G23G16G18
  20764472.971   -21787810.98144 -16768448.59442  20764474.809    20764472.210
  21879071.997   -18573275.84943 -14426982.65542  21879074.781    21879072.187
  21218531.020   -21335985.58043 -16578749.06142  21218533.074    21218530.673
  25028336.447    -3102060.10243  -2396117.09542  25028338.658    25028338.656
  21732201.802   -21113216.13643 -16417347.82342  21732204.088    21732202.233
  23572540.624   -11496399.67743  -8782223.25342  23572543.238    23572541.198
  20723240.127   -22893268.98644 -17130570.23342  20723242.246    20723239.249
  23658710.834    -7032568.53043  -5448121.50142  23658712.946    23658710.981
  20699242.844   -23069028.66544 -17471463.84242  20699245.227    20699241.126
 03  2 28  0 59  0.0000000  0  9G17G26G15G 2G 6G29G23G16G18
  20763477.001   -21793044.72444 -16772526.80542  20763478.847    20763476.256
  21887728.240   -18527786.87943 -14391536.66142  21887730.982    21887728.420
  21209417.170   -21383878.96843 -16616068.52742  21209419.242    21209416.812
  25025797.394    -3115403.41443  -2406514.48842  25025799.519    25025799.522
  21747934.735   -21030539.40743 -16352924.42142  21747937.017    21747935.141
  23585352.221   -11429074.13143  -8729761.74442  23585354.842    23585352.812
  20728076.675   -22867852.63744 -17110765.26142  20728078.812    20728075.788
  23662496.051    -7012677.14943  -5432621.72142  23662498.159    23662496.220
  20693438.336   -23099531.24444 -17495232.03642  20693440.724    20693436.602
 03  2 28  0 59 30.0000000  0  9G17G26G15G 2G 6G29G23G16G18
  20762518.294   -21798082.77244 -16776452.53342  20762520.116    20762517.531
  21896500.698   -18481686.96943 -14355614.61942  21896503.467    21896500.902
  21200333.217   -21431615.32044 -16653265.63142  21200335.302    21200332.825
  25023338.074    -3128327.52643  -2416585.22042  25023340.148    25023340.043
  21763737.423   -20947496.13643 -16288215.40942  21763739.683    21763737.781
  23598242.616   -11361334.51343  -8676977.59342  23598245.270    23598243.257
  20732975.329   -22842110.00344 -17090706.04142  20732977.451    20732974.416
  23666372.143    -6992307.98043  -5416749.66042  23666374.309    23666372.330
  20687710.301   -23129632.04844 -17518687.15842  20687712.662    20687708.552
 03  2 28  1  0  0.0000000  0  9G17G26G15G 2G 6G29G23G16G18
  20761597.010   -21802924.08244 -16780224.95642  20761598.832    20761596.235
  21905389.204   -18434977.50043 -14319217.59242  21905391.949    21905389.363
  21191279.337   -21479193.65544 -16690339.61042  21191281.453    21191278.902
  25020958.431    -3140832.50843  -2426329.36142  25020960.509    25020960.476
  21779609.499   -20864087.93943 -16223222.03642  21779611.792    21779609.843
  23611211.457   -11293182.52543  -8623872.12442  23611214.105    23611212.123
  20737935.797   -22816042.46444 -17070393.65042  20737937.932    20737934.881
  23670338.978    -6971462.07443  -5400506.11142  23670341.194    23670339.177
  20682058.705   -23159331.10344 -17541829.22842  20682061.062    20682056.953
 03  2 28  1  0 30.0000000  0  9G17G26G15G 2G 6G29G23G16G18
  20760712.320   -21807573.18144 -16783847.60142  20760714.136    20760711.518
  21914392.363   -18387665.68143 -14282351.20842  21914395.085    21914392.489
  21182254.605   -21526618.79544 -16727294.21742  21182256.727    21182254.131
  25018657.485    -3152924.11043  -2435751.38442  25018659.569    25018659.599
  21795549.558   -20780322.39243 -16157950.20942  21795551.850    21795549.912
  23624257.282   -11224625.98843  -8570451.43542  23624259.925    23624257.966
  20742956.722   -22789657.30944 -17049833.76642  20742958.851    20742955.798
  23674395.205    -6950146.53843  -5383896.60442  23674397.384    23674395.401
  20676482.469   -23188634.16344 -17564662.73042  20676484.831    20676480.737
 03  2 28  1  1  0.0000000  0 10G17G26G15G 2G 6G29G 3G23G16G18
  20759864.835   -21812026.58944 -16787317.76442  20759866.663    20759864.051
  21923510.381   -18339750.28243 -14245014.51142  21923513.090    21923510.444
  21173259.719   -21573886.91744 -16764126.47142  21173261.883    21173259.259
  25016435.686    -3164599.80543  -2444849.32242  25016437.833    25016437.754
  21811557.785   -20696198.44043 -16092399.10342  21811560.099    21811558.171
  23637380.277   -11155664.00643  -8516714.80942  23637382.900    23637380.922
  24589566.180
  20748038.292   -22762953.48244 -17029025.56942  20748040.407    20748037.338
  23678541.015    -6928360.17143  -5366920.22242  23678543.223    23678541.210
  20670981.962   -23217539.26344 -17587186.13942  20670984.328    20670980.245
 03  2 28  1  1 30.0000000  0 10G17G26G15G 2G 6G29G 3G23G16G18
  20759055.395   -21816279.98544 -16790632.07142  20759057.248    20759054.654
  21932743.646   -18291229.21943 -14207205.86142  21932746.390    21932743.694
  21164295.557   -21620993.65744 -16800832.97042  21164297.717    21164295.076
  25014293.623    -3175856.17143  -2453620.51842  25014295.777    25014295.774
  21827634.570   -20611714.12843 -16026567.20042  21827636.882    21827635.021
  23650580.706   -11086295.18843  -8462661.19742  23650583.332    23650581.401
  24570657.806
  20753180.854   -22735928.98944 -17007967.50542  20753182.998    20753179.923
  23682776.794    -6906100.88743  -5349575.33242  23682779.067    23682777.035
  20665557.925   -23246042.45644 -17609396.36642  20665560.317    20665556.236
 03  2 28  1  2  0.0000000  0 10G17G26G15G 2G 6G29G 3G23G16G18
  20758280.969   -21820349.43444 -16793803.04042  20758282.814    20758280.243
  21942088.568   -18242121.42943 -14168940.02842  21942091.325    21942088.548
  21155358.957   -21667955.50044 -16837426.55942  21155361.126    21155358.490
  25012228.044    -3186710.64043  -2462078.54942  25012230.206    25012230.248
  21843776.274   -20526888.61643 -15960469.42742  21843778.568    21843776.839
  23663854.973   -11016538.45543  -8408305.29942  23663857.526    23663855.622
  24551776.816    -1709255.86653  -1082320.82352  24551778.206    24551779.419
  20758380.914   -22708602.52444 -16986674.13542  20758383.052    20758379.955
  23687099.062    -6883387.41143  -5331876.53442  23687101.336    23687099.342
  20660207.025   -23274161.53544 -17631307.28342  20660209.403    20660205.322
 03  2 28  1  2 30.0000000  0 10G17G26G15G 2G 6G29G 3G23G16G18
  20757545.120   -21824216.23644 -16796816.10142  20757546.965    20757544.405
  21951548.209   -18192410.90443 -14130204.53542  21951550.943    21951548.111
  21146453.473   -21714753.81444 -16873892.72642  21146455.631    21146453.038
  25010242.394    -3197145.90643  -2470209.92242  25010244.484    25010244.364
  21859985.966   -20441706.05343 -15894093.43242  21859988.239    21859986.567
  23677205.997   -10946378.39543  -8353635.12442  23677208.552    23677206.618
  24532927.243    -1808311.02243  -1159506.50842  24532928.487    24532928.139
  20763641.500   -22680957.91544 -16965132.86142  20763643.649    20763640.543
  23691510.746    -6860203.96443  -5313811.52342  23691513.002    23691510.997
  20654932.538   -23301879.02944 -17652905.27742  20654934.911    20654930.817
 03  2 28  1  3  0.0000000  0 10G17G26G15G 2G 6G29G 3G23G16G18
  20756848.967   -21827874.44844 -16799666.62142  20756850.805    20756848.265
  21961123.172   -18142094.00043 -14090996.53242  21961125.919    21961123.081
  21137580.330   -21761382.31744 -16910226.57342  21137582.472    21137579.876
  25008337.465    -3207156.90643  -2478010.69042  25008339.499    25008339.289
  21876264.338   -20356162.88343 -15827436.45042  21876266.575    21876264.937
  23690634.431   -10875811.69243  -8298648.08142  23690636.970    23690635.015
  24514110.214    -1907194.38343  -1236558.40042  24514112.120    24514110.961
  20768963.292   -22652991.60144 -16943340.90542  20768965.437    20768962.336
  23696012.596    -6836546.64543  -5295377.25242  23696014.846    23696012.830
  20649735.447   -23329189.78444 -17674186.33742  20649737.837    20649733.704
 03  2 28  1  3 30.0000000  0 10G17G26G15G 2G 6G29G 3G23G16G18
  20756190.791   -21831332.99744 -16802361.56242  20756192.631    20756190.103
  21970811.325   -18091182.19543 -14051324.97642  21970814.078    21970811.253
  21128737.813   -21807849.94444 -16946435.05642  21128739.951    21128737.332
  25006511.246    -3216753.92543  -2485488.88442  25006513.209    25006513.020
  21892609.112   -20270270.83943 -15760507.61442  21892611.332    21892609.678
  23704137.939   -10804850.23843  -8243353.45442  23704140.478    23704138.545
  24495324.536    -2005913.22943  -1313482.10842  24495326.712    24495325.564
  20774344.097   -22624715.23944 -16921307.35242  20774346.229    20774343.119
  23700602.453    -6812426.79243  -5276582.57642  23700604.692    23700602.681
  20644613.830   -23356103.91244 -17695158.33442  20644616.197    20644612.060
 03  2 28  1  4  0.0000000  0 10G17G26G15G 2G 6G29G 3G23G16G18
  20755575.967   -21834563.73844 -16804878.99042  20755577.826    20755575.282
  21980617.537   -18039650.06443 -14011170.05742  21980620.280    21980617.456
  21119931.266   -21854128.62744 -16982496.31542  21119933.406    21119930.734
  25004768.905    -3225910.06443  -2492623.53642  25004770.920    25004770.747
  21909025.098   -20184004.40343 -15693287.04942  21909027.343    21909025.676
  23717721.387   -10733468.91343  -8187731.65442  23717723.932    23717721.961
  24476575.867    -2104437.60343  -1390254.23642  24476578.171    24476576.900
  20779788.769   -22596103.12844 -16899012.17442  20779790.911    20779787.803
  23705285.184    -6787818.70343  -5257407.44842  23705287.451    23705285.480
  20639572.738   -23382594.68644 -17715800.44542  20639575.127    20639570.980
 03  2 28  1  4 30.0000000  0 10G17G26G15G 2G 6G29G 3G23G16G18
  20754994.977   -21837616.77344 -16807257.94642  20754996.819    20754994.281
  21990531.755   -17987550.36743 -13970572.86942  21990534.484    21990531.671
  21111151.094   -21900268.56444 -17018449.46242  21111153.257    21111150.542
  25003100.580    -3234676.70143  -2499454.66342  25003102.556    25003102.466
  21925502.244   -20097416.61243 -15625816.07842  21925504.494    21925502.838
  23731374.676   -10661720.78543  -8131824.01642  23731377.175    23731375.084
  24457854.918    -2202816.16943  -1466912.75642  24457857.253    24457855.936
  20785287.320   -22567207.91644 -16876496.39942  20785289.450    20785286.340
  23710050.731    -6762775.45943  -5237893.23742  23710053.025    23710051.001
  20634602.437   -23408713.61444 -17736152.80942  20634604.795    20634600.665
 03  2 28  1  5  0.0000000  0 10G17G26G15G 2G 6G29G 3G23G16G18
  20754454.743   -21840455.68844 -16809470.05342  20754456.567    20754454.016
  22000560.337   -17934849.57743 -13929507.29342  22000563.118    22000560.290
  21102404.197   -21946233.67944 -17054266.38442  21102406.345    21102403.607
  25001513.140    -3243018.80843  -2505955.00942  25001515.183    25001515.005
  21942046.846   -20010474.15843 -15558068.74042  21942049.098    21942047.476
  23745104.036   -10589572.53043  -8075604.58942  23745106.545    23745104.398
  24439169.036    -2301010.95143  -1543428.07942  24439171.445    24439170.104
  20790846.103   -22537996.05744 -16853733.88342  20790848.252    20790845.139
  23714905.603    -6737263.16143  -5218013.54842  23714907.838    23714905.833
  20629709.499   -23434425.83744 -17756188.25542  20629711.862    20629707.727
 03  2 28  1  5 30.0000000  0 10G17G26G15G 2G 6G29G 3G23G16G18
  20753952.274   -21843096.11744 -16811527.49442  20753954.122    20753951.527
  22010699.836   -17881565.86043 -13887987.48642  22010702.655    22010699.849
  21093687.693   -21992039.04844 -17089958.82842  21093689.847    21093687.084
  25000003.206    -3250953.07843  -2512137.54142  25000005.473    25000005.177
  21958655.474   -19923195.26043 -15490059.24342  21958657.711    21958656.121
  23758905.927   -10517042.87543  -8019087.95042  23758908.496    23758906.319
  24420515.411    -2399035.78043  -1619810.97942  24420517.874    24420516.556
  20796461.740   -22508485.49044 -16830738.60242  20796463.891    20796460.774
  23719846.291    -6711299.87843  -5197782.42042  23719848.493    23719846.497
  20624890.840   -23459747.90144 -17775919.67942  20624893.189    20624889.043
 03  2 28  1  6  0.0000000  0 10G17G26G15G 2G 6G29G 3G23G16G18
  20753486.178   -21845545.35944 -16813435.95742  20753488.017    20753485.419
  22020948.422   -17827709.32343 -13846021.32342  22020951.240    22020948.392
  21085000.185   -22037692.06144 -17125532.55042  21085002.320    21084999.552
  24998569.310    -3258488.22343  -2518009.07242  24998571.688    24998571.264
  21975326.201   -19835590.13543 -15421795.54342  21975328.427    21975326.836
  23772778.459   -10444141.93843  -7962281.99242  23772781.083    23772778.875
  24401893.058    -2496896.46343  -1696065.95942  24401895.475    24401894.275
  20802132.378   -22478685.96744 -16807518.16242  20802134.526    20802131.407
  23724870.883    -6684895.79243  -5177207.83142  23724873.041    23724871.010
  20620144.726   -23484688.61444 -17795353.94342  20620147.096    20620142.916
 03  2 28  1  6 30.0000000  0 10G17G26G15G 2G 6G29G 3G23G16G18
  20753058.263   -21847793.93144 -16815188.05342  20753060.105    20753057.474
  22031307.286   -17773273.07343 -13803603.42642  22031310.097    22031307.253
  21076343.419   -22083183.33544 -17160980.24542  21076345.564    21076342.798
  24997212.941    -3265616.16043  -2523563.31442  24997215.130    24997214.784
  21992060.250   -19747652.08843 -15353272.42342  21992062.470    21992060.900
  23786722.892   -10370863.24043  -7905181.69142  23786725.507    23786723.355
  24383304.066    -2594581.71043  -1772184.22842  24383306.610    24383305.257
  20807859.318   -22448590.58344 -16784067.17842  20807861.468    20807858.332
  23729980.683    -6658043.91843  -5156284.30642  23729982.863    23729980.763
  20615472.766   -23509239.72344 -17814484.62342  20615475.134    20615470.932
 03  2 28  1  7  0.0000000  0 10G17G26G15G 2G 6G29G 3G23G16G18
  20752668.678   -21849841.16344 -16816783.26442  20752670.498    20752667.839
  22041775.997   -17718259.54543 -13760735.70942  22041778.794    22041775.963
  21067717.558   -22128512.43444 -17196301.57542  21067719.684    21067716.903
  24995933.925    -3272337.77643  -2528800.93142  24995936.016    24995935.692
  22008857.279   -19659383.47443 -15284491.71542  22008859.463    22008857.902
  23800738.714   -10297209.29543  -7847788.97242  23800741.405    23800739.177
  24364748.841    -2692089.65143  -1848164.33442  24364751.344    24364750.102
  20813642.133   -22418201.60144 -16760387.41342  20813644.279    20813641.121
  23735175.246    -6630746.51143  -5135013.60942  23735177.367    23735175.291
  20610874.812   -23533402.00144 -17833312.32142  20610877.172    20610872.944
 03  2 28  1  7 30.0000000  0 10G17G26G15G 2G 6G29G 3G23G16G18
  20752320.840   -21851668.97044 -16818207.49442  20752322.652    20752319.955
  22052357.406   -17662653.69143 -13717406.43642  22052360.208    22052357.410
  21059125.976   -22173661.32144 -17231482.47442  21059128.105    21059125.316
  24994735.327    -3278636.27243  -2533708.85742  24994737.397    24994737.069
  22025720.054   -19570769.12543 -15215441.60442  22025722.252    22025720.638
  23814828.773   -10223165.38943  -7790092.38642  23814831.463    23814829.303
  24346231.159    -2789400.60643  -1923990.96542  24346233.579    24346232.288
  20819483.758   -22387503.46744 -16736466.74542  20819485.917    20819482.733
  23740457.465    -6602988.12543  -5113383.71742  23740459.621    23740457.551
  20606354.046   -23557158.65144 -17851823.94242  20606356.406    20606352.150
 03  2 28  1  8  0.0000000  0 10G17G26G15G 2G 6G29G 3G23G16G18
  20752006.532   -21853320.44444 -16819494.32642  20752008.363    20752005.635
  22063042.846   -17606501.09043 -13673651.12942  22063045.654    22063042.906
  21050560.533   -22218672.92544 -17266556.40642  21050562.651    21050559.862
  24993608.825    -3284556.19043  -2538321.76742  24993610.777    24993610.571
  22042639.885   -19481855.02843 -15146157.92442  22042642.083    22042640.464
  23828984.292   -10148777.40943  -7732127.69042  23828986.971    23828984.834
  24327743.079    -2886555.76243  -1999696.18042  24327745.507    24327744.167
  20825375.553   -22356541.70044 -16712340.65142  20825377.723    20825374.528
  23745818.771    -6574814.50243  -5091430.27342  23745820.819    23745818.832
  20601902.002   -23580554.12544 -17870054.12642  20601904.361    20601900.088
 03  2 28  1  8 30.0000000  0 10G17G26G15G 2G 6G29G 3G23G16G18
  20751738.159   -21854730.62544 -16820593.13642  20751740.002    20751737.237
  22073844.154   -17549739.52843 -13629421.31242  22073846.942    22073844.232
  21042033.598   -22263482.03544 -17301472.54642  21042035.699    21042032.924
  24992566.505    -3290033.67543  -2542589.92942  24992568.476    24992568.220
  22059628.613   -19392578.72343 -15076592.00142  22059630.852    22059629.183
  23843217.101   -10073983.37043  -7673846.57742  23843219.740    23843217.705
  24309297.410    -2983488.29343  -2075227.93842  24309299.727    24309298.472
  20831329.417   -22325253.74144 -16687960.38242  20831331.580    20831328.402
  23751270.785    -6546163.29643  -5069104.65542  23751273.023    23751271.047
  20597530.827   -23603524.55244 -17887953.10142  20597533.204    20597528.935
 03  2 28  1  9  0.0000000  0 10G17G26G15G 2G 6G29G 3G23G16G18
  20751508.396   -21855937.91044 -16821533.84842  20751510.226    20751507.473
  22084753.544   -17492409.92043 -13584748.87042  22084756.326    22084753.671
  21033537.963   -22308126.70444 -17336260.55042  21033540.044    21033537.289
  24991600.826    -3295108.42743  -2546544.25542  24991602.856    24991602.685
  22076678.441   -19302981.45443 -15006775.97642  22076680.691    22076678.983
  23857519.270    -9998824.51743  -7615281.19242  23857522.027    23857519.888
  24290887.044    -3080234.90943  -2150614.81442  24290889.393    24290888.013
  20837337.597   -22293680.36344 -16663357.70942  20837339.763    20837336.598
  23756806.069    -6517075.35943  -5046438.75942  23756808.285    23756806.342
  20593233.010   -23626109.57644 -17905551.76342  20593235.393    20593231.106
 03  2 28  1  9 30.0000000  0 10G17G26G15G 2G 6G29G 3G23G16G18
  20751317.052   -21856943.30144 -16822317.24242  20751318.888    20751316.090
  22095770.134   -17434517.17543 -13539637.61842  22095772.874    22095770.244
  21025073.302   -22352608.60444 -17370921.72342  21025075.358    21025072.617
  24990711.127    -3299783.56843  -2550187.21542  24990713.222    24990713.014
  22093788.478   -19213067.63543 -14936713.29142  22093790.731    22093789.048
  23871890.034    -9923305.77543  -7556435.38642  23871892.679    23871890.575
  24272512.080    -3176795.76243  -2225856.95442  24272514.432    24272513.020
  20843399.263   -22261825.93844 -16638536.04442  20843401.432    20843398.254
  23762423.489    -6487555.43843  -5023436.22942  23762425.680    23762423.855
  20589007.972   -23648312.16444 -17922852.42642  20589010.340    20589006.060
 03  2 28  1 10  0.0000000  0 10G17G26G15G 2G 6G29G 3G23G16G18
  20751166.163   -21857736.09744 -16822934.98142  20751168.028    20751165.192
  22106895.566   -17376052.52443 -13494080.72242  22106898.313    22106895.668
  21016641.833   -22396916.13944 -17405447.02842  21016643.874    21016641.135
  24989899.479    -3304049.30343  -2553511.12242  24989901.551    24989901.317
  22110960.388   -19122828.71743 -14866397.28142  22110962.635    22110960.989
  23886330.906    -9847418.58143  -7497302.47442  23886333.450    23886331.445
  24254174.981    -3273157.41743  -2300943.86842  24254177.324    24254175.849
  20849516.088   -22229681.61144 -16613488.48342  20849518.262    20849515.092
  23768124.939    -6457594.44743  -5000090.03242  23768127.097    23768125.203
  20584857.583   -23670122.42844 -17939847.38242  20584859.951    20584855.667
 03  2 28  1 10 30.0000000  0 10G17G26G15G 2G 6G29G 3G23G16G18
  20751058.010   -21858304.33344 -16823377.74242  20751059.864    20751057.029
  22118131.445   -17317007.64543 -13448071.72142  22118134.170    22118131.487
  21008245.718   -22441037.90744 -17439827.57842  21008247.760    21008244.999
  24989167.464    -3307895.69843  -2556508.30542  24989169.534    24989169.286
  22128195.744   -19032256.43243 -14795821.50842  22128197.974    22128196.337
  23900843.424    -9771154.73943  -7437876.05742  23900846.005    23900843.965
  24235878.215    -3369306.96343  -2375865.50442  24235880.592    24235879.124
  20855689.791   -22197238.57644 -16588208.16142  20855691.952    20855688.787
  23773911.861    -6427184.16443  -4976393.71742  23773914.012    23773912.055
  20580783.744   -23691530.39344 -17956528.86142  20580786.102    20580781.817
 03  2 28  1 11  0.0000000  0 10G17G26G15G 2G 6G29G 3G23G16G18
  20750988.149   -21858671.28344 -16823663.65442  20750990.011    20750987.179
  22129472.835   -17257408.25243 -13401630.62542  22129475.564    22129472.872
  20999880.576   -22484996.79444 -17474081.20442  20999882.651    20999879.871
  24988510.648    -3311347.22343  -2559197.78642  24988512.808    24988512.590
  22145489.649   -18941376.45143 -14725005.96142  22145491.876    22145490.241
  23915422.677    -9694540.25443  -7378176.42942  23915425.239    23915423.173
  24217617.885    -3465265.42143  -2450638.24642  24217620.253    24217618.711
  20861915.492   -22164522.18844 -16562714.84042  20861917.651    20861914.487
  23779779.399    -6396349.98543  -4952367.09742  23779781.541    23779779.614
  20576781.830   -23712560.32644 -17972915.77042  20576784.195    20576779.897
 03  2 28  1 11 30.0000000  0 10G17G26G15G 2G 6G29G 3G23G16G18
  20750961.590   -21858810.88644 -16823772.41542  20750963.433    20750960.585
  22140924.048   -17197231.84043 -13354739.89942  22140926.772    22140924.083
  20991551.311   -22528767.24744 -17508188.00942  20991553.384    20991550.603
  24987933.523    -3314379.74143  -2561560.76442  24987935.538    24987935.354
  22162846.420   -18850166.09143 -14653932.99242  22162848.631    22162847.017
  23930072.905    -9617552.50043  -7318185.92942  23930075.563    23930073.378
  24199399.067    -3561005.67543  -2525240.94542  24199401.375    24199399.907
  20868197.625   -22131509.39244 -16536990.56342  20868199.761    20868196.560
  23785731.989    -6365069.15743  -4927992.44742  23785734.174    23785732.172
  20572856.479   -23733187.88244 -17988989.13942  20572858.857    20572854.551
 03  2 28  1 12  0.0000000  0 10G17G26G15G 2G 6G29G 3G23G16G18
  20750971.640   -21858757.94444 -16823731.14042  20750973.505    20750970.641
  22152477.811   -17136516.35643 -13307429.12442  22152480.515    22152477.830
  20983251.260   -22572384.04644 -17542175.08042  20983253.331    20983250.572
  24987429.217    -3317029.67843  -2563625.63442  24987431.340    24987430.943
  22180258.849   -18758663.38143 -14582632.21542  22180261.063    22180259.408
  23944786.873    -9540229.76143  -7257934.40542  23944789.550    23944787.351
  24181215.369    -3656561.19543  -2599699.70642  24181217.735    24181216.141
  20874528.962   -22098237.85044 -16511064.66342  20874531.109    20874527.882
  23791762.302    -6333379.82543  -4903299.49742  23791764.479    23791762.463
  20569000.746   -23753449.68144 -18004777.50542  20569003.105    20568998.789
 03  2 28  1 12 30.0000000  0 10G17G26G15G 2G 6G29G 3G23G16G18
  20751023.591   -21858484.99644 -16823518.43542  20751025.431    20751022.544
  22164138.866   -17075236.99443 -13259678.96842  22164141.571    22164138.880
  20974985.762   -22615819.31244 -17576020.69542  20974987.816    20974985.081
  24987002.778    -3319270.75843  -2565371.93142  24987004.742    24987004.574
  22197731.684   -18666843.45043 -14511084.25042  22197733.858    22197732.195
  23959569.316    -9462547.39843  -7197402.65742  23959572.074    23959569.759
  24163072.468    -3751902.58043  -2673991.61742  24163074.860    24163073.234
  20880914.344   -22064682.34544 -16484917.49242  20880916.507    20880913.251
  23797875.152    -6301256.82543  -4878268.59942  23797877.276    23797875.226
  20565219.608   -23773319.44944 -18020260.38742  20565221.959    20565217.619
 03  2 28  1 13  0.0000000  0  9G17G26G15G 6G29G 3G23G16G18
  20751116.802   -21857995.24444 -16823136.79142  20751118.618    20751115.721
  22175905.956   -17013400.28543 -13211494.50342  22175908.622    22175906.015
  20966754.154   -22659076.33744 -17609727.41342  20966756.206    20966753.482
  22215263.615   -18574712.71143 -14439294.10542  22215265.836    22215264.148
  23974418.977    -9384511.98343  -7136595.81342  23974421.626    23974419.360
  24144969.975    -3847031.44343  -2748117.92342  24144972.351    24144970.764
  20887352.623   -22030848.87644 -16458553.73342  20887354.790    20887351.504
  23804069.248    -6268706.44343  -4852904.68342  23804071.466    23804069.308
  20561512.210   -23792801.83144 -18035441.39842  20561514.539    20561510.176
 03  2 28  1 13 30.0000000  0  9G17G26G15G 6G29G 3G23G16G18
  20751252.179   -21857283.76944 -16822582.37442  20751254.007    20751251.095
  22187779.434   -16951004.63043 -13162874.49442  22187782.109    22187779.475
  20958557.381   -22702150.42544 -17643291.58742  20958559.423    20958556.706
  22232855.023   -18482269.38743 -14367260.37642  22232857.281    22232855.594
  23989336.076    -9306121.96343  -7075512.64242  23989338.690    23989336.420
  24126909.126    -3941941.38543  -2822073.63142  24126911.499    24126909.910
  20893844.165   -21996735.40344 -16431971.78842  20893846.340    20893843.051
  23810344.984    -6235727.16043  -4827206.55742  23810347.186    23810345.022
  20557879.101   -23811893.85544 -18050318.25442  20557881.416    20557877.012
 03  2 28  1 14  0.0000000  0  9G17G26G15G 6G29G 3G23G16G18
  20751428.836   -21856355.62544 -16821859.12642  20751430.606    20751427.706
  22199757.873   -16888057.56543 -13113824.81542  22199760.505    22199757.873
  20950394.577   -22745046.03744 -17676716.69042  20950396.612    20950393.883
  22250504.475   -18389521.16543 -14294989.07542  22250506.748    22250505.046
  24004319.167    -9227385.05743  -7014159.16242  24004321.818    24004319.577
  24108889.366    -4036635.43743  -2895861.12642  24108891.681    24108890.161
  20900387.687   -21962348.95744 -16405177.13942  20900389.842    20900386.542
  23816700.940    -6202326.39443  -4801179.99242  23816703.106    23816701.091
  20554319.101   -23830601.52644 -18064895.61542  20554321.427    20554316.997
 03  2 28  1 14 30.0000000  0  9G17G26G15G 6G29G 3G23G16G18
  20751646.963   -21855209.24244 -16820965.82342  20751648.754    20751645.829
  22211840.795   -16824561.12043 -13064347.03742  22211843.497    22211840.803
  20942266.045   -22787761.75144 -17710001.61142  20942268.056    20942265.304
  22268211.616   -18296469.71443 -14222481.48642  22268213.865    22268212.203
  24019367.893    -9148303.24743  -6952536.92942  24019370.547    24019368.349
  24090911.274    -4131110.64143  -2969478.08142  24090913.617    24090912.047
  20906982.889   -21927690.97544 -16378170.90442  20906985.013    20906981.719
  23823136.814    -6168505.64443  -4774826.17942  23823138.939    23823136.963
  20550832.199   -23848925.02844 -18079173.60742  20550834.540    20550830.099
 03  2 28  1 15  0.0000000  0  9G17G26G15G 6G29G 3G23G16G18
  20751907.363   -21853840.89344 -16819899.55742  20751909.166    20751906.179
  22224028.479   -16760514.52743 -13014440.56442  22224031.186    22224028.445
  20934172.407   -22830293.95344 -17743143.53542  20934174.428    20934171.629
  22285976.575   -18203114.29743 -14149737.04442  22285978.821    22285977.178
  24034482.393    -9068875.70743  -6890645.29942  24034485.026    24034482.893
  24072975.914    -4225361.32243  -3042920.07842  24072978.237    24072976.616
  20913629.926   -21892760.38344 -16350952.24742  20913632.080    20913628.765
  23829652.782    -6134264.23043  -4748144.57542  23829654.862    23829652.913
  20547418.828   -23866862.14544 -18093150.52742  20547421.182    20547416.730
 03  2 28  1 15 30.0000000  0  9G17G26G15G 6G29G 3G23G16G18
  20752210.001   -21852250.49244 -16818660.26342  20752211.804    20752208.792
  22236320.179   -16695921.21243 -12964108.08142  22236322.914    22236320.119
  20926113.657   -22872642.76844 -17776142.55942  20926115.696    20926112.858
  22303798.763   -18109458.25243 -14076758.34142  22303800.985    22303799.358
  24049661.931    -8989106.24943  -6828487.24042  24049664.599    24049662.562
  24055083.553    -4319386.12143  -3116186.06842  24055085.907    24055084.244
  20920328.342   -21857559.96744 -16323523.33342  20920330.486    20920327.167
  23836248.147    -6099605.41243  -4721137.72242  23836250.278    23836248.318
  20544078.698   -23884414.49444 -18106827.63442  20544081.040    20544076.586
 03  2 28  1 16  0.0000000  0  9G17G26G15G 6G29G 3G23G16G18
  20752555.527   -21850434.57444 -16817245.24242  20752557.351    20752554.350
  22248716.011   -16630780.76343 -12913349.25342  22248718.739    22248715.913
  20918090.545   -22914804.26844 -17808995.63042  20918092.591    20918089.731
  22321678.197   -18015501.29043 -14003545.15542  22321680.389    22321678.798
  24064906.723    -8908994.39843  -6766062.38442  24064909.395    24064907.253
  24037235.126    -4413180.00943  -3189272.12642  24037237.461    24037235.726
  20927078.285   -21822088.76744 -16295883.41842  20927080.410    20927077.086
  23842923.008    -6064528.42843  -4693805.01842  23842925.180    23842923.307
  20540812.113   -23901580.38044 -18120203.59542  20540814.441    20540809.987
 03  2 28  1 16 30.0000000  0  9G17G26G15G 6G29G 3G23G16G18
  20752940.355   -21848412.16344 -16815669.31242  20752942.183    20752939.165
  22261211.695   -16565115.48843 -12862181.47742  22261214.438    22261211.574
  20910099.425   -22956797.59444 -17841717.66242  20910101.503    20910098.617
  22339610.705   -17921265.28043 -13930114.52242  22339612.894    22339611.339
  24080212.390    -8828562.24143  -6703387.92542  24080215.134    24080213.002
  24019427.295    -4506760.48643  -3262191.89342  24019429.607    24019427.890
  20933875.622   -21786368.41344 -16268049.35542  20933877.745    20933874.423
  23849673.228    -6029055.73843  -4666164.00642  23849675.487    23849673.539
  20537615.164   -23918380.36444 -18133294.44842  20537617.478    20537613.020
 03  2 28  1 17  0.0000000  0  9G17G26G15G 6G29G 3G23G16G18
  20753367.250   -21846168.73844 -16813921.16042  20753369.077    20753366.081
  22273809.328   -16498914.21743 -12810596.04042  22273812.110    22273809.203
  20902143.112   -22998608.08344 -17874297.21342  20902145.170    20902142.284
  22357598.451   -17826738.92443 -13856457.65142  22357600.670    22357599.129
  24095581.187    -8747798.82943  -6640455.37642  24095583.838    24095581.630
  24001663.134    -4600111.34143  -3334932.72842  24001665.494    24001663.753
  20940722.613   -21750387.16144 -16240011.99642  20940724.727    20940721.400
  23856500.953    -5993175.72943  -4638205.55842  23856503.211    23856501.290
  20534490.322   -23934801.44344 -18146090.05842  20534492.635    20534488.153
 03  2 28  1 17 30.0000000  0  9G17G26G15G 6G29G 3G23G16G18
  20753834.671   -21843712.40444 -16812007.10642  20753836.483    20753833.479
  22286506.860   -16432188.03543 -12758601.59142  22286509.660    22286506.745
  20894220.098   -23040243.49144 -17906740.34142  20894222.161    20894219.266
  22375639.405   -17731933.06743 -13782582.97642  22375641.617    22375640.112
  24111010.894    -8666715.22443  -6577273.29742  24111013.525    24111011.347
  23983941.443    -4693238.92643  -3407499.59042  23983943.880    23983942.080
  20947617.269   -21714155.40944 -16211779.43842  20947619.385    20947616.049
  23863404.154    -5956899.30143  -4609938.25242  23863406.390    23863404.531
  20531435.755   -23950853.09044 -18158597.80042  20531438.068    20531433.575
 03  2 28  1 18  0.0000000  0  9G17G26G15G 6G29G 3G23G16G18
  20754341.258   -21841050.21144 -16809932.63842  20754343.051    20754340.075
  22299302.303   -16364947.23343 -12706206.13742  22299305.091    22299302.199
  20886329.057   -23081710.92344 -17939052.57742  20886331.125    20886328.209
  22393731.619   -17636857.96043 -13708498.51542  22393733.841    22393732.340
  24126499.639    -8585321.52743  -6513849.61342  24126502.257    24126500.010
  23966261.295    -4786148.45243  -3479896.52642  23966263.728    23966261.917
  20954557.710   -21677683.06644 -16183359.40542  20954559.824    20954556.490
  23870380.733    -5920236.84443  -4581370.11142  23870383.007    23870381.104
  20528449.859   -23966543.88844 -18170824.35342  20528452.169    20528447.675
 03  2 28  1 18 30.0000000  0  9G17G26G15G 6G29G 3G23G16G18
  20754900.384   -21838111.70044 -16807642.85942  20754902.194    20754899.225
  22312208.365   -16297125.13043 -12653357.72242  22312211.148    22312208.261
  20878483.345   -23122940.19344 -17971179.23942  20878485.424    20878482.460
  22411887.812   -17541446.60943 -13634152.02742  22411890.022    22411888.572
  24142060.065    -8503551.11443  -6450132.36942  24142062.584    24142060.336
  23948636.261    -4878768.29643  -3552067.74942  23948638.705    23948636.894
  20961556.774   -21640902.64744 -16154699.31142  20961558.892    20961555.549
  23877443.557    -5883121.32343  -4552448.92442  23877445.848    23877444.024
  20525545.631   -23981805.49644 -18182716.46642  20525547.952    20525543.441
 03  2 28  1 19  0.0000000  0  9G17G26G15G 6G29G 3G23G16G18
  20755502.220   -21834948.77144 -16805178.20742  20755504.040    20755501.081
  22325214.527   -16228776.94243 -12600099.36842  22325217.330    22325214.421
  20870673.142   -23163982.99344 -18003160.60042  20870675.206    20870672.203
  22430097.531   -17445754.03243 -13559586.41342  22430099.709    22430098.312
  24157681.673    -8421459.15043  -6386164.58042  24157684.210    24157681.906
  23931056.721    -4971148.92143  -3624052.55742  23931059.160    23931057.362
  20968604.088   -21603868.63544 -16125841.61142  20968606.223    20968602.876
  23884582.192    -5845607.61443  -4523217.47642  23884584.425    23884582.696
  20522712.877   -23996691.61544 -18194316.01342  20522715.187    20522710.656
 03  2 28  1 19 30.0000000  0  9G17G26G15G 6G29G 3G23G16G18
  20756143.280   -21831579.78244 -16802552.98842  20756145.103    20756142.157
  22338316.761   -16159923.85943 -12546447.59242  22338319.612    22338316.668
  20862895.020   -23204857.10844 -18035010.51142  20862897.101    20862894.048
  22448356.764   -17349801.25643 -13484818.04042  22448358.955    22448357.561
  24173360.342    -8339066.95843  -6321962.83742  24173362.849    24173360.609
  23913519.629    -5063306.62843  -3695863.66742  23913522.103    23913520.223
  20975695.766   -21566601.56044 -16096802.30342  20975697.884    20975694.538
  23891792.573    -5807717.01943  -4493692.33242  23891794.778    23891793.114
  20519947.893   -24011221.66444 -18205638.09042  20519950.186    20519945.610
 03  2 28  1 20  0.0000000  0  9G17G26G15G 6G29G 3G23G16G18
  20756827.852   -21827982.29944 -16799749.72642  20756829.632    20756826.704
  22351518.568   -16090547.64143 -12492388.17742  22351521.401    22351518.492
  20855153.117   -23245540.82344 -18066712.06442  20855155.229    20855152.151
  22466669.027   -17253569.67643 -13409832.42442  22466671.240    22466669.898
  24189099.775    -8256355.92943  -6257512.65042  24189102.247    24189099.998
  23896029.380    -5155217.89343  -3767482.74042  23896031.859    23896029.988
  20982835.435   -21529082.29244 -16067566.48442  20982837.547    20982834.215
  23899078.159    -5769430.91943  -4463859.02242  23899080.438    23899078.709
  20517254.477   -24025375.49044 -18216667.00842  20517256.767    20517252.171
 03  2 28  1 20 30.0000000  0  9G17G26G15G 6G29G 3G23G16G18
  20757554.759   -21824162.16344 -16796772.96642  20757556.538    20757553.609
  22364818.368   -16020656.74343 -12437927.71042  22364821.178    22364818.191
  20847446.519   -23286039.09444 -18098269.11942  20847448.637    20847445.523
  22485032.815   -17157067.63043 -13334636.05342  22485035.008    22485033.665
  24204898.161    -8173334.66443  -6192820.72742  24204900.679    24204898.406
  23878585.381    -5246886.28043  -3838912.55242  23878587.866    23878585.954
  20990021.582   -21491318.81144 -16038140.36342  20990023.692    20990020.357
  23906437.532    -5730757.58043  -4433723.94042  23906439.755    23906437.951
  20514631.311   -24039160.11044 -18227408.23942  20514633.602    20514628.995
 03  2 28  1 21  0.0000000  0  9G17G26G15G 6G29G 3G23G16G18
  20758326.321   -21820107.54844 -16793613.49742  20758328.075    20758325.145
  22378217.624   -15950243.25243 -12383060.02342  22378220.457    22378217.413
  20839777.382   -23326340.59544 -18129672.85042  20839779.515    20839776.344
  22503449.571   -17060287.09043 -13259222.66842  22503451.786    22503450.414
  24220757.112    -8089995.27243  -6127880.93442  24220759.538    24220757.369
  23861190.065    -5338299.11843  -3910143.25242  23861192.521    23861190.542
  20997255.832   -21453302.48744 -16008517.22342  20997257.950    20997254.598
  23913871.995    -5691689.10643  -4403280.96442  23913874.310    23913872.461
  20512080.231   -24052565.99944 -18237854.36142  20512082.511    20512077.894
 03  2 28  1 21 30.0000000  0  9G17G26G15G 6G29G 3G23G16G18
  20759140.148   -21815830.65244 -16790280.81842  20759141.910    20759138.977
  22391713.336   -15879322.69543 -12327797.22442  22391716.221    22391713.127
  20832143.436   -23366457.10544 -18160932.43142  20832145.595    20832142.389
  22521916.462   -16963243.09943 -13183604.01742  22521918.686    22521917.266
  24236673.724    -8006352.89043  -6062705.01642  24236676.217    24236673.945
  23843841.443    -5429466.46743  -3981182.66442  23843843.877    23843841.959
  21004535.406   -21415047.82644 -15978708.36342  21004537.552    21004534.189
  23921378.889    -5652240.26343  -4372541.61342  23921381.217    23921379.248
  20509598.624   -24065606.73344 -18248015.94942  20509600.905    20509596.299
 03  2 28  1 22  0.0000000  0 10G17G26G15G14G 6G29G 3G23G16G18
  20760000.319   -21811310.28344 -16786758.42442  20760002.093    20759999.134
  22405308.939   -15807877.15043 -12272125.34742  22405311.850    22405308.722
  20824548.762   -23406367.28144 -18192031.23142  20824550.928    20824547.695
  24646854.824    -3448426.97253  -2448071.86352  24646858.771    24646862.275
  22540436.924   -16865917.74243 -13107766.10042  22540439.149    22540437.729
  24252651.454    -7922389.55643  -5997279.02442  24252653.902    24252651.655
  23826543.842    -5520365.61143  -4052013.06942  23826546.272    23826544.312
  21011863.887   -21376536.30644 -15948699.35842  21011866.030    21011862.676
  23928961.499    -5612393.46043  -4341492.13642  23928963.771    23928961.896
  20507190.222   -24078262.86244 -18257877.84142  20507192.498    20507187.904
 03  2 28  1 22 30.0000000  0 10G17G26G15G14G 6G29G 3G23G16G18
  20760904.326   -21806559.56844 -16783056.53742  20760906.098    20760903.143
  22419001.367   -15735923.01243 -12216057.16142  22419004.216    22419001.127
  20816990.898   -23446083.99844 -18222979.28542  20816993.065    20816989.821
  24625234.116    -3562041.79443  -2536602.33542  24625238.165    24625241.459
  22559007.766   -16768327.29743 -13031721.62842  22559010.066    22559008.632
  24268687.087    -7838121.78243  -5931615.79742  24268689.563    24268687.196
  23809295.096    -5611008.07043  -4122643.48142  23809297.571    23809295.554
  21019238.234   -21337783.69144 -15918502.48842  21019240.386    21019237.033
  23936616.711    -5572165.02143  -4310145.30542  23936618.983    23936617.085
  20504852.223   -24090548.89244 -18267451.32842  20504854.521    20504849.936
 03  2 28  1 23  0.0000000  0 10G17G26G15G14G 6G29G 3G23G16G18
  20761855.119   -21801562.99144 -16779163.07242  20761856.889    20761853.924
  22432792.769   -15663448.72843 -12159583.67742  22432795.553    22432792.514
  20809472.768   -23485591.93244 -18253764.65242  20809474.915    20809471.675
  24603616.236    -3675642.79243  -2625122.06342  24603620.180    24603623.253
  22577631.374   -16670459.57343 -12955461.09142  22577633.748    22577632.275
  24284782.908    -7753537.57643  -5865706.00742  24284785.454    24284783.080
  23792098.472    -5701376.67843  -4193060.50142  23792100.911    23792098.867
  21026660.888   -21298777.30644 -15888107.87942  21026663.034    21026659.664
  23944346.882    -5531542.77743  -4278491.60842  23944349.127    23944347.343
  20502587.250   -24102451.44144 -18276726.01542  20502589.518    20502584.934
 03  2 28  1 23 30.0000000  0 10G17G26G15G14G 6G29G 3G23G16G18
  20762843.478   -21796369.08544 -16775115.84542  20762845.248    20762842.275
  22446673.270   -15590506.12143 -12102745.26942  22446676.022    22446672.979
  20801985.116   -23524939.61844 -18284425.15542  20801987.267    20801984.033
  24581991.965    -3789277.07243  -2713667.72242  24581995.881    24581998.866
  22596297.897   -16572366.36243 -12879024.84642  22596300.271    22596298.772
  24300929.027    -7668688.86743  -5799590.10642  24300931.575    24300929.258
  23774944.997    -5791518.67643  -4263300.93642  23774947.367    23774945.313
  21034122.103   -21259568.32744 -15857555.40742  21034124.232    21034120.846
  23952142.179    -5490578.58343  -4246571.44242  23952144.414    23952142.609
  20500385.624   -24114020.87544 -18285741.12442  20500387.891    20500383.329
 03  2 28  1 24  0.0000000  0 10G17G26G15G14G 6G29G 3G23G16G18
  20763880.839   -21790917.59444 -16770867.90842  20763882.642    20763879.628
  22460653.630   -15517038.73643 -12045497.93242  22460656.347    22460653.374
  20794539.464   -23564066.64044 -18314913.71042  20794541.591    20794538.394
  24560373.080    -3902882.76943  -2802191.12942  24560377.012    24560379.732
  22615018.176   -16473990.69443 -12802368.52342  22615020.536    22615019.052
  24317136.276    -7583518.80743  -5733223.79542  24317138.806    24317136.618
  23757846.355    -5881372.24143  -4333316.61842  23757848.668    23757846.670
  21041632.779   -21220099.36944 -15826800.35542  21041634.904    21041631.527
  23960013.324    -5449215.63143  -4214340.57342  23960015.501    23960013.800
  20498258.494   -24125198.79644 -18294451.14942  20498260.770    20498256.197
 03  2 28  1 24 30.0000000  0 10G17G26G15G14G 6G29G 3G23G16G18
  20764966.225   -21785213.85344 -16766423.41142  20764968.035    20764964.971
  22474732.129   -15443055.25943 -11987848.45742  22474734.892    22474731.969
  20787134.846   -23602978.11444 -18345234.30542  20787136.943    20787133.756
  24538758.991    -4016463.43943  -2890695.06142  24538762.812    24538765.573
  22633790.558   -16375341.18743 -12725498.79842  22633792.901    22633791.465
  24333402.990    -7498036.07943  -5666613.85442  24333405.638    24333403.332
  23740801.943    -5970941.03643  -4403110.41042  23740804.238    23740802.158
  21049191.461   -21180378.15144 -15795848.73742  21049193.580    21049190.184
  23967958.655    -5407462.45043  -4181805.63242  23967960.901    23967959.186
  20496204.480   -24135992.41444 -18302861.71742  20496206.780    20496202.202
 03  2 28  1 25  0.0000000  0 10G17G26G15G14G 6G29G 3G23G16G18
  20766091.630   -21779299.66544 -16761814.93042  20766093.462    20766090.378
  22488900.287   -15368601.04843 -11929832.17542  22488902.994    22488900.163
  20779763.298   -23641715.75944 -18375419.45542  20779765.367    20779762.201
  24517142.048    -4130059.40743  -2979210.92842  24517145.821    24517148.490
  22652606.477   -16276462.90343 -12648450.80542  22652608.770    22652607.393
  24349720.642    -7412285.85143  -5599795.45142  24349723.334    24349721.027
  23723804.123    -6060265.24343  -4472713.61442  23723806.343    23723804.230
  21056789.646   -21140449.19744 -15764735.24942  21056791.780    21056788.366
  23975969.666    -5365364.25143  -4149001.83542  23975971.970    23975970.262
  20494215.370   -24146445.02644 -18311006.57942  20494217.671    20494213.080
 03  2 28  1 25 30.0000000  0 10G17G26G15G14G 6G29G 3G23G16G18
  20767263.039   -21773143.74644 -16757018.08442  20767264.868    20767261.786
  22503163.328   -15293648.20043 -11871427.34242  22503166.046    22503163.226
  20772430.870   -23680247.93044 -18405444.48442  20772432.903    20772429.743
  24495528.497    -4243637.37643  -3067712.79242  24495532.287    24495534.792
  22671471.333   -16177327.58143 -12571202.53342  22671473.601    22671472.227
  24366094.658    -7326239.97043  -5532746.68742  24366097.301    24366094.997
  23706859.044    -6149311.79643  -4542100.46442  23706861.352    23706859.176
  21064432.844   -21100283.75544 -15733437.48342  21064434.972    21064431.569
  23984051.732    -5322892.94843  -4115907.32842  23984054.039    23984052.287
  20492296.763   -24156527.12444 -18318862.71542  20492299.074    20492294.477
 03  2 28  1 26  0.0000000  0 10G17G26G15G14G 6G29G 3G23G16G18
  20768484.332   -21766725.69444 -16752016.98142  20768486.169    20768483.048
  22517524.537   -15218179.59143 -11812620.61542  22517527.241    22517524.438
  20765141.429   -23718554.00744 -18435293.33842  20765143.452    20765140.312
  24473922.823    -4357174.91443  -3156183.19342  24473926.507    24473928.767
  22690388.422   -16077917.84543 -12493740.42842  22690390.649    22690389.276
  24382528.152    -7239881.21243  -5465454.10942  24382530.824    24382528.556
  23689971.039    -6238058.50543  -4611253.64442  23689973.340    23689971.156
  21072124.452   -21059863.92644 -15701941.49742  21072126.601    21072123.181
  23992208.027    -5280031.34943  -4082508.69442  23992210.282    23992208.531
  20490452.281   -24166219.66544 -18326415.29242  20490454.602    20490450.005
 03  2 28  1 26 30.0000000  0 10G17G26G15G14G 6G29G 3G23G16G18
  20769748.498   -21760082.43244 -16746840.39442  20769750.325    20769747.197
  22531976.069   -15142236.05743 -11753443.81942  22531978.836    22531976.001
  20757887.950   -23756671.14244 -18464994.97042  20757889.988    20757886.829
  24452317.987    -4470707.77643  -3244649.96342  24452321.633    24452323.751
  22709350.013   -15978274.20443 -12416096.06442  22709352.222    22709350.816
  24399013.464    -7153250.21643  -5397949.40442  24399016.161    24399013.799
  23673133.232    -6326540.99143  -4680200.95342  23673135.625    23673133.371
  21079856.918   -21019229.51544 -15670278.30242  21079859.054    21079855.633
  24000430.870    -5236819.79943  -4048837.37742  24000433.192    24000431.376
  20488674.534   -24175561.79044 -18333694.82642  20488676.835    20488672.199
 03  2 28  1 27  0.0000000  0 10G17G26G15G14G 6G29G 3G23G16G18
  20771056.037   -21753211.21544 -16741486.18342  20771057.854    20771054.707
  22546517.740   -15065819.07843 -11693898.10942  22546520.485    22546517.658
  20750670.968   -23794596.52144 -18494547.17542  20750673.008    20750669.852
  24430714.778    -4584231.86843  -3333109.93742  24430718.414    24430720.487
  22728355.977   -15878397.56743 -12338270.15242  22728358.121    22728356.723
  24415550.380    -7066348.19343  -5330233.51942  24415553.004    24415550.653
  23656346.556    -6414755.39143  -4748939.37042  23656348.919    23656346.650
  21087630.157   -20978380.89444 -15638448.19242  21087632.265    21087628.823
  24008720.172    -5193259.78743  -4014894.53342  24008722.445    24008720.469
  20486963.473   -24184553.33544 -18340701.18142  20486965.779    20486961.126
 03  2 28  1 27 30.0000000  0 10G17G26G15G14G 6G29G 3G23G16G18
  20772412.806   -21746081.18944 -16735930.30042  20772414.635    20772411.480
  22561154.809   -14988900.71543 -11633961.69642  22561157.503    22561154.699
  20743496.468   -23832298.72144 -18523925.47342  20743498.504    20743495.326
  24409119.557    -4697714.23643  -3421537.40842  24409123.119    24409125.018
  22747411.577   -15778259.83243 -12260240.77842  22747413.757    22747412.312
  24432144.280    -6979146.90843  -5262284.43042  24432146.887    24432144.439
  23639617.062    -6502668.90343  -4817443.30742  23639619.510    23639617.107
  21095449.612   -20937289.45844 -15606428.87442  21095451.700    21095448.253
  24017081.103    -5149323.00643  -3980658.09642  24017083.374    24017081.382
  20485324.790   -24193164.46944 -18347411.11842  20485327.104    20485322.434
 03  2 28  1 28  0.0000000  0 10G17G26G15G14G 6G29G 3G23G16G18
  20773816.632   -21738703.99644 -16730181.81842  20773818.437    20773815.267
  22575884.310   -14911496.55443 -11573646.74242  22575887.045    22575884.240
  20736362.207   -23869789.35844 -18553138.92142  20736364.229    20736361.063
  24387530.314    -4811165.01043  -3509940.25642  24387533.918    24387535.632
  22766514.014   -15677876.06743 -12182019.69542  22766516.243    22766514.771
  24448792.136    -6891661.73743  -5194114.13642  24448794.698    24448792.253
  23622942.891    -6590291.86643  -4885720.84942  23622945.337    23622942.955
  21103312.490   -20895969.74644 -15574231.67642  21103314.572    21103311.103
  24025510.786    -5105024.77143  -3946140.01842  24025513.032    24025511.139
  20483755.921   -24201408.71144 -18353835.15942  20483758.238    20483753.568
 03  2 28  1 28 30.0000000  0 10G17G26G15G14G 6G29G 3G23G16G18
  20775262.826   -21731104.03244 -16724259.74642  20775264.619    20775261.464
  22590700.973   -14833634.34043 -11512974.85442  22590703.731    22590700.881
  20729263.602   -23907092.49244 -18582206.25642  20729265.646    20729262.483
  24365942.824    -4924606.66543  -3598336.01542  24365946.486    24365948.048
  22785658.007   -15577273.89743 -12103628.41742  22785660.245    22785658.801
  24465488.763    -6803920.31743  -5125744.16842  24465491.315    24465488.837
  23606319.814    -6677646.50143  -4953789.31942  23606322.260    23606319.797
  21111213.719   -20854448.39844 -15541877.35442  21111215.840    21111212.333
  24034003.997    -5060392.88643  -3911361.95642  24034006.152    24034004.382
  20482251.901   -24209312.30444 -18359993.76142  20482254.209    20482249.529
 03  2 28  1 29  0.0000000  0 10G17G26G15G14G 6G29G 3G23G16G18
  20776754.266   -21723266.32344 -16718152.41842  20776756.064    20776752.891
  22605606.815   -14755303.46243 -11451937.78242  22605609.557    22605606.737
  20722203.439   -23944193.79044 -18611116.32742  20722205.481    20722202.309
  24344360.124    -5038023.12343  -3686712.13042  24344363.811    24344365.272
  22804845.653   -15476442.26343 -12025058.35242  22804847.906    22804846.484
  24482236.200    -6715911.66143  -5057165.96142  24482238.785    24482236.302
  23589750.753    -6764717.46143  -5021636.74542  23589753.130    23589750.690
  21119155.533   -20812713.86744 -15509356.91742  21119157.636    21119154.135
  24042562.767    -5015416.42343  -3876315.39142  24042564.870    24042563.095
  20480815.033   -24216862.90744 -18365877.30342  20480817.345    20480812.664
 03  2 28  1 29 30.0000000  0 10G17G26G15G14G 6G29G 3G23G16G18
  20778296.552   -21715161.54244 -16711836.98742  20778298.327    20778295.181
  22620606.848   -14676477.71043 -11390515.09742  22620609.571    22620606.742
  20715187.377   -23981063.21844 -18639845.71542  20715189.426    20715186.243
  24322788.170    -5151382.78843  -3775043.98742  24322791.815    24322793.300
  22824082.001   -15375354.68043 -11946288.82842  22824084.262    22824082.841
  24499039.577    -6627609.41343  -4988358.98042  24499042.151    24499039.664
  23573241.565    -6851473.14043  -5089238.47342  23573244.009    23573241.522
  21127143.051   -20770738.97844 -15476649.18942  21127145.162    21127141.682
  24051192.098    -4970068.95243  -3840979.72842  24051194.260    24051192.439
  20479450.680   -24224032.49444 -18371463.96042  20479452.999    20479448.306
 03  2 28  1 30  0.0000000  0 10G17G26G15G14G 6G29G 3G23G16G18
  20779883.940   -21706819.75144 -16705336.87042  20779885.716    20779882.540
  22635694.603   -14597190.90843 -11328733.16042  22635697.322    22635694.499
  20708209.780   -24017730.64544 -18668417.69842  20708211.817    20708208.637
  24301221.654    -5264714.09243  -3863353.74842  24301225.186    24301226.736
  22843360.671   -15274044.63043 -11867345.96442  22843362.958    22843361.530
  24515892.368    -6539047.13643  -4919349.38142  24515894.934    24515892.473
  23556787.064    -6937942.01743  -5156616.74042  23556789.431    23556786.900
  21135170.114   -20728556.42344 -15443779.64442  21135172.217    21135168.733
  24059885.606    -4924384.11543  -3805381.19942  24059887.798    24059886.031
  20478152.750   -24230853.06744 -18376778.67242  20478155.047    20478150.353
 03  2 28  1 30 30.0000000  0 10G17G26G15G14G 6G29G 3G23G16G18
  20781522.227   -21698210.46844 -16698628.31542  20781524.004    20781520.846
  22650875.256   -14517416.00143 -11266570.86942  22650877.996    22650875.148
  20701276.509   -24054165.17444 -18696808.20142  20701278.533    20701275.353
  24279666.638    -5377984.70543  -3951616.19242  24279670.121    24279671.773
  22862686.888   -15172484.66943 -11788208.36642  22862689.202    22862687.785
  24532799.887    -6450197.32943  -4850115.72842  24532802.438    24532799.929
  23540393.267    -7024091.81843  -5223746.37942  23540395.637    23540393.023
  21143241.976   -20686138.19544 -15410726.45542  21143244.111    21143240.634
  24068648.568    -4878334.57743  -3769498.47942  24068650.728    24068649.043
  20476926.692   -24237295.72844 -18381798.88942  20476929.006    20476924.338
 03  2 28  1 31  0.0000000  0 10G17G26G15G14G 6G29G 3G23G16G18
  20783203.984   -21689372.64644 -16691741.67542  20783205.769    20783202.609
  22666140.643   -14437195.95243 -11204061.72142  22666143.330    22666140.513
  20694380.127   -24090405.81644 -18725047.62042  20694382.159    20694378.954
  24258116.105    -5491232.17743  -4039860.59542  24258119.563    24258121.151
  22882052.609   -15070717.25943 -11708909.11642  22882054.910    22882053.525
  24549753.925    -6361102.80343  -4780691.38042  24549756.553    24549753.981
  23524052.990    -7109960.22643  -5290656.74342  23524055.320    23524052.680
  21151350.767   -20643526.14244 -15377522.23842  21151352.886    21151349.434
  24077472.834    -4831963.12843  -3733364.90842  24077474.912    24077473.270
  20475764.768   -24243401.57244 -18386556.65042  20475767.063    20475762.381
 03  2 28  1 31 30.0000000  0 10G17G26G15G14G 6G29G 3G23G16G18
  20784937.622   -21680262.18944 -16684642.60142  20784939.411    20784936.274
  22681498.428   -14356490.30043 -11141174.18242  22681501.112    22681498.252
  20687529.074   -24126408.26344 -18753101.43642  20687531.102    20687527.890
  24236578.720    -5604410.34843  -4128050.97542  24236582.075    24236583.732
  22901465.504   -14968701.73243 -11629416.53642  22901467.818    22901466.462
  24566762.359    -6271722.80743  -4711044.59942  24566764.893    24566762.360
  23507774.958    -7195501.67943  -5357312.33642  23507777.266    23507774.606
  21159504.335   -20600678.74344 -15344134.63342  21159506.443    21159502.994
  24086366.039    -4785229.15543  -3696948.86242  24086368.057    24086366.462
  20474674.962   -24249128.38244 -18391019.07042  20474677.265    20474672.571
 03  2 28  1 32  0.0000000  0 10G17G26G15G14G 6G29G 3G23G16G18
  20786716.644   -21670913.21544 -16677357.66442  20786718.438    20786715.294
  22696941.284   -14275337.45643 -11077938.18342  22696943.994    22696941.095
  20680716.786   -24162206.96844 -18780996.49442  20680718.835    20680715.593
  24215048.207    -5717552.43343  -4216213.23442  24215051.584    24215053.215
  22920918.471   -14866475.91543 -11549760.09942  22920920.745    22920919.427
  24583817.887    -6182095.23343  -4641204.88542  24583820.461    24583817.908
  23491552.874    -7280749.07343  -5423738.81542  23491555.153    23491552.474
  21167695.621   -20557633.15544 -15310592.59642  21167697.732    21167694.277
  24095320.902    -4738170.73243  -3660279.98642  24095322.988    24095321.387
  20473650.366   -24254512.57644 -18395214.51342  20473652.656    20473647.952
 03  2 28  1 32 30.0000000  0 10G17G26G15G14G 6G29G 3G23G16G18
  20788540.674   -21661327.69344 -16669888.40642  20788542.480    20788539.324
  22712468.329   -14193742.57643 -11014357.74542  22712471.010    22712468.032
  20673943.022   -24197803.24944 -18808733.81942  20673945.069    20673941.817
  24193524.579    -5830658.14643  -4304347.15742  24193527.935    24193529.622
  22940410.515   -14764044.55843 -11469943.48542  22940412.756    22940411.504
  24600919.568    -6092225.01043  -4571176.09742  24600922.195    24600919.595
  23475386.720    -7365702.35043  -5489936.09142  23475389.000    23475386.293
  21175923.843   -20514393.50644 -15276899.34742  21175925.928    21175922.484
  24104336.641    -4690792.71343  -3623362.09942  24104338.798    24104337.091
  20472690.349   -24259557.40344 -18399145.51742  20472692.631    20472687.914
 03  2 28  1 33  0.0000000  0 10G17G26G15G14G 6G29G 3G23G16G18
  20790408.716   -21651511.15244 -16662239.13042  20790410.498    20790407.343
  22728077.619   -14111714.90743 -10950440.06842  22728080.393    22728077.341
  20667206.762   -24233202.33644 -18836317.48742  20667208.818    20667205.557
  24172007.069    -5943731.36843  -4392455.74042  24172010.544    24172012.133
  22959939.916   -14661416.67143 -11389973.74442  22959942.198    22959940.936
  24618065.735    -6002121.13843  -4500965.24542  24618068.318    24618065.740
  23459275.774    -7450365.59343  -5555907.37942  23459278.076    23459275.352
  21184187.394   -20470968.10644 -15243061.35642  21184189.483    21184186.057
  24113411.404    -4643104.49443  -3586202.45542  24113413.652    24113411.800
  20471793.440   -24264270.62644 -18402818.13242  20471795.708    20471790.982
 03  2 28  1 33 30.0000000  0 10G17G26G15G14G 6G29G 3G23G16G18
  20792330.079   -21641414.12544 -16654371.29342  20792331.876    20792328.739
  22743778.041   -14029208.82143 -10886149.60542  22743780.831    22743777.719
  20660517.514   -24268354.41544 -18863708.67842  20660519.587    20660516.289
  24150505.640    -6056720.67443  -4480498.94842  24150509.069    24150510.412
  22979515.583   -14558546.08243 -11309814.88242  22979517.819    22979516.534
  24635265.045    -5911737.61043  -4430536.46942  24635267.686    24635265.240
  23443229.783    -7534687.55043  -5621612.72242  23443232.115    23443229.356
  21192495.227   -20427310.03244 -15209042.06242  21192497.310    21192493.906
  24122553.979    -4595060.08043  -3548765.29142  24122556.250    24122554.331
  20470968.674   -24268604.64144 -18406195.25842  20470970.936    20470966.219
 03  2 28  1 34  0.0000000  0 10G17G26G15G14G 6G29G 3G23G16G18
  20794301.678   -21631053.16644 -16646297.79342  20794303.487    20794300.359
  22759565.568   -13946244.85143 -10821502.34942  22759568.333    22759565.216
  20653872.097   -24303276.16044 -18890920.39442  20653874.160    20653870.848
  24129017.187    -6169641.48943  -4568488.79042  24129020.682    24129021.941
  22999133.617   -14455452.91843 -11229482.58542  22999135.846    22999134.474
  24652513.828    -5821094.50643  -4359905.43542  24652516.426    24652514.042
  23427245.794    -7618683.73243  -5687064.22242  23427248.148    23427245.368
  21200843.666   -20383438.73144 -15174856.61842  21200845.750    21200842.320
  24131760.483    -4546679.82043  -3511066.40742  24131762.719    24131760.817
  20470212.465   -24272578.36744 -18409291.64342  20470214.729    20470210.024
 03  2 28  1 34 30.0000000  0 10G17G26G15G14G 6G29G 3G23G16G18
  20796317.899   -21620457.78944 -16638041.63142  20796319.717    20796316.587
  22775433.857   -13862856.37043 -10756524.30242  22775436.669    22775433.557
  20647264.915   -24337996.90944 -18917975.48942  20647266.978    20647263.657
  24107536.529    -6282521.52643  -4656446.86242  24107539.972    24107541.145
  23018787.760   -14352170.03643 -11149002.46642  23018790.005    23018788.597
  24669805.683    -5730225.07443  -4289098.02742  24669808.199    24669805.759
  23411318.512    -7702382.02643  -5752283.59542  23411320.798    23411318.033
  21209226.549   -20339386.26544 -15140530.00842  21209228.636    21209225.201
  24141024.635    -4497996.74343  -3473131.57042  24141026.811    24141024.839
  20469518.910   -24276222.90544 -18412131.51142  20469521.164    20469516.478
 03  2 28  1 35  0.0000000  0 10G17G26G15G14G 6G29G 3G23G16G18
  20798381.958   -21609611.10744 -16629589.65042  20798383.747    20798380.618
  22791385.413   -13779030.33943 -10691205.30442  22791388.258    22791385.113
  20640699.236   -24372499.73444 -18944860.77042  20640701.261    20640697.944
  24086067.085    -6395342.34343  -4744358.79542  24086070.635    24086071.661
  23038480.546   -14248684.09943 -11068364.12542  23038482.751    23038481.401
  24687143.136    -5639115.73543  -4218103.69842  24687145.691    24687143.192
  23395451.351    -7785764.10943  -5817256.58442  23395453.651    23395450.856
  21217646.618   -20295138.47543 -15106051.19942  21217648.684    21217645.287
  24150348.944    -4448997.66143  -3434950.51342  24150351.065    24150349.013
  20468890.798   -24279523.56044 -18414703.41942  20468893.062    20468888.378
 03  2 28  1 35 30.0000000  0 10G17G26G15G14G 6G29G 3G23G16G18
  20800498.262   -21598489.72844 -16620923.61942  20800500.056    20800496.933
  22807424.048   -13694747.01343 -10625529.97542  22807426.868    22807423.673
  20634179.525   -24406760.87744 -18971557.73442  20634181.536    20634178.216
  24064613.799    -6508078.47143  -4832204.74342  24064617.386    24064618.275
  23058215.794   -14144974.93543 -10987551.83242  23058218.027    23058216.635
  24704530.027    -5547746.40543  -4146906.75342  24704532.682    24704530.214
  23379649.103    -7868804.90743  -5881963.63142  23379651.465    23379648.711
  21226107.849   -20250674.37844 -15071403.83942  21226109.909    21226106.512
  24159737.182    -4399662.45643  -3396507.53742  24159739.268    24159737.246
  20468332.255   -24282458.80544 -18416990.59542  20468334.498    20468329.800
 03  2 28  1 36  0.0000000  0 10G17G26G15G14G 6G29G 3G23G16G18
  20802660.024   -21587129.59044 -16612071.54142  20802661.808    20802658.677
  22823542.103   -13610045.93043 -10559529.12142  22823544.916    22823541.727
  20627699.035   -24440815.90244 -18998094.08542  20627701.047    20627697.726
  24043170.078    -6620764.05143  -4920011.32442  24043173.843    24043174.487
  23077986.033   -14041081.67743 -10906596.09642  23077988.337    23077986.896
  24721958.999    -5456156.25743  -4075537.75642  24721961.819    24721959.137
  23363905.299    -7951538.78843  -5946431.52442  23363907.656    23363904.971
  21234602.896   -20206032.52044 -15036617.96442  21234604.970    21234601.555
  24169181.732    -4350030.68243  -3357833.45142  24169183.932    24169181.793
  20467835.993   -24285066.52444 -18419022.55342  20467838.269    20467833.553
 03  2 28  1 36 30.0000000  0 10G17G26G15G14G 6G29G 3G23G16G18
  20804869.207   -21575520.22344 -16603025.26242  20804870.967    20804867.825
  22839740.970   -13524920.29843 -10493197.44942  22839743.748    22839740.609
  20621259.860   -24474653.85644 -19024461.29242  20621261.890    20621258.545
  24021738.345    -6733386.95043  -5007769.07242  24021742.084    24021742.700
  23097792.713   -13936997.05043 -10825491.23042  23097795.063    23097793.613
  24739431.416    -5364338.13443  -4003991.11342  24739434.156    24739431.448
  23348222.201    -8033953.70743  -6010650.87042  23348224.577    23348221.820
  21243133.287   -20161204.99244 -15001687.41142  21243135.352    21243131.948
  24178684.107    -4300095.38743  -3318922.87742  24178686.296    24178684.062
  20467403.780   -24287337.74844 -18420792.30342  20467406.067    20467401.321
 03  2 28  1 37  0.0000000  0 10G17G26G15G14G 6G29G 3G23G16G18
  20807126.257   -21563659.30844 -16593782.96842  20807127.999    20807124.844
  22856020.275   -13439371.94843 -10426536.37942  22856023.058    22856019.922
  20614862.451   -24508272.37644 -19050657.50842  20614864.478    20614861.112
  24000319.368    -6845943.04943  -5095474.76842  24000323.134    24000323.505
  23117635.584   -13832722.29043 -10744238.21342  23117637.933    23117636.475
  24756946.868    -5272293.50443  -3932267.96842  24756949.582    24756946.845
  23332600.578    -8116045.65343  -6074618.55342  23332602.884    23332600.210
  21251698.949   -20116192.11644 -14966612.43242  21251701.008    21251697.584
  24188243.982    -4249857.97243  -3279776.87042  24188246.053    24188243.958
  20467035.633   -24289272.36444 -18422299.77242  20467037.918    20467033.137
 03  2 28  1 37 30.0000000  0 10G17G26G15G14G 6G29G 3G23G16G18
  20809440.142   -21551499.52544 -16584307.79042  20809441.903    20809438.741
  22872388.264   -13353357.48843 -10359512.10942  22872391.092    22872387.915
  20608515.805   -24541624.13544 -19076645.86542  20608517.844    20608514.417
  23978922.408    -6958383.67843  -5183090.50642  23978926.064    23978926.349
  23137522.955   -13728213.59743 -10662802.91642  23137525.338    23137523.849
  24774513.832    -5179978.56943  -3860334.20842  24774516.441    24774513.865
  23317049.625    -8197766.26843  -6138296.87442  23317051.921    23317049.237
  21260308.376   -20070949.32043 -14931358.29342  21260310.421    21260306.978
  24197869.564    -4199275.16343  -3240361.72442  24197871.603    24197869.502
  20466740.072   -24290825.50344 -18423509.99242  20466742.358    20466737.559
 03  2 28  1 38  0.0000000  0 10G17G26G15G14G 6G29G 3G23G16G18
  20811804.195   -21539076.20944 -16574627.26142  20811805.956    20811802.800
  22888837.525   -13266916.01943 -10292155.10442  22888840.350    22888837.193
  20602213.295   -24574743.95344 -19102453.48642  20602215.347    20602211.880
  23957541.073    -7070742.15343  -5270642.21942  23957544.718    23957544.827
  23157447.478   -13623509.76143 -10581215.56842  23157449.839    23157448.390
  24792124.796    -5087432.00743  -3788219.96642  24792127.390    24792124.907
  23301562.830    -8279149.46543  -6201712.29342  23301565.146    23301562.465
  21268954.324   -20025514.52344 -14895954.54442  21268956.371    21268952.928
  24207553.441    -4148385.71943  -3200707.65942  24207555.532    24207553.405
  20466510.022   -24292034.30444 -18424451.89442  20466512.327    20466507.494
 03  2 28  1 38 30.0000000  0 10G17G26G15G14G 6G29G 3G23G16G18
  20814216.404   -21526399.88044 -16564749.58142  20814218.158    20814215.008
  22905365.305   -13180061.91943 -10224476.57042  22905368.127    22905364.947
  20595952.962   -24607642.22544 -19128088.47442  20595955.025    20595951.505
  23936173.792    -7183027.37143  -5358136.85242  23936177.334    23936177.422
  23177406.467   -13518624.66443 -10499486.96742  23177408.801    23177407.453
  24809777.201    -4994667.76043  -3715936.08742  24809779.893    24809777.343
  23286138.548    -8360204.12643  -6264871.68042  23286140.863    23286138.252
  21277634.307   -19979900.89643 -14860411.44242  21277636.358    21277632.865
  24217293.021    -4097203.81143  -3160825.67942  24217295.099    24217293.036
  20466343.110   -24292911.17744 -18425135.14042  20466345.421    20466340.592
 03  2 28  1 39  0.0000000  0 10G17G26G15G14G 6G29G 3G23G16G18
  20816676.326   -21513472.94844 -16554676.63042  20816678.092    20816674.887
  22921970.356   -13092801.63143 -10156481.52742  22921973.189    22921970.017
  20589734.363   -24640321.10244 -19153552.50742  20589736.426    20589732.877
  23914820.210    -7295240.15343  -5445575.04642  23914823.701    23914823.651
  23197398.839   -13413564.13543 -10417621.67442  23197401.142    23197399.887
  24827469.825    -4901691.77043  -3643487.20342  24827472.700    24827470.007
  23270776.687    -8440931.03943  -6327775.69842  23270778.946    23270776.406
  21286347.356   -19934113.41944 -14824732.87642  21286349.417    21286345.901
  24227087.216    -4045735.37243  -3120720.46642  24227089.271    24227087.355
  20466238.521   -24293460.61144 -18425563.24342  20466240.835    20466235.999
 03  2 28  1 39 30.0000000  0 10G17G26G15G14G 6G29G 3G23G16G18
  20819187.435   -21500277.02944 -16544394.07942  20819189.191    20819185.952
  22938655.525   -13005120.56443 -10088158.59342  22938658.314    22938655.154
  20583561.030   -24672761.91044 -19178831.02942  20583563.093    20583559.584
  23893484.146    -7407360.46243  -5532941.18442  23893487.649    23893487.510
  23217427.473   -13308313.22143 -10335608.02542  23217429.724    23217428.501
  24845205.626    -4808489.11243  -3570861.70742  24845208.508    24845205.899
  23255480.908    -8521310.71943  -6390409.14242  23255483.184    23255480.553
  21295096.506   -19888136.30344 -14788906.53542  21295098.566    21295095.019
  24236938.655    -3993965.95543  -3080380.68042  24236940.793    24236938.872
  20466199.367   -24293666.13344 -18425723.36742  20466201.679    20466196.840
 03  2 28  1 40  0.0000000  0 10G17G26G15G14G 6G29G 3G23G16G18
  20821752.637   -21486796.69044 -16533889.90342  20821754.404    20821751.162
  22955423.012   -12917006.82943 -10019498.52442  22955425.761    22955422.597
  20577436.031   -24704948.88744 -19203911.75842  20577438.068    20577434.585
  23872169.071    -7519370.75343  -5620221.58642  23872172.522    23872172.348
  23237494.633   -13202859.68043 -10253436.48242  23237496.962    23237495.723
  24862986.942    -4715047.47643  -3498049.98342  24862989.679    24862987.152
  23240254.512    -8601325.70643  -6452758.41742  23240256.795    23240254.160
  21303884.232   -19841956.38844 -14752922.16842  21303886.325    21303882.738
  24246849.658    -3941883.42743  -3039796.92342  24246851.797    24246849.987
  20466228.268   -24293514.14444 -18425604.90642  20466230.557    20466225.729
 03  2 28  1 40 30.0000000  0 10G17G26G15G14G 6G29G 3G23G16G18
  20824365.068   -21473068.22444 -16523192.38342  20824366.816    20824363.573
  22972265.096   -12828501.03143  -9950532.95342  22972267.845    22972264.677
  20571352.422   -24736918.27744 -19228822.94142  20571354.453    20571350.985
  23850868.312    -7631305.87543  -5707443.40642  23850871.759    23850871.476
  23257592.831   -13097243.38043 -10171138.13242  23257595.110    23257593.874
  24880806.139    -4621406.88843  -3425083.22642  24880808.958    24880806.251
  23225090.813    -8681011.32143  -6514851.03842  23225093.063    23225090.409
  21312703.126   -19795612.83444 -14716810.29342  21312705.203    21312701.609
  24256812.598    -3889528.16043  -2999000.64542  24256814.721    24256813.028
  20466317.862   -24293043.24544 -18425237.95042  20466320.139    20466315.295
 03  2 28  1 41  0.0000000  0  9G17G26G15G14G 6G 3G23G16G18
  20827027.274   -21459078.04044 -16512290.92342  20827029.030    20827025.796
  22989183.614   -12739593.54243  -9881254.37642  22989186.389    22989183.217
  20565312.825   -24768656.49044 -19253553.98342  20565314.857    20565311.360
  23829584.740    -7743150.48943  -5794594.71842  23829588.230    23829587.837
  23277723.922   -12991454.21843 -10088705.07442  23277726.136    23277724.904
  23209992.610    -8760352.52243  -6576675.27942  23209994.875    23209992.233
  21321555.228   -19749094.70543 -14680562.38842  21321557.292    21321553.703
  24266829.275    -3836890.17043  -2957984.06942  24266831.341    24266829.793
  20466470.294   -24292242.18444 -18424613.72542  20466472.527    20466467.704
 03  2 28  1 41 30.0000000  0  9G17G26G15G14G 6G 3G23G16G18
  20829741.168   -21444816.28144 -16501177.84842  20829742.921    20829739.707
  23006179.771   -12650278.01143  -9811657.83942  23006182.528    23006179.376
  20559319.179   -24800153.14644 -19278096.80342  20559321.220    20559317.709
  23808320.660    -7854892.89943  -5881666.39842  23808324.063    23808323.497
  23297889.059   -12885485.59843 -10006132.19442  23297891.386    23297890.084
  23194962.171    -8839337.72943  -6638222.13942  23194964.427    23194961.757
  21330441.994   -19702394.38544 -14644172.51842  21330444.074    21330440.458
  24276901.002    -3783963.10643  -2916742.23842  24276903.007    24276901.632
  20466687.123   -24291102.62344 -18423725.72642  20466689.355    20466684.500
 03  2 28  1 42  0.0000000  0  9G17G26G15G14G 6G 3G23G16G18
  20832504.998   -21430292.15744 -16489860.33242  20832506.745    20832503.537
  23023251.055   -12560567.80843  -9741753.77242  23023253.785    23023250.631
  20553369.816   -24831417.10544 -19302458.30142  20553371.860    20553368.338
  23787074.531    -7966540.77643  -5968664.42342  23787077.897    23787077.259
  23318085.947   -12779350.31643  -9923429.42342  23318088.299    23318087.000
  23179998.065    -8917974.67343  -6699497.61442  23180000.280    23179997.566
  21339361.149   -19655523.78844 -14607649.95842  21339363.244    21339359.646
  24287025.259    -3730760.13543  -2875285.41142  24287027.269    24287025.970
  20466966.194   -24289636.12044 -18422582.97242  20466968.411    20466963.542
 03  2 28  1 42 30.0000000  0  9G17G26G15G14G 6G 3G23G16G18
  20835317.607   -21415511.55544 -16478342.96542  20835319.373    20835316.173
  23040395.650   -12470472.36443  -9671549.51742  23040398.368    23040395.198
  20547463.752   -24862453.66944 -19326642.60742  20547465.768    20547462.240
  23765845.667    -8078097.83243  -6055591.68142  23765849.056    23765848.282
  23338312.900   -12673057.15343  -9840603.64942  23338315.186    23338313.946
  23165099.370    -8996267.38443  -6760504.86142  23165101.629    23165098.889
  21348311.157   -19608491.11744 -14571001.10742  21348313.256    21348309.641
  24297200.267    -3677290.46043  -2833620.78042  24297202.327    24297200.752
  20467306.033   -24287850.16344 -18421191.29142  20467308.259    20467303.375
 03  2 28  1 43  0.0000000  0  9G17G26G15G14G 6G 3G23G16G18
  20838185.650   -21400439.85844 -16466598.76942  20838187.398    20838184.224
  23057619.293   -12379961.41243  -9601021.47742  23057622.028    23057618.854
  20541607.493   -24893228.40844 -19350622.89242  20541609.501    20541605.982
  23744640.912    -8189528.24643  -6142420.28142  23744644.321    23744643.394
  23358575.778   -12566575.37143  -9757630.89742  23358577.997    23358576.835
  23150272.945    -9074180.66443  -6821216.45842  23150275.196    23150272.466
  21357298.034   -19561264.77543 -14534201.34742  21357300.119    21357296.506
  24307431.802    -3623523.43343  -2791724.43742  24307433.915    24307432.357
  20467712.816   -24285712.43644 -18419525.50442  20467715.048    20467710.147
 03  2 28  1 43 30.0000000  0  9G17G26G15G14G 6G 3G23G16G18
  20841105.979   -21385093.31244 -16454640.40742  20841107.742    20841104.555
  23074918.155   -12289055.23043  -9530185.48342  23074920.905    23074917.708
  20535798.042   -24923757.18644 -19374411.52042  20535800.065    20535796.545
  23723457.575    -8300846.43543  -6229161.44942  23723460.894    23723459.878
  23378870.780   -12459924.69543  -9674526.53342  23378872.953    23378871.848
  23135515.898    -9151729.03343  -6881643.68742  23135518.217    23135515.462
  21366318.155   -19513863.48644 -14497265.26342  21366320.258    21366316.658
  24317716.043    -3569479.36643  -2749612.22542  24317718.127    24317716.632
  20468183.003   -24283241.50344 -18417600.07642  20468185.233    20468180.332
 03  2 28  1 44  0.0000000  0  9G17G26G15G14G 6G 3G23G16G18
  20844074.233   -21369494.91644 -16442485.80242  20844075.997    20844072.824
  23092287.165   -12197780.18043  -9459062.03742  23092289.946    23092286.770
  20530031.171   -24954062.13244 -19398025.73642  20530033.212    20530029.689
  23702291.574    -8412073.26543  -6315831.40942  23702294.870    23702293.734
  23399192.958   -12353131.07743  -9591310.80742  23399195.096    23399194.049
  23120824.426    -9228933.53643  -6941802.98942  23120826.652    23120823.856
  21375366.817   -19466312.33243 -14460212.40642  21375368.909    21375365.330
  24328047.940    -3515184.30143  -2707304.43742  24328050.118    24328048.554
  20468711.940   -24280461.81844 -18415434.05742  20468714.191    20468709.266
 03  2 28  1 44 30.0000000  0  9G17G26G15G14G 6G 3G23G16G18
  20847094.170   -21353624.91144 -16430119.54842  20847095.957    20847092.764
  23109729.373   -12106120.60043  -9387638.97342  23109732.088    23109729.035
  20524310.701   -24984123.42044 -19421450.09042  20524312.706    20524309.179
  23681147.046    -8523187.40243  -6402413.61042  23681150.348    23681149.033
  23419545.382   -12246178.35543  -9507971.10042  23419547.489    23419546.558
  23106202.312    -9305773.22443  -7001678.00742  23106204.524    23106201.727
  21384447.229   -19418594.32043 -14423029.52742  21384449.334    21384445.766
  24338430.763    -3460622.39143  -2664788.72042  24338433.041    24338431.422
  20469302.955   -24277355.88844 -18413013.82442  20469305.222    20469300.287
 03  2 28  1 45  0.0000000  0  9G17G26G15G14G 6G 3G23G16G18
  20850167.126   -21337476.43744 -16417536.30742  20850168.905    20850165.675
  23127245.337   -12014073.47943  -9315913.92042  23127248.092    23127244.992
  20518637.898   -25013934.07844 -19444679.14542  20518639.910    20518636.368
  23660025.603    -8634180.16143  -6488901.21542  23660028.918    23660027.574
  23439928.793   -12139063.02443  -9424504.68542  23439930.844    23439930.040
  23091651.132    -9382239.92343  -7061262.39542  23091653.373    23091650.552
  21393560.258   -19370704.96544 -14385713.13642  21393562.373    21393558.790
  24348864.861    -3405790.53943  -2622062.65142  24348867.098    24348865.559
  20469956.986   -24273918.76644 -18410335.51942  20469959.278    20469954.311
 03  2 28  1 45 30.0000000  0  9G17G26G15G14G 6G 3G23G16G18
  20853294.751   -21321040.67644 -16404729.21242  20853296.534    20853293.268
  23144835.869   -11921634.45343  -9243883.49342  23144838.606    23144835.518
  20513014.486   -25043485.22444 -19467705.98542  20513016.485    20513012.938
  23638929.255    -8745041.25043  -6575286.21842  23638932.579    23638931.185
  23460344.033   -12031780.14443  -9340907.71842  23460346.101    23460345.320
  23077172.835    -9458323.49343  -7120548.23142  23077175.147    23077172.276
  21402707.035   -19322638.40243 -14348258.65942  21402709.126    21402705.555
  24359351.410    -3350684.08943  -2579122.63642  24359353.560    24359351.915
  20470675.258   -24270144.09444 -18407394.19042  20470677.548    20470672.595
 03  2 28  1 46  0.0000000  0  9G17G26G15G14G 6G 3G23G16G18
  20856474.795   -21304329.43744 -16391707.45642  20856476.563    20856473.277
  23162498.099   -11828818.61443  -9171559.44042  23162500.859    23162497.805
  20507438.380   -25072787.82544 -19490539.14842  20507440.354    20507436.818
  23617856.150    -8855780.30943  -6661576.15742  23617859.479    23617858.014
  23480788.381   -11924344.37243  -9257191.61042  23480790.415    23480789.768
  23062765.498    -9534033.99643  -7179543.36642  23062767.889    23062764.982
  21411884.908   -19274408.44143 -14310676.85542  21411886.980    21411883.402
  24369887.241    -3295318.24743  -2535980.48842  24369889.365    24369887.696
  20471455.238   -24266045.20744 -18404200.21642  20471457.531    20471452.546
 03  2 28  1 46 30.0000000  0  9G17G26G15G14G 6G 3G23G16G18
  20859704.319   -21287358.11944 -16378483.03742  20859706.083    20859702.795
  23180228.368   -11735645.57843  -9098957.05642  23180231.077    23180228.046
  20501906.611   -25101857.26344 -19513190.62742  20501908.580    20501905.074
  23596803.638    -8966411.25243  -6747781.83842  23596806.869    23596805.429
  23501258.270   -11816774.69543  -9173371.16742  23501260.337    23501259.647
  23048426.448    -9609385.75343  -7238258.95542  23048428.854    23048425.963
  21421090.442   -19226033.10844 -14272981.77642  21421092.496    21421088.908
  24380468.865    -3239712.28343  -2492651.23542  24380470.975    24380469.209
  20472293.488   -24261639.98844 -18400767.54542  20472295.794    20472290.812
 03  2 28  1 47  0.0000000  0  9G17G26G15G14G 6G 3G23G16G18
  20862991.513   -21270083.71344 -16365022.44442  20862993.278    20862989.983
  23198033.951   -11642076.30643  -9026045.90742  23198036.717    23198033.676
  20496427.486   -25130650.10744 -19535626.58242  20496429.444    20496425.940
  23575780.228    -9076889.28143  -6833868.35842  23575783.373    23575781.950
  23521761.181   -11709031.52743  -9089415.53542  23521763.270    23521762.560
  23034164.168    -9684334.30343  -7296660.36742  23034166.577    23034163.683
  21430331.309   -19177471.88144 -14235141.84542  21430333.414    21430329.782
  24391103.606    -3183826.68643  -2449104.06742  24391105.785    24391104.131
  20473197.835   -24256887.53044 -18397064.30642  20473200.123    20473195.134
 03  2 28  1 47 30.0000000  0  9G17G26G15G14G 6G 3G23G16G18
  20866331.775   -21252530.48744 -16351344.58942  20866333.541    20866330.246
  23215909.495   -11548139.24343  -8952848.17342  23215912.321    23215909.288
  20490996.381   -25159190.68444 -19557865.96142  20490998.326    20490994.811
  23554781.469    -9187237.11243  -6919853.43742  23554784.693    23554783.213
  23542291.784   -11601142.87043  -9005346.52742  23542293.920    23542293.115
  23019974.252    -9758902.73843  -7354765.58142  23019976.590    23019973.759
  21439602.448   -19128751.71743 -14197178.06542  21439604.549    21439600.898
  24401786.152    -3127689.81643  -2405361.11142  24401788.309    24401786.792
  20474163.221   -24251814.27944 -18393111.09542  20474165.504    20474160.518
 03  2 28  1 48  0.0000000  0  9G17G26G15G14G 6G 3G23G16G18
  20869725.049   -21234698.61044 -16337449.60342  20869726.826    20869723.543
  23233854.372   -11453838.24343  -8879366.86842  23233857.152    23233854.122
  20485613.336   -25187478.53244 -19579908.40742  20485615.297    20485611.778
  23533807.853    -9297453.07543  -7005735.76442  23533811.047    23533809.684
  23562849.476   -11493111.96943  -8921166.70142  23562851.579    23562850.771
  23005856.927    -9833089.59643  -7412573.46742  23005859.218    23005856.429
  21448903.332   -19079875.10144 -14159092.37842  21448905.450    21448901.790
  24412515.821    -3071305.50843  -2361425.34742  24412517.959    24412516.456
  20475189.279   -24246422.17244 -18388909.42342  20475191.547    20475186.578
 03  2 28  1 48 30.0000000  0 10G17G26G15G 9G14G 6G 3G23G16G18
  20873166.298   -21216614.74844 -16323358.26342  20873168.070    20873164.762
  23251862.730   -11359203.51443  -8805625.49042  23251865.470    23251862.389
  20480273.454   -25215539.64044 -19601774.17442  20480275.416    20480271.884
  24466100.276    -6008817.69953  -4677045.96152  24466103.214    24466101.847
  23512854.716    -9407561.47943  -7091534.27242  23512857.896    23512856.523
  23583428.550   -11384968.55843  -8836899.19642  23583430.725    23583429.859
  22991807.503    -9906919.58443  -7470103.27142  22991809.797    22991806.945
  21458228.543   -19030870.67043 -14120907.09742  21458230.667    21458227.009
  24423286.817    -3014703.77243  -2317320.15142  24423288.925    24423287.511
  20476270.631   -24240739.46044 -18384481.31442  20476272.899    20476267.943
 03  2 28  1 49  0.0000000  0 10G17G26G15G 9G14G 6G 3G23G16G18
  20876663.688   -21198235.82044 -16309037.00042  20876665.462    20876662.151
  23269941.956   -11264196.67443  -8731594.17142  23269944.637    23269941.609
  20474984.858   -25243331.24544 -19623429.93542  20474986.842    20474983.282
  24452900.963    -6078180.03743  -4731094.44042  24452903.823    24452902.597
  23491930.455    -9517518.07243  -7177214.49742  23491933.672    23491932.204
  23604036.540   -11276673.53943  -8752513.54942  23604038.690    23604037.755
  22977834.277    -9980349.01343  -7527320.94242  22977836.631    22977833.750
  21467585.674   -18981698.44643 -14082591.06542  21467587.790    21467584.138
  24434106.552    -2957845.89443  -2273015.37142  24434108.686    24434107.285
  20477414.969   -24234725.68344 -18379795.22642  20477417.259    20477412.314
 03  2 28  1 49 30.0000000  0 10G17G26G15G 9G14G 6G 3G23G16G18
  20880217.051   -21179562.74744 -16294486.53542  20880218.814    20880215.492
  23288091.046   -11168822.34043  -8657276.48242  23288093.737    23288090.714
  20469747.487   -25270853.65144 -19644875.93442  20469749.474    20469745.894
  24439738.965    -6147346.24743  -4784990.10142  24439741.782    24439740.591
  23471035.346    -9627322.08943  -7262775.82142  23471038.441    23471036.955
  23624672.550   -11168231.21743  -8668013.13742  23624674.651    23624673.763
  22963937.433   -10053377.21943  -7584225.98342  22963939.779    22963936.856
  21476974.107   -18932361.78843 -14044146.90342  21476976.227    21476972.583
  24444974.163    -2900736.41643  -2228514.54942  24444976.278    24444974.882
  20478621.738   -24228384.05544 -18374853.67842  20478624.016    20478619.057
 03  2 28  1 50  0.0000000  0 10G17G26G15G 9G14G 6G 3G23G16G18
  20883824.153   -21160607.21944 -16279715.97842  20883825.922    20883822.587
  23306307.203   -11073095.87943  -8582684.41342  23306309.836    23306306.868
  20464559.271   -25298117.86944 -19666120.74842  20464561.267    20464557.642
  24426612.623    -6216325.49243  -4838740.06542  24426615.267    24426614.149
  23450167.382    -9736982.94843  -7348225.60742  23450170.424    23450168.940
  23645333.775   -11059656.34843  -8583409.44542  23645335.835    23645334.937
  22950115.056   -10126014.14943  -7640826.12942  22950117.382    22950114.446
  21486391.223   -18882874.39343 -14005585.28942  21486393.342    21486389.698
  24455886.697    -2843390.47443  -2183829.45842  24455888.942    24455887.537
  20479888.380   -24221727.68244 -18369666.86942  20479890.676    20479885.706
 03  2 28  1 50 30.0000000  0 10G17G26G15G 9G14G 6G 3G23G16G18
  20887481.701   -21141386.62144 -16264738.87142  20887483.469    20887480.120
  23324586.267   -10977038.81243  -8507834.73942  23324588.844    23324585.910
  20459416.890   -25325141.08744 -19687177.77442  20459418.912    20459415.251
  24413518.907    -6285133.12043  -4892356.28942  24413521.616    24413520.418
  23429323.624    -9846516.72443  -7433576.35242  23429326.604    23429325.113
  23666016.216   -10950969.81743  -8498718.73342  23666018.325    23666017.365
  22936364.017   -10198276.21043  -7697134.17942  22936366.354    22936363.380
  21495833.228   -18833256.27443 -13966921.80942  21495835.330    21495831.693
  24466840.249    -2785829.63043  -2138976.91642  24466842.387    24466841.015
  20481211.158   -24214776.37244 -18364250.24642  20481213.445    20481208.483
 03  2 28  1 51  0.0000000  0 10G17G26G15G 9G14G 6G 3G23G16G18
  20891192.922   -21121883.91244 -16249541.94042  20891194.685    20891191.352
  23342930.651   -10880638.37643  -8432717.50042  23342933.206    23342930.271
  20454323.655   -25351906.06444 -19708033.57142  20454325.683    20454322.014
  24400461.433    -6353749.90543  -4945823.80842  24400464.324    24400462.980
  23408507.564    -9955904.87743  -7518813.64042  23408510.562    23408508.955
  23686722.439   -10842158.40943  -8413930.71742  23686724.529    23686723.560
  22922687.715   -10270145.38143  -7753136.07942  22922690.064    22922687.017
  21505302.827   -18783493.20543 -13928145.38042  21505304.919    21505301.274
  24477837.205    -2728040.80443  -2093946.72342  24477839.343    24477837.809
  20482592.844   -24207515.60144 -18358592.48642  20482595.122    20482590.120
 03  2 28  1 51 30.0000000  0 10G17G26G15G 9G14G 6G 3G23G16G18
  20894961.381   -21102080.58644 -16234110.75842  20894963.137    20894959.782
  23361343.093   -10783879.76343  -8357321.14842  23361345.814    23361342.679
  20449283.145   -25378393.95344 -19728673.45742  20449285.172    20449281.497
  24387444.374    -6422154.85543  -4999126.25042  24387447.287    24387445.955
  23387723.151   -10065126.78543  -7603921.38242  23387726.131    23387724.424
  23707455.340   -10733206.93843  -8329033.58042  23707457.395    23707456.466
  22909090.027   -10341601.51743  -7808816.12842  22909092.349    22909089.273
  21514803.127   -18733568.81943 -13889243.25142  21514805.244    21514801.558
  24488880.371    -2670009.10943  -2048727.28142  24488882.351    24488880.938
  20484036.585   -24199928.58244 -18352680.50442  20484038.882    20484033.863
 03  2 28  1 52  0.0000000  0 10G17G26G15G 9G14G 6G 3G23G16G18
  20898784.413   -21081990.41544 -16218456.06442  20898786.197    20898782.799
  23379820.473   -10686780.33343  -8281659.24242  23379823.187    23379820.049
  20444292.958   -25404617.56144 -19749107.41142  20444294.951    20444291.270
  24374465.401    -6490358.93443  -5052272.16042  24374468.409    24374467.024
  23366968.105   -10174193.97143  -7688908.57242  23366971.205    23366969.396
  23728211.749   -10624131.84043  -8244040.10542  23728213.861    23728212.804
  22895568.656   -10412656.54443  -7864183.63042  22895570.974    22895567.869
  21524331.133   -18683498.82243 -13850227.65442  21524333.253    21524329.557
  24499966.390    -2611751.53643  -2003331.83042  24499968.542    24499966.955
  20485539.463   -24192030.88644 -18346526.43842  20485541.754    20485536.704
 03  2 28  1 52 30.0000000  0 10G17G26G15G 9G14G 6G 3G23G16G18
  20902659.142   -21061628.49844 -16202589.62042  20902660.921    20902657.546
  23398359.073   -10589359.39143  -8205746.79442  23398361.765    23398358.632
  20439350.165   -25430591.89344 -19769347.12542  20439352.158    20439348.488
  24361522.268    -6558375.17043  -5105271.69942  24361525.209    24361523.869
  23346239.915   -10283120.22143  -7773785.94242  23346243.042    23346241.213
  23748988.031   -10514952.07343  -8158965.07742  23748990.136    23748989.241
  22882120.876   -10483324.62043  -7919249.61142  22882123.212    22882120.115
  21533883.458   -18633301.08343 -13811112.51842  21533885.560    21533881.866
  24511091.752    -2553287.38643  -1957775.40642  24511093.909    24511092.450
  20487098.149   -24183839.96044 -18340143.88142  20487100.419    20487095.360
 03  2 28  1 53  0.0000000  0 10G17G26G15G 9G14G 6G 3G23G16G18
  20906588.684   -21040978.44244 -16186498.65142  20906590.481    20906587.113
  23416961.138   -10491604.82843  -8129574.36742  23416963.884    23416960.719
  20434457.978   -25456300.39744 -19789379.70042  20434459.954    20434456.308
  24348618.355    -6626185.31843  -5158110.62342  24348621.151    24348619.981
  23325542.017   -10391887.52643  -7858539.46942  23325545.151    23325543.262
  23769786.595   -10405654.95643  -8073798.59542  23769788.712    23769787.957
  22868750.074   -10553588.43543  -7974000.57642  22868752.414    22868749.275
  21543462.700   -18582961.82643 -13771887.10842  21543464.804    21543461.104
  24522258.917    -2494604.39043  -1912048.45642  24522260.910    24522259.487
  20488715.292   -24175341.67144 -18333521.81542  20488717.588    20488712.487
 03  2 28  1 53 30.0000000  0 10G17G26G15G 9G14G 6G 3G23G16G18
  20910577.711   -21020015.95844 -16170164.23342  20910579.498    20910576.122
  23435630.702   -10393495.63443  -8053125.63142  23435633.438    23435630.229
  20429621.155   -25481717.93344 -19809185.54342  20429623.118    20429619.506
  24335758.857    -6693761.80543  -5210767.48342  24335761.629    24335760.577
  23304879.403   -10500469.41143  -7943148.51742  23304882.509    23304880.630
  23790611.656   -10296219.09543  -7988524.01642  23790613.716    23790613.107
  22855461.219   -10623421.44443  -8028415.85142  22855463.562    22855460.432
  21553073.135   -18532458.54343 -13732533.88542  21553075.242    21553071.584
  24533471.611    -2435681.49443  -1866134.57742  24533473.592    24533472.209
  20490395.282   -24166513.21944 -18326642.47742  20490397.593    20490392.463
 03  2 28  1 54  0.0000000  0 10G17G26G15G 9G14G 6G 3G23G16G18
  20914621.652   -20998764.82744 -16153604.89042  20914623.428    20914620.064
  23454362.421   -10295059.68543  -7976422.25042  23454365.174    23454361.938
  20424835.288   -25506867.79544 -19828782.81042  20424837.247    20424833.622
  24322939.707    -6761126.14043  -5263259.03142  24322942.640    24322941.561
  23284247.902   -10608887.69743  -8027630.08642  23284250.960    23284249.121
  23811457.960   -10186671.59143  -7903162.44342  23811459.998    23811459.424
  22842250.131   -10692846.15343  -8082512.96942  22842252.418    22842249.265
  21562709.795   -18481817.50143 -13693073.31642  21562711.886    21562708.235
  24544724.751    -2376546.11743  -1820055.13442  24544726.777    24544725.268
  20492133.182   -24157380.34244 -18319525.92442  20492135.499    20492130.367
 03  2 28  1 54 30.0000000  0 10G17G26G15G 9G14G 6G 3G23G16G18
  20918721.103   -20977222.05344 -16136818.29542  20918722.855    20918719.501
  23473156.112   -10196298.24643  -7899465.25542  23473158.809    23473155.582
  20420100.891   -25531747.15744 -19848169.29442  20420102.840    20420099.218
  24310161.957    -6828273.55843  -5315581.53942  24310164.759    24310163.640
  23263648.426   -10717138.00543  -8111980.79342  23263651.477    23263649.563
  23832325.306   -10077013.21843  -7817714.47542  23832327.419    23832326.750
  22829117.418   -10761858.80543  -8136289.01142  22829119.711    22829116.549
  21572372.717   -18431038.36943 -13653505.14442  21572374.804    21572371.178
  24556018.122    -2317199.37343  -1773810.98942  24556020.192    24556018.670
  20493929.102   -24147942.55344 -18312171.77142  20493931.426    20493926.297
 03  2 28  1 55  0.0000000  0 10G17G26G15G 9G14G 6G 3G23G16G18
  20922870.424   -20955416.98844 -16119827.31442  20922872.182    20922868.843
  23492005.372   -10097244.59643  -7822280.55942  23492008.149    23492004.869
  20415412.472   -25556384.83044 -19867367.45442  20415414.418    20415410.808
  24297420.120    -6895231.22343  -5367756.17642  24297423.095    24297421.945
  23243075.677   -10825248.12243  -8196222.25942  23243078.657    23243076.715
  23853207.635    -9967276.66243  -7732205.59342  23853209.719    23853209.099
  22816057.815   -10830487.29543  -8189765.69642  22816060.099    22816056.928
  21582055.880   -18380152.85843 -13613854.08442  21582057.966    21582054.351
  24567345.265    -2257674.69243  -1727428.18742  24567347.328    24567345.842
  20495777.059   -24138231.43544 -18304604.64442  20495779.358    20495774.234
 03  2 28  1 55 30.0000000  0 10G17G26G15G 9G14G 6G 3G23G16G18
  20927076.560   -20933313.48244 -16102603.78642  20927078.320    20927074.977
  23510916.472    -9997866.05743  -7744842.70742  23510919.224    23510915.980
  20410777.073   -25580743.95144 -19886348.56042  20410779.014    20410775.404
  24284722.021    -6961959.80443  -5419752.30242  24284725.021    24284723.835
  23222536.879   -10933179.48543  -8280324.43542  23222539.870    23222537.884
  23874111.118    -9857428.80943  -7646609.99342  23874113.184    23874112.574
  22803078.511   -10898693.73543  -8242913.51142  22803080.813    22803077.630
  21591765.838   -18329126.58943 -13574093.33742  21591767.926    21591764.312
  24578712.524    -2197939.28743  -1680881.18542  24578714.633    24578713.150
  20497683.607   -24128212.26444 -18296797.47342  20497685.906    20497680.785
 03  2 28  1 56  0.0000000  0 10G17G26G15G 9G14G 6G 3G23G16G18
  20931342.353   -20910896.63044 -16085136.09342  20931344.084    20931340.750
  23529891.408    -9898152.12243  -7667143.51942  23529894.221    23529890.848
  20406197.536   -25604809.51944 -19905100.92142  20406199.486    20406195.861
  24272070.749    -7028442.45743  -5471556.81242  24272073.768    24272072.547
  23202035.196   -11040915.82943  -8364274.66242  23202038.231    23202036.130
  23895037.933    -9747458.47343  -7560918.95042  23895040.002    23895039.325
  22790182.537   -10966462.42143  -8295720.22942  22790184.846    22790181.629
  21601504.876   -18277947.48143 -13534213.49742  21601506.978    21601503.349
  24590122.081    -2137982.27743  -1634161.51642  24590124.093    24590122.601
  20499651.144   -24117872.57244 -18288740.54442  20499653.459    20499648.339
 03  2 28  1 56 30.0000000  0 10G17G26G15G 9G14G 6G 3G23G16G18
  20935663.668   -20888187.77144 -16067440.85842  20935665.414    20935662.102
  23548925.336    -9798127.94943  -7589202.55642  23548928.158    23548924.815
  20401669.919   -25628602.18144 -19923640.62742  20401671.883    20401668.233
  24259462.582    -7094698.09243  -5523184.40942  24259465.567    24259464.434
  23181566.936   -11148476.46743  -8448087.99042  23181569.986    23181567.854
  23915983.386    -9637390.24243  -7475151.61642  23915985.422    23915984.718
  22777366.057   -11033813.21943  -8348201.31642  22777368.389    22777365.142
  21611268.544   -18226639.00443 -13494232.84742  21611270.645    21611266.996
  24601568.950    -2077828.46643  -1587288.46742  24601570.987    24601569.565
  20501675.233   -24107235.68644 -18280452.03342  20501677.548    20501672.441
 03  2 28  1 57  0.0000000  0 10G17G26G15G 9G14G 6G 3G23G16G18
  20940042.761   -20865175.40443 -16049509.12442  20940044.489    20940041.176
  23568019.779    -9697785.88243  -7511013.88942  23568022.605    23568019.247
  20397196.447   -25652110.26244 -19941958.58242  20397198.434    20397194.783
  24246900.170    -7160713.24343  -5574624.61542  24246903.032    24246901.914
  23161134.677   -11255848.19043  -8531754.10542  23161137.713    23161135.552
  23936948.941    -9527216.11243  -7389301.77542  23936950.943    23936950.202
  22764631.508   -11100733.48343  -8400346.92342  22764633.866    22764630.565
  21621058.591   -18175192.01043 -13454144.26442  21621060.663    21621057.015
  24613054.779    -2017470.38443  -1540256.27742  24613056.934    24613055.474
  20503757.632   -24096292.39044 -18271924.76042  20503759.937    20503754.862
 03  2 28  1 57 30.0000000  0 10G17G26G15G 9G14G 6G 3G23G16G18
  20944475.553   -20841880.90444 -16031357.55042  20944477.276    20944473.940
  23587169.930    -9597151.25543  -7432597.26642  23587172.684    23587169.269
  20392773.202   -25675354.52744 -19960070.97142  20392775.193    20392771.510
  24234380.058    -7226506.49643  -5625891.94042  24234382.707    24234381.619
  23140734.626   -11363050.69543  -8615288.38042  23140737.641    23140735.409
  23957929.969    -9416960.68843  -7303388.59542  23957932.005    23957931.161
  22751975.168   -11167242.92943  -8452172.42042  22751977.479    22751974.186
  21630870.490   -18123630.01643 -13413966.06742  21630872.596    21630868.918
  24624574.644    -1956933.17843  -1493084.50142  24624576.885    24624575.466
  20505893.919   -24085065.92044 -18263176.83642  20505896.216    20505891.134
 03  2 28  1 58  0.0000000  0 10G17G26G15G 9G14G 6G 3G23G16G18
  20948966.213   -20818282.14044 -16012968.88542  20948967.955    20948964.616
  23606379.230    -9496205.82143  -7353938.46542  23606381.975    23606378.599
  20388404.409   -25698312.42044 -19977960.21242  20388406.427    20388402.733
  24221906.683    -7292053.56543  -5676967.41742  24221909.273    24221908.110
  23120371.414   -11470059.81543  -8698671.96942  23120374.443    23120372.075
  23978929.968    -9306605.17643  -7217397.41642  23978932.066    23978931.201
  22739401.374   -11233318.35343  -8503659.70442  22739403.700    22739400.382
  21640708.067   -18071933.15443 -13373682.78642  21640710.180    21640706.479
  24636132.016    -1896198.43543  -1445758.80842  24636134.318    24636132.922
  20508087.967   -24073535.93244 -18254192.40642  20508090.264    20508085.187
 03  2 28  1 58 30.0000000  0 10G17G26G15G 9G14G 6G 3G23G16G18
  20953516.776   -20794368.79144 -15994335.09242  20953518.500    20953515.158
  23625648.799    -9394943.37743  -7275032.63442  23625651.580    23625648.207
  20384092.136   -25720973.34944 -19995618.05342  20384094.143    20384090.476
  24209482.643    -7357341.96643  -5727841.34842  24209485.220    24209483.997
  23100047.220   -11576863.80643  -8781895.71242  23100050.257    23100047.773
  23999950.286    -9196142.89043  -7131323.04542  23999952.393    23999951.515
  22726912.317   -11298948.52543  -8554800.04342  22726914.633    22726911.324
  21650572.787   -18020093.70943 -13333288.40042  21650574.901    21650571.178
  24647728.258    -1835259.85143  -1398274.27542  24647730.524    24647729.288
  20510341.247   -24061694.72044 -18244965.45942  20510343.546    20510338.456
 03  2 28  1 59  0.0000000  0 10G17G26G15G 9G14G 6G 3G23G16G18
  20958120.424   -20770176.48743 -15975483.93442  20958122.143    20958118.771
  23644971.156    -9293403.59343  -7195910.68642  23644973.909    23644970.653
  20379829.680   -25743372.59144 -20013071.98242  20379831.651    20379828.009
  24197101.203    -7422405.22843  -5778539.83142  24197103.860    24197102.595
  23079755.666   -11683496.50943  -8864985.99542  23079758.667    23079756.124
  24020983.534    -9085612.63943  -7045195.71242  24020985.707    24020984.830
  22714501.472   -11364167.63743  -8605620.08142  22714503.806    22714500.481
  21660457.418   -17968149.57543 -13292812.43842  21660459.514    21660455.816
  24659355.906    -1774156.71043  -1350661.51642  24659358.036    24659356.863
  20512646.598   -24049579.84144 -18235525.26942  20512648.914    20512643.808
 03  2 28  1 59 30.0000000  0 10G17G26G15G 9G14G 6G 3G23G16G18
  20962780.133   -20745689.44243 -15956403.10142  20962781.860    20962778.501
  23664348.627    -9191574.10643  -7116562.98542  23664351.490    23664348.074
  20375620.184   -25765493.57744 -20030309.08542  20375622.120    20375618.500
  24184766.426    -7487224.71643  -5829048.39442  24184769.170    24184767.730
  23059500.064   -11789939.87943  -8947928.74442  23059503.069    23059500.428
  24042032.122    -8975001.85443  -6959005.62642  24042034.361    24042033.472
  22702172.167   -11428958.41843  -8656106.35342  22702174.476    22702171.132
  21670364.594   -17916086.96843 -13252244.15542  21670366.699    21670362.976
  24671017.093    -1712877.01043  -1302911.18142  24671019.263    24671018.151
  20515006.663   -24037177.47244 -18225861.06342  20515008.993    20515003.869
 03  2 28  2  0  0.0000000  0 10G17G26G15G 9G14G 6G 3G23G16G18
  20967496.083   -20720906.89143 -15937092.00442  20967497.804    20967494.456
  23683780.626    -9089458.23543  -7036992.15142  23683783.407    23683780.089
  20371463.913   -25787334.85544 -20047328.23442  20371465.857    20371462.229
  24172478.557    -7551797.20443  -5879364.46342  24172481.331    24172479.818
  23039280.980   -11896191.47143  -9030722.06142  23039283.984    23039281.257
  24063095.571    -8864313.14643  -6872754.82442  24063097.778    24063096.914
  22689924.703   -11493318.94143  -8706257.35642  22689927.033    22689923.673
  21680294.041   -17863907.24843 -13211584.61142  21680296.131    21680292.448
  24682711.384    -1651423.58743  -1255025.48642  24682713.574    24682712.322
  20517421.252   -24024488.71144 -18215973.68942  20517423.583    20517418.414
 03  2 28  2  0 30.0000000  0 10G17G26G15G 9G14G 6G 3G23G16G18
  20972271.756   -20695810.58443 -15917536.42142  20972273.445    20972270.128
  23703269.888    -8987041.44243  -6957186.83442  23703272.602    23703269.323
  20367364.459   -25808877.57444 -20064114.74342  20367366.407    20367362.749
  24160241.696    -7616102.01143  -5929471.99842  24160244.484    24160242.846
  23019102.179   -12002231.13543  -9113350.24242  23019105.132    23019102.428
  24084176.747    -8753531.28443  -6786431.43742  24084178.966    24084178.227
  22677762.897   -11557229.45543  -8756057.71442  22677765.225    22677761.859
  21690248.863   -17811594.13543 -13170821.12942  21690250.977    21690247.261
  24694441.541    -1589781.73543  -1206992.95742  24694443.669    24694442.549
  20519893.464   -24011497.17244 -18205850.39242  20519895.784    20519890.597
 03  2 28  2  1  0.0000000  0  9G17G26G15G 9G14G 6G 3G23G18
  20977104.671   -20670413.34743 -15897746.34142  20977106.347    20977103.028
  23722813.194    -8884340.53843  -6877160.11642  23722815.874    23722812.578
  20363319.369   -25830134.51344 -20080678.56542  20363321.304    20363317.647
  24148053.828    -7680149.83443  -5979379.25742  24148056.544    24148054.793
  22998961.603   -12108069.94043  -9195821.90042  22998964.524    22998961.829
  24105272.533    -8642672.80843  -6700048.36242  24105274.701    24105274.058
  22665684.461   -11620701.90943  -8805516.71842  22665686.778    22665683.393
  21700226.172   -17759162.90543 -13129965.60642  21700228.283    21700224.571
  20522420.440   -23998217.73544 -18195502.75642  20522422.743    20522417.560
 03  2 28  2  1 30.0000000  0  9G17G26G15G 9G14G 6G 3G23G18
  20981994.630   -20644716.46543 -15877722.77642  20981996.290    20981992.961
  23742409.502    -8781360.98243  -6796916.28042  23742412.212    23742408.947
  20359328.522   -25851106.39944 -20097020.26742  20359330.459    20359326.804
  24135914.965    -7743939.43543  -6029085.32642  24135917.682    24135915.978
  22978859.319   -12213707.41243  -9278136.66942  22978862.169    22978859.518
  24126381.977    -8531742.38643  -6613609.20142  24126384.133    24126383.638
  22653689.378   -11683736.54543  -8854634.56942  22653691.662    22653688.282
  21710225.256   -17706617.19543 -13089020.87842  21710227.375    21710223.670
  20525001.509   -23984654.10044 -18184933.66742  20525003.811    20524998.607
 03  2 28  2  2  0.0000000  0  9G17G26G15G 9G14G 6G 3G23G18
  20986942.399   -20618715.60243 -15857462.34242  20986944.095    20986940.719
  23762058.944    -8678102.13343  -6716454.81642  23762061.752    23762058.460
  20355392.807   -25871788.49444 -20113136.15542  20355394.754    20355391.096
  24123826.578    -7807464.27343  -6078585.08842  24123829.302    24123827.449
  22958796.478   -12319137.63843  -9360289.96642  22958799.262    22958796.690
  24147505.363    -8420738.78043  -6527113.03842  24147507.505    24147507.029
  22641778.716   -11746327.61643  -8903406.79042  22641780.947    22641777.554
  21720246.512   -17653954.96143 -13047985.35042  21720248.625    21720244.922
  20527637.105   -23970803.87544 -18174141.26642  20527639.421    20527634.189
 03  2 28  2  2 30.0000000  0  9G17G26G15G 9G14G 6G 3G23G18
  20991947.757   -20592412.23643 -15836966.19642  20991949.471    20991946.064
  23781760.619    -8574569.55843  -6635780.05042  23781763.352    23781759.983
  20351512.096   -25892181.74944 -20129026.97742  20351514.044    20351510.358
  24111788.631    -7870723.55143  -6127877.91242  24111791.272    24111789.380
  22938773.125   -12424360.22743  -9442281.45942  22938775.901    22938773.356
  24168641.677    -8309667.08543  -6440563.82142  24168643.784    24168643.446
  22629952.372   -11808475.39443  -8951833.57642  22629954.622    22629951.183
  21730289.266   -17601179.76643 -13006861.80342  21730291.390    21730287.671
  20530326.544   -23956670.79844 -18163128.45942  20530328.848    20530323.599
 03  2 28  2  3  0.0000000  0  9G17G26G15G 9G14G 6G 3G23G18
  20997010.027   -20565809.61743 -15816236.86142  20997011.782    20997008.362
  23801512.981    -8470770.09043  -6554897.30842  23801515.677    23801512.304
  20347685.835   -25912288.82444 -20144694.79842  20347687.781    20347684.072
  24099801.224    -7933717.82343  -6176964.24842  24099803.818    24099801.875
  22918789.085   -12529376.38343  -9524112.08442  22918791.855    22918789.285
  24189789.707    -8198533.66843  -6353966.49642  24189791.773    24189791.652
  22618210.016   -11870181.96243  -8999916.57242  22618212.253    22618208.777
  21740352.552   -17548296.73943 -12965654.22842  21740354.683    21740350.964
  20533068.833   -23942259.97344 -18151899.22142  20533071.134    20533065.858
 03  2 28  2  3 30.0000000  0  9G17G26G15G 9G14G 6G 3G23G18
  21002131.049   -20538898.42543 -15795267.08242  21002132.807    21002129.399
  23821317.149    -8366698.24443  -6473802.32442  23821319.911    23821316.382
  20343915.876   -25932099.85444 -20160131.93342  20343917.846    20343914.126
  24087866.396    -7996435.46543  -6225835.03042  24087868.932    24087867.029
  22898846.483   -12634174.87643  -9605773.10242  22898849.242    22898846.647
  24210950.756    -8087332.34543  -6267316.26842  24210952.726    24210952.655
  22606553.618   -11931436.60143  -9047647.41642  22606555.887    22606552.375
  21750437.689   -17495298.83843 -12924357.13742  21750439.810    21750436.109
  20535865.417   -23927563.78644 -18140447.62542  20535867.725    20535862.424
 03  2 28  2  4  0.0000000  0  9G17G26G15G 9G14G 6G 3G23G18
  21007308.381   -20511691.28543 -15774066.69342  21007310.127    21007306.737
  23841170.038    -8262370.39143  -6392507.86742  23841172.801    23841169.354
  20340199.998   -25951626.73444 -20175347.65442  20340201.979    20340198.237
  24075982.141    -8058886.56843  -6274498.11542  24075984.827    24075982.899
  22878943.249   -12738766.48643  -9687272.91942  22878946.055    22878943.366
  24232121.707    -7976078.80743  -6180625.35542  24232123.679    24232123.700
  22594981.067   -11992250.54643  -9095034.86542  22594983.334    22594979.837
  21760541.981   -17442200.42343 -12882981.72442  21760544.092    21760540.378
  20538713.576   -23912596.63544 -18128784.88642  20538715.865    20538710.540
 03  2 28  2  4 30.0000000  0  9G17G26G15G 9G14G 6G 3G23G18
  21012547.747   -20484158.01443 -15752612.17242  21012549.503    21012546.129
  23861076.615    -8157760.37243  -6310993.52342  23861079.452    23861075.909
  20336544.000   -25970838.94844 -20190318.18342  20336545.993    20336542.254
  24064154.931    -8121038.75843  -6322928.27942  24064157.536    24064155.536
  22859085.437   -12843119.51843  -9768586.82542  22859088.244    22859085.483
  24253307.666    -7864746.46543  -6093873.02142  24253309.549    24253309.621
  22583498.203   -12052593.00743  -9142054.91442  22583500.508    22583497.036
  21770670.594   -17388974.06243 -12841506.61342  21770672.727    21770668.986
  20541618.558   -23897330.86544 -18116889.45942  20541620.850    20541615.492
 03  2 28  2  5  0.0000000  0  9G17G26G15G 9G14G 6G 3G23G18
  21017844.645   -20456322.55443 -15730922.18142  21017846.394    21017843.028
  23881031.614    -8052896.18343  -6229281.13342  23881034.433    23881030.898
  20332943.372   -25989760.29544 -20205062.06342  20332945.352    20332941.600
  24052380.276    -8182913.87543  -6371142.53442  24052382.992    24052380.951
  22839268.770   -12947256.15243  -9849732.11142  22839271.677    22839268.789
  24274503.374    -7753362.69643  -6007080.62542  24274505.298    24274505.378
  22572100.770   -12112486.74243  -9188725.31642  22572103.048    22572099.568
  21780818.631   -17335645.74543 -12799952.05542  21780820.745    21780816.989
  20544575.381   -23881792.54744 -18104781.65542  20544577.696    20544572.313
 03  2 28  2  5 30.0000000  0  9G17G26G15G 9G14G 6G 3G23G18
  21023201.885   -20428169.83943 -15708984.97542  21023203.654    21023200.282
  23901037.141    -7947766.35043  -6147361.72942  23901039.980    23901036.381
  20329401.071   -26008375.06344 -20219567.05042  20329403.037    20329399.290
  24040661.876    -8244494.31043  -6419127.18142  24040664.596    24040662.488
  22819496.567   -13051159.29343  -9930695.46042  22819499.506    22819496.517
  24295711.153    -7641915.60743  -5920238.89242  24295713.027    24295713.170
  22560791.802   -12171915.33843  -9235033.27042  22560794.077    22560790.631
  21790988.558   -17282202.30343 -12758307.79142  21790990.682    21790986.910
  20547586.604   -23865968.29144 -18092451.04442  20547588.928    20547583.550
 03  2 28  2  6  0.0000000  0  9G17G26G15G 9G14G 6G 3G23G18
  21028620.738   -20399693.47243 -15686795.57242  21028622.509    21028619.112
  23921093.720    -7842368.09943  -6065233.17042  23921096.612    23921092.888
  20325918.515   -26026675.85244 -20233827.37242  20325920.485    20325916.755
  24029001.301    -8305770.98443  -6466875.11942  24029004.007    24029001.870
  22799770.364   -13154820.56943 -10011470.32942  22799773.354    22799770.325
  24316931.612    -7530401.85243  -5833345.20242  24316933.529    24316933.645
  22549572.804   -12230870.97843  -9280972.68442  22549575.113    22549571.710
  21801181.270   -17228639.09543 -12716570.20742  21801183.401    21801179.608
  20550653.109   -23849853.57644 -18079894.09842  20550655.422    20550650.054
 03  2 28  2  6 30.0000000  0  9G17G26G15G 9G14G 6G 3G23G18
  21034095.857   -20370921.56243 -15664375.88442  21034097.613    21034094.168
  23941195.201    -7736733.76443  -5982920.65142  23941198.078    23941194.456
  20322490.328   -26044690.89544 -20247865.03542  20322492.283    20322488.579
  24017393.422    -8366770.05543  -6514406.74042  24017396.102    24017393.953
  22780085.145   -13258266.63343 -10092077.52042  22780088.168    22780085.056
  24338158.690    -7418853.22843  -5746424.33742  24338160.671    24338160.840
  22538438.709   -12289380.82343  -9326564.72242  22538440.982    22538437.607
  21811390.959   -17174986.83543 -12674763.23142  21811393.083    21811389.255
  20553769.039   -23833479.04944 -18067134.69842  20553771.371    20553766.005
 03  2 28  2  7  0.0000000  0  9G17G26G15G 9G14G 6G 3G23G18
  21039631.337   -20341832.43043 -15641709.01442  21039633.071    21039629.609
  23961345.073    -7630845.24843  -5900410.05842  23961347.968    23961344.366
  20319120.861   -26062397.45544 -20261662.31942  20319122.822    20319119.106
  24005842.980    -8427467.28343  -6561703.16742  24005845.811    24005843.451
  22760445.459   -13361473.46443 -10172498.28942  22760448.481    22760445.303
  24359396.073    -7307251.02243  -5659461.72242  24359398.052    24359398.227
  22527393.821   -12347422.00343  -9371791.56742  22527396.038    22527392.717
  21821621.371   -17121225.67143 -12632871.39542  21821623.477    21821619.626
  20556938.277   -23816824.45044 -18054157.06242  20556940.599    20556935.269
 03  2 28  2  7 30.0000000  0  9G17G26G15G 9G14G 6G 3G23G18
  21045225.446   -20312434.93843 -15618801.86242  21045227.200    21045223.723
  23981540.882    -7524715.18943  -5817711.26542  23981543.793    23981540.171
  20315808.503   -26079803.96244 -20275225.80242  20315810.443    20315806.734
  23994348.801    -8487869.23343  -6608769.50242  23994351.609    23994349.222
  22740849.857   -13464448.45643 -10252738.41342  22740852.899    22740849.668
  24380641.288    -7195607.40443  -5572466.85142  24380643.262    24380643.405
  22516436.621   -12405002.33443  -9416659.31242  22516438.829    22516435.485
  21831870.386   -17067366.49943 -12590903.19142  21831872.505    21831868.665
  20560158.744   -23799900.68744 -18040969.69142  20560161.035    20560155.744
 03  2 28  2  8  0.0000000  0  9G17G26G15G 9G14G 6G 3G23G18
  21050877.973   -20282730.51343 -15595655.53342  21050879.721    21050876.262
  24001781.616    -7418348.95743  -5734828.42142  24001784.552    24001780.974
  20312553.029   -26096911.48644 -20288556.31142  20312554.967    20312551.263
  23982911.048    -8547974.94843  -6655605.02842  23982913.853    23982911.325
  22721298.529   -13567191.17643 -10332797.54442  22721301.525    22721298.262
  24401893.512    -7083926.97143  -5485443.26542  24401895.520    24401895.666
  22505567.039   -12462122.09743  -9461168.17442  22505569.286    22505565.928
  21842137.441   -17013412.77143 -12548861.31242  21842139.538    21842135.701
  20563429.723   -23782711.39444 -18027575.41142  20563432.013    20563426.775
 03  2 28  2  8 30.0000000  0  9G17G26G15G 9G14G 6G 3G23G18
  21056587.937   -20252724.14343 -15572273.92042  21056589.678    21056586.262
  24022065.639    -7311755.39543  -5651768.43942  24022068.562    24022064.997
  20309353.591   -26113724.43144 -20301657.27642  20309355.556    20309351.817
  23971529.046    -8607787.10443  -6702211.79242  23971531.893    23971529.408
  22701790.750   -13669704.83143 -10412678.18142  22701793.760    22701790.381
  24423151.192    -6972218.04943  -5398397.50742  24423153.149    24423153.255
  22494784.341   -12518785.29843  -9505321.27442  22494786.614    22494783.226
  21852421.134   -16959371.50843 -12506751.22042  21852423.224    21852419.383
  20566749.938   -23765263.41344 -18013979.55642  20566752.240    20566746.999
 03  2 28  2  9  0.0000000  0  9G17G26G15G 9G14G 6G 3G23G18
  21062356.900   -20222407.84343 -15548650.80842  21062358.633    21062355.243
  24042393.782    -7204930.15943  -5568527.94242  24042396.728    24042393.133
  20306211.895   -26130234.10244 -20314521.92642  20306213.864    20306210.106
  23960204.848    -8667295.30243  -6748581.69642  23960207.741    23960205.321
  22682328.439   -13771979.47043 -10492372.56642  22682331.424    22682328.058
  24444415.133    -6860475.86543  -5311325.80642  24444417.236    24444417.215
  22484090.278   -12574982.92243  -9549111.59442  22484092.546    22484089.106
  21862722.671   -16905236.61743 -12464568.17542  21862724.746    21862720.911
  20570120.489   -23747550.93544 -18000177.59942  20570122.790    20570117.573
 03  2 28  2  9 30.0000000  0  9G17G26G15G 9G14G 6G 3G23G18
  21068188.010   -20191765.15043 -15524773.36842  21068189.751    21068186.362
  24062768.402    -7097860.37343  -5485096.88042  24062771.407    24062767.762
  20303131.157   -26146423.38544 -20327136.92242  20303133.129    20303129.363
  23948942.202    -8726480.63143  -6794700.05542  23948945.073    23948942.550
  22662915.136   -13873996.77043 -10571866.44042  22662918.056    22662914.688
  24465687.953    -6748687.02943  -5224217.77842  24465690.171    24465690.051
  22473488.153   -12630697.27343  -9592525.32842  22473490.454    22473486.973
  21873044.746   -16850993.58243 -12422300.86142  21873046.857    21873043.021
  20573544.242   -23729558.88444 -17986157.79742  20573546.548    20573541.311
 03  2 28  2 10  0.0000000  0  9G17G26G15G 9G14G 6G 3G23G18
  21074079.252   -20160806.64143 -15500649.83542  21074080.959    21074077.570
  24083186.785    -6990560.35543  -5401486.42042  24083189.844    24083186.169
  20300109.503   -26162302.25944 -20339510.04542  20300111.485    20300107.675
  23937739.432    -8785351.33143  -6840573.22442  23937742.299    23937739.708
  22643549.100   -13975765.43843 -10651166.58042  22643551.986    22643548.608
  24486967.072    -6636865.24243  -5137084.08342  24486969.330    24486969.189
  22462976.219   -12685937.76943  -9635569.83342  22462978.529    22462975.013
  21883385.056   -16796654.94343 -12379959.05242  21883387.158    21883383.321
  20577018.806   -23711299.88144 -17971929.98042  20577021.116    20577015.857
 03  2 28  2 10 30.0000000  0  9G17G26G15G 9G14G 6G 3G23G18
  21080034.338   -20129512.49843 -15476264.76942  21080036.055    21080032.635
  24103652.100    -6883014.17843  -5317684.14542  24103655.118    24103651.420
  20297150.784   -26177850.39544 -20351625.44942  20297152.756    20297148.929
  23926600.608    -8843885.27543  -6886184.00342  23926603.360    23926600.961
  22624234.479   -14077263.72943 -10730256.02842  22624237.382    22624233.998
  24508255.606    -6524993.86943  -5049911.74742  24508257.784    24508257.793
  22452558.444   -12740683.47443  -9678228.77942  22452560.732    22452557.230
  21893746.942   -16742202.78243 -12337528.77942  21893749.068    21893745.215
  20580547.517   -23692756.29644 -17957480.40942  20580549.828    20580544.544
 03  2 28  2 11  0.0000000  0  9G17G26G15G 9G14G 6G 3G23G18
  21086049.888   -20097900.43943 -15451631.97342  21086051.614    21086048.173
  24124160.171    -6775243.41243  -5233706.87242  24124163.143    24124159.462
  20294251.704   -26193084.97244 -20363496.52142  20294253.701    20294249.849
  23915523.060    -8902097.98443  -6931544.45642  23915525.800    23915523.441
  22604968.264   -14178507.81143 -10809147.40642  22604971.156    22604967.769
  24529549.548    -6413093.98843  -4962717.17342  24529551.749    24529551.767
  22442231.633   -12794951.17743  -9720515.26342  22442233.882    22442230.390
  21904126.652   -16687656.96343 -12295025.52542  21904128.785    21904124.925
  20584126.644   -23673947.78044 -17942824.39942  20584128.987    20584123.670
 03  2 28  2 11 30.0000000  0  8G17G26G15G 9G14G 3G23G18
  21092123.280   -20065984.35843 -15426762.28242  21092125.029    21092121.570
  24144707.558    -6667265.70843  -5149568.34842  24144710.606    24144706.873
  20291409.730   -26208019.50844 -20375133.79242  20291411.727    20291407.878
  23904504.451    -8960001.02543  -6976663.61542  23904507.135    23904504.724
  22585748.163   -14279509.54443 -10887849.94442  22585751.070    22585747.656
  22431993.307   -12848753.75343  -9762439.30342  22431995.568    22431992.070
  21914521.171   -16633033.34243 -12252461.64742  21914523.316    21914519.419
  20587753.172   -23654890.22544 -17927974.33342  20587755.516    20587750.168
 03  2 28  2 12  0.0000000  0  8G17G26G15G 9G14G 3G23G18
  21098259.078   -20033740.50643 -15401637.18242  21098260.816    21098257.343
  24165298.298    -6559060.46643  -5065252.50942  24165301.356    24165297.614
  20288629.595   -26222629.08944 -20386517.85442  20288631.568    20288627.753
  23893549.823    -9017567.62643  -7021520.61142  23893552.504    23893550.026
  22566579.090   -14380243.08743 -10966343.50442  22566582.004    22566578.587
  22421848.277   -12902066.04743  -9803981.30142  22421850.557    22421847.030
  21924934.723   -16578309.62843 -12209819.77442  21924936.857    21924932.973
  20591431.342   -23635561.20044 -17912912.73242  20591433.678    20591428.344
 03  2 28  2 12 30.0000000  0  8G17G26G15G 9G14G 3G23G18
  21104453.894   -20001186.37843 -15376270.31442  21104455.653    21104452.191
  24185928.214    -6450649.15943  -4980776.11442  24185931.244    24185927.653
  20285908.041   -26236930.79344 -20397662.01242  20285910.028    20285906.213
  23882656.196    -9074813.37243  -7066127.59942  23882658.880    23882656.386
  22547458.088   -14480724.26143 -11044640.41842  22547460.992    22547457.552
  22411793.390   -12954904.74943  -9845154.27542  22411795.680    22411792.112
  21935363.616   -16523505.34243 -12167115.11242  21935365.735    21935361.845
  20595157.448   -23615980.27844 -17897654.84642  20595159.783    20595154.438
 03  2 28  2 13  0.0000000  0  8G17G26G15G 9G14G 3G23G18
  21110708.672   -19968317.41343 -15350658.11042  21110710.414    21110706.952
  24206597.512    -6342030.99343  -4896138.52342  24206600.536    24206596.977
  20283246.137   -26250919.20644 -20408562.04442  20283248.088    20283244.275
  23871825.067    -9131731.30143  -7110479.12942  23871827.729    23871825.241
  22528386.305   -14580946.81643 -11122735.80842  22528389.222    22528385.692
  22401829.720   -13007264.09143  -9885953.72342  22401832.010    22401828.437
  21945808.293   -16468617.94043 -12124345.68742  21945810.433    21945806.555
  20598931.919   -23596145.22144 -17882198.93342  20598934.278    20598928.926
 03  2 28  2 13 30.0000000  0  8G17G26G15G 9G14G 3G23G18
  21117027.464   -19935111.99143 -15324783.74242  21117029.196    21117025.721
  24227309.517    -6233188.29243  -4811325.96042  24227312.544    24227308.953
  20280647.947   -26264572.69644 -20419201.10042  20280649.899    20280646.075
  23861060.921    -9188297.58843  -7154556.66942  23861063.601    23861061.000
  22509368.213   -14680887.42343 -11200611.51342  22509371.134    22509367.517
  22391961.527   -13059121.75743  -9926362.25942  22391963.830    22391960.211
  21956272.516   -16413627.94743 -12081496.31442  21956274.677    21956270.771
  20602758.486   -23576036.34444 -17866529.65442  20602760.844    20602755.487
 03  2 28  2 14  0.0000000  0  8G17G26G15G 9G14G 3G23G18
  21123403.967   -19901603.17843 -15298672.95542  21123405.731    21123402.233
  24248057.335    -6124157.71643  -4726366.99742  24248060.178    24248056.664
  20278107.309   -26277923.82244 -20429604.54842  20278109.266    20278105.409
  23850357.660    -9244542.78343  -7198383.98142  23850360.417    23850357.806
  22490397.880   -14780577.29843 -11278291.83642  22490400.777    22490397.062
  22382182.700   -13110509.82243  -9966404.86742  22382185.007    22382181.338
  21966749.647   -16358570.14843 -12038594.11142  21966751.803    21966747.908
  20606630.571   -23555688.38844 -17850674.08142  20606632.922    20606627.566
 03  2 28  2 14 30.0000000  0  9G17G26G15G 9G14G31G 3G23G18
  21129845.708   -19867751.62943 -15272295.10642  21129847.473    21129843.936
  24268847.720    -6014903.09343  -4641233.44542  24268850.594    24268847.043
  20275631.907   -26290932.07644 -20439740.82142  20275633.855    20275630.012
  23839723.574    -9300425.02243  -7241928.47542  23839726.244    23839723.625
  22471483.127   -14879974.75143 -11355744.30642  22471486.037    22471482.259
  24365931.352
  22372500.979   -13161387.60043 -10006049.85942  22372503.271    22372499.583
  21977246.890   -16303406.65143 -11995609.54642  21977249.024    21977245.180
  20610555.308   -23535063.62244 -17834602.81042  20610557.650    20610552.303
 03  2 28  2 15  0.0000000  0  9G17G26G15G 9G14G31G 3G23G18
  21136345.562   -19833594.53643 -15245679.17142  21136347.350    21136343.801
  24289672.918    -5905465.44543  -4555957.27342  24289675.808    24289672.186
  20273214.748   -26303634.31544 -20449638.64842  20273216.697    20273212.847
  23829151.969    -9355979.12943  -7285217.28242  23829154.629    23829151.968
  22452617.319   -14979115.20743 -11432996.52042  22452620.209    22452616.356
  24349047.744
  22362909.470   -13211791.20343 -10045325.36242  22362911.764    22362908.033
  21987756.816   -16248176.59643 -11952573.11842  21987758.921    21987755.079
  20614525.236   -23514201.40944 -17818346.51642  20614527.579    20614522.215
 03  2 28  2 15 30.0000000  0  9G17G26G15G 9G14G31G 3G23G18
  21142905.963   -19799119.23343 -15218815.27942  21142907.745    21142904.212
  24310534.687    -5795835.84843  -4470531.53142  24310537.557    24310533.902
  20270858.353   -26316017.24044 -20459287.65442  20270860.303    20270856.439
  23818645.517    -9411190.12843  -7328238.73242  23818648.214    23818645.610
  22433803.092   -15077984.29643 -11510037.28142  22433805.995    22433802.102
  24332222.630
  22353410.808   -13261707.19243 -10084220.91342  22353413.063    22353409.302
  21998281.405   -16192869.33543 -11909476.52842  21998283.508    21998279.685
  20618542.427   -23493090.99644 -17801896.82142  20618544.735    20618539.358
 03  2 28  2 16  0.0000000  0  9G17G26G15G 9G14G31G 3G23G18
  21149529.799   -19764310.63543 -15191691.67942  21149531.579    21149528.065
  24331435.075    -5686003.37143  -4384947.69942  24331437.950    24331434.244
  20268565.679   -26328065.35744 -20468675.77242  20268567.602    20268563.730
  23808207.649    -9466041.28343  -7370979.77642  23808210.366    23808207.683
  22415043.662   -15176565.60643 -11586853.79442  22415046.523    22415042.607
  24315459.662    -1538467.53053   -983433.09952  24315461.418    24315451.825
  22344007.807   -13311120.09543 -10122724.44542  22344010.058    22344006.282
  22008823.181   -16137471.77443 -11866309.57242  22008825.288    22008821.482
  20622609.287   -23471719.42644 -17785243.62942  20622611.593    20622606.202
 03  2 28  2 16 30.0000000  0  9G17G26G15G 9G14G31G 3G23G18
  21156216.884   -19729169.77543 -15164309.17342  21156218.657    21156215.118
  24352373.292    -5575971.94243  -4299208.84942  24352376.139    24352372.324
  20266336.729   -26339778.47244 -20477802.84442  20266338.679    20266334.776
  23797838.615    -9520530.68843  -7413438.95942  23797841.312    23797838.526
  22396339.227   -15274857.70443 -11663444.95442  22396342.062    22396338.162
  24298758.811    -1626230.06543  -1051819.47942  24298760.177    24298755.636
  22334700.600   -13360029.49443 -10160835.63542  22334702.853    22334699.069
  22019381.723   -16081986.14243 -11823073.99842  22019383.842    22019380.029
  20626725.419   -23450088.91644 -17768388.66642  20626727.713    20626722.309
 03  2 28  2 17  0.0000000  0  9G17G26G15G 9G14G31G 3G23G18
  21162967.620   -19693694.35443 -15136665.97542  21162969.410    21162965.850
  24373349.168    -5465742.72043  -4213315.85742  24373352.009    24373348.263
  20264172.075   -26351153.60244 -20486666.55342  20264174.041    20264170.119
  23787539.392    -9574653.36943  -7455612.36042  23787542.053    23787539.211
  22377690.629   -15372856.13943 -11739807.28642  22377693.487    22377689.599
  24282120.504    -1713661.68743  -1119947.94842  24282122.197    24282118.220
  22325489.937   -13408431.66643 -10198551.58342  22325492.163    22325488.393
  22029957.175   -16026411.70043 -11779769.21842  22029959.285    22029955.441
  20630890.931   -23428198.86544 -17751331.45942  20630893.227    20630887.813
 03  2 28  2 17 30.0000000  0  9G17G26G15G 9G14G31G 3G23G18
  21169781.169   -19657888.87443 -15108765.58742  21169782.949    21169779.365
  24394361.114    -5355323.86443  -4127275.11942  24394363.998    24394360.247
  20262071.007   -26362194.81144 -20495270.06642  20262072.951    20262069.011
  23777309.492    -9628411.74643  -7497501.91742  23777312.159    23777309.215
  22359097.388   -15470563.90843 -11815943.12142  22359100.188    22359096.343
  24265545.147    -1800765.14743  -1187820.70142  24265546.887    24265543.309
  22316375.086   -13456330.32543 -10235875.18342  22316377.291    22316373.539
  22040548.285   -15970754.93643 -11736400.29242  22040550.413    22040546.550
  20635104.585   -23406055.72344 -17734077.04442  20635106.890    20635101.479
 03  2 28  2 18  0.0000000  0  9G17G26G15G 9G14G31G 3G23G18
  21176653.874   -19621772.42343 -15080622.88042  21176655.650    21176652.087
  24415404.805    -5244738.25043  -4041104.42442  24415407.636    24415404.014
  20260029.983   -26372920.39144 -20503627.63842  20260031.928    20260027.961
  23767145.660    -9681822.64343  -7539120.70542  23767148.351    23767145.340
  22340556.132   -15567998.25443 -11891865.90542  22340558.916    22340555.107
  24249029.019    -1887557.70043  -1255451.18842  24249030.847    24249027.331
  22307352.571   -13503743.71043 -10272820.64442  22307354.793    22307351.063
  22051151.089   -15915036.78243 -11692983.53142  22051153.222    22051149.347
  20639362.399   -23383680.48844 -17716641.77742  20639364.714    20639359.318
 03  2 28  2 18 30.0000000  0  9G17G26G15G 9G14G31G 3G23G18
  21183588.806   -19585329.24443 -15052225.58342  21183590.553    21183586.961
  24436482.418    -5133973.68243  -3954794.27942  24436485.342    24436481.700
  20258052.131   -26383314.09044 -20511726.60442  20258054.061    20258050.079
  23757051.322    -9734868.13243  -7580454.76842  23757054.064    23757051.058
  22322070.258   -15665141.68043 -11967561.99042  22322072.994    22322069.233
  24232575.370    -1974021.80543  -1322825.73442  24232577.289    24232573.881
  22298425.545   -13550655.25743 -10309375.06342  22298427.797    22298424.058
  22061768.237   -15859243.33743 -11649508.10042  22061770.343    22061766.450
  20643667.004   -23361059.39244 -17699014.92942  20643669.321    20643663.936
 03  2 28  2 19  0.0000000  0  8G17G15G 9G14G31G 3G23G18
  21190587.195   -19548552.34243 -15023568.24342  21190588.928    21190585.369
  20256138.796   -26393368.53044 -20519561.20842  20256140.739    20256136.735
  23747028.318    -9787538.69643  -7621496.67542  23747030.988    23747028.050
  22303641.456   -15761985.30843 -12043024.47842  22303644.151    22303640.415
  24216185.976    -2060148.51943  -1389937.38642  24216187.933    24216184.507
  22289595.529   -13597057.18143 -10345532.37442  22289597.782    22289594.034
  22072400.664   -15803369.35443 -11605969.91342  22072402.771    22072398.895
  20648019.399   -23338187.21544 -17681192.43642  20648021.708    20648016.352
 03  2 28  2 19 30.0000000  0  8G17G15G 9G14G31G 3G23G18
  21197647.433   -19511450.54743 -14994657.73942  21197649.112    21197645.572
  20254288.518   -26403091.65744 -20527137.64342  20254290.471    20254286.447
  23737075.419    -9839841.03643  -7662251.65242  23737078.112    23737075.089
  22285268.382   -15858536.02543 -12118258.71242  22285271.072    22285267.315
  24199859.424    -2145944.78143  -1456791.53542  24199861.572    24199858.194
  22280861.004   -13642957.37843 -10381298.73342  22280863.226    22280859.483
  22083046.435   -15747425.30043 -11562377.12442  22083048.560    22083044.664
  20652417.560   -23315074.69344 -17663182.65642  20652419.843    20652414.523
 03  2 28  2 20  0.0000000  0  8G17G15G 9G14G31G 3G23G18
  21204768.831   -19474027.15043 -14965496.63642  21204770.486    21204766.993
  20252500.907   -26412485.47844 -20534457.48442  20252502.854    20252498.820
  23727192.317    -9891775.79843  -7702720.20642  23727195.065    23727192.187
  22266950.828   -15954794.99943 -12193265.61942  22266953.544    22266949.732
  24183595.587    -2231411.34643  -1523388.78742  24183597.742    24183594.328
  22272221.537   -13688357.94843 -10416675.77042  22272223.778    22272220.016
  22093704.753   -15691415.47443 -11518733.08842  22093706.875    22093702.927
  20656860.573   -23291726.29544 -17644989.08042  20656862.870    20656857.558
 03  2 28  2 20 30.0000000  0  8G17G15G 9G14G31G 3G23G18
  21211951.949   -19436279.60543 -14936082.95242  21211953.573    21211950.100
  20250776.408   -26421547.78444 -20541518.99742  20250778.328    20250774.284
  23717380.179    -9943338.58943  -7742898.90042  23717382.940    23717379.988
  22248689.560   -16050758.27643 -12268042.10842  22248692.299    22248688.441
  24167395.185    -2316544.48443  -1589726.20342  24167397.553    24167394.054
  22263677.681   -13733256.18643 -10451661.38242  22263679.917    22263676.152
  22104375.626   -15635339.73643 -11475037.69042  22104377.705    22104373.748
  20661348.552   -23268141.81844 -17626611.54542  20661350.831    20661345.528
 03  2 28  2 21  0.0000000  0  8G17G15G 9G14G31G 3G23G18
  21219198.147   -19398200.68143 -14906411.05242  21219199.743    21219196.249
  20249116.480   -26430270.61844 -20548315.98742  20249118.403    20249114.347
  23707640.648    -9994519.78143  -7782780.24242  23707643.466    23707640.476
  22230486.285   -16146416.79643 -12342581.12542  22230489.082    22230485.182
  24151260.009    -2401335.03043  -1655796.68242  24151262.387    24151258.988
  22255231.065   -13777643.47443 -10486248.85242  22255233.283    22255229.474
  22115060.070   -15579192.46043 -11431286.54742  22115062.155    22115058.182
  20665882.485   -23244315.82444 -17608045.81542  20665884.766    20665879.452
 03  2 28  2 21 30.0000000  0  8G17G15G 9G14G31G 3G23G18
  21226505.796   -19359798.84243 -14876487.52942  21226507.423    21226503.839
  20247519.856   -26438660.88344 -20554853.83242  20247521.780    20247517.692
  23697972.757   -10045324.73743  -7822368.42142  23697975.485    23697972.513
  22212339.882   -16241776.52243 -12416887.31442  22212342.709    22212338.740
  24135189.012    -2485788.60943  -1721604.59542  24135191.335    24135188.062
  22246880.350   -13821526.74543 -10520443.58342  22246882.561    22246878.730
  22125756.397   -15522982.88643 -11387486.86742  22125758.456    22125754.486
  20670460.558   -23220257.81444 -17589299.29542  20670462.844    20670457.514
 03  2 28  2 22  0.0000000  0  8G17G15G 9G14G31G 3G23G18
  21233879.260   -19321051.00943 -14846294.40242  21233880.921    21233877.286
  20245990.959   -26446695.20544 -20561114.32242  20245992.888    20245988.783
  23688381.097   -10095728.69343  -7861644.13142  23688383.896    23688380.810
  22194255.010   -16336812.79243 -12490941.46342  22194257.840    22194253.837
  24119186.775    -2569880.86743  -1787130.95242  24119189.106    24119185.716
  22238629.963   -13864882.66443 -10554227.38742  22238632.177    22238628.332
  22136468.533   -15466690.13343 -11343622.36842  22136470.574    22136466.646
  20675086.770   -23195946.83544 -17570355.65942  20675089.071    20675083.710
 03  2 28  2 22 30.0000000  0  8G17G15G 9G14G31G 3G23G18
  21241316.956   -19281965.61543 -14815838.23442  21241318.604    21241314.990
  20244528.314   -26454381.44744 -20567103.58042  20244530.254    20244526.133
  23678864.529   -10145737.60443  -7900612.02542  23678867.392    23678864.377
  22176230.371   -16431532.36643 -12564748.83142  22176233.227    22176229.211
  24103251.986    -2653618.18643  -1852380.74242  24103254.453    24103251.044
  22230478.426   -13907719.09043 -10587606.38742  22230480.651    22230476.799
  22147194.579   -15410324.24043 -11299700.87842  22147196.635    22147192.714
  20679759.197   -23171393.06044 -17551222.83142  20679761.511    20679756.120
 03  2 28  2 23  0.0000000  0  8G17G15G 9G14G31G 3G23G18
  21248819.561   -19242539.00843 -14785116.19642  21248821.202    21248817.596
  20243132.709   -26461715.36244 -20572818.30242  20243134.661    20243130.544
  23669424.256   -10195345.91843  -7939267.76642  23669427.019    23669424.178
  22158267.031   -16525929.86143 -12638305.22742  22158269.901    22158265.891
  24087385.803    -2736995.21743  -1917349.78542  24087388.245    24087384.858
  22222426.550   -13950031.70843 -10620577.22642  22222428.778    22222424.949
  22157934.910   -15353883.27443 -11255720.88642  22157936.994    22157933.073
  20684478.124   -23146594.86044 -17531899.54042  20684480.447    20684475.031
 03  2 28  2 23 30.0000000  0  8G17G15G 9G14G31G 3G23G18
  21256383.130   -19202792.10343 -14754144.57042  21256384.746    21256381.181
  20241800.347   -26468716.79544 -20578273.94242  20241802.319    20241798.208
  23660056.814   -10244572.05243  -7977625.70742  23660059.443    23660056.583
  22140361.416   -16620024.15643 -12711625.36642  22140364.244    22140360.250
  24071584.665    -2820030.61343  -1982052.62042  24071587.045    24071583.585
  22214470.621   -13991840.15043 -10653155.20242  22214472.871    22214469.064
  22168685.350   -15297389.31543 -11211699.59542  22168687.436    22168683.506
  20689239.362   -23121574.38844 -17512403.05042  20689241.684    20689236.235
 03  2 28  2 24  0.0000000  0  8G17G15G 9G14G31G 3G23G18
  21264013.322   -19162695.10543 -14722900.15042  21264014.940    21264011.382
  20240537.115   -26475355.05144 -20583446.59242  20240539.076    20240534.998
  23650768.190   -10293383.50043  -8015660.51442  23650770.901    23650768.034
  22122519.573   -16713783.29543 -12784684.34442  22122522.369    22122518.389
  24055854.571    -2902692.28743  -2046464.24842  24055857.000    24055853.541
  22206616.494   -14033113.56143 -10685316.26542  22206618.755    22206614.969
  22179451.287   -15240813.83843 -11167614.79442  22179453.415    22179449.447
  20694048.238   -23096303.40844 -17492711.35642  20694050.600    20694045.121
 03  2 28  2 24 30.0000000  0  8G17G15G 9G14G31G 3G23G18
  21271703.368   -19122283.60343 -14691410.65842  21271704.978    21271701.423
  20239336.267   -26481665.38744 -20588363.71542  20239338.229    20239334.166
  23641552.143   -10341813.90043  -8053398.38642  23641554.768    23641551.972
  22104735.020   -16807241.39043 -12857508.74042  22104737.800    22104733.770
  24040189.115    -2985014.52743  -2110611.38042  24040191.574    24040188.126
  22198857.491   -14073887.25443 -10717087.94642  22198859.759    22198855.972
  22190225.567   -15184194.48743 -11123495.79942  22190227.682    22190223.720
  20698897.653   -23070819.65744 -17472853.86542  20698899.989    20698894.515
 03  2 28  2 25  0.0000000  0  8G17G15G 9G14G31G 3G23G18
  21279455.037   -19081548.22643 -14659668.79642  21279456.656    21279453.094
  20238199.767   -26487637.65244 -20593017.40642  20238201.716    20238197.654
  23632410.807   -10389851.67143  -8090830.32142  23632413.386    23632410.472
  22087009.885   -16900387.17443 -12930089.78242  22087012.667    22087008.610
  24024590.455    -3066985.77143  -2174485.02342  24024592.922    24024589.457
  22191195.534   -14114150.91043 -10748462.18842  22191197.823    22191194.042
  22201009.720   -15127523.25543 -11079336.38142  22201011.855    22201007.882
  20703789.001   -23045115.39644 -17452824.54742  20703791.329    20703785.859
 03  2 28  2 25 30.0000000  0  8G17G15G 9G14G31G 3G23G18
  21287274.088   -19040458.62043 -14627650.91242  21287275.726    21287272.191
  20237133.499   -26493240.75044 -20597383.43042  20237135.458    20237131.388
  23623350.472   -10437463.97243  -8127930.72942  23623353.117    23623350.156
  22069350.363   -16993188.33143 -13002402.28142  22069353.179    22069349.015
  24009064.739    -3148573.65543  -2238059.92842  24009067.235    24009063.676
  22183636.669   -14153873.09143 -10779414.51342  22183638.919    22183635.156
  22211809.278   -15070771.19543 -11035113.97942  22211811.400    22211807.420
  20708727.812   -23019161.68344 -17432600.85142  20708730.147    20708724.682
 03  2 28  2 26  0.0000000  0  8G17G15G 9G14G31G 3G23G18
  21295156.628   -18999035.51943 -14595373.15942  21295158.281    21295154.733
  20236133.651   -26498494.92344 -20601477.56842  20236135.589    20236131.529
  23614367.556   -10484669.30443  -8164714.02742  23614370.192    23614367.151
  22051752.856   -17085663.59843 -13074460.84942  22051755.669    22051751.440
  23993608.391    -3229796.93643  -2301350.74142  23993610.884    23993607.314
  22176176.974   -14193073.99743 -10809960.64242  22176179.219    22176175.427
  22222620.015   -15013960.47443 -10990845.86842  22222622.112    22222618.123
  20713709.816   -22992980.95044 -17412200.26042  20713712.142    20713706.680
 03  2 28  2 26 30.0000000  0  8G17G15G 9G14G31G 3G23G18
  21303103.423   -18957274.85543 -14562832.36942  21303105.069    21303101.499
  20235201.187   -26503395.02144 -20605295.80342  20235203.097    20235199.055
  23605463.284   -10531461.17843  -8201175.11442  23605466.011    23605462.896
  22034218.492   -17177807.00943 -13146260.81942  22034221.302    22034217.030
  23978222.643    -3310649.47443  -2364352.67542  23978225.053    23978221.536
  22168817.412   -14231748.79343 -10840096.82142  22168819.650    22168815.826
  22233442.455   -14957088.24243 -10946529.82542  22233444.543    22233440.558
  20718735.538   -22966570.40744 -17391620.59042  20718737.874    20718732.418
 03  2 28  2 27  0.0000000  0  8G17G15G 9G14G31G 3G23G18
  21311115.939   -18915168.86243 -14530022.50742  21311117.576    21311113.996
  20234337.626   -26507932.92144 -20608831.81442  20234339.549    20234335.468
  23596639.483   -10577829.90443  -8237306.49842  23596642.229    23596639.094
  22016749.079   -17269609.20343 -13217794.91642  22016751.892    22016747.535
  23962909.219    -3391121.73443  -2427058.27842  23962911.608    23962908.085
  22161559.533   -14269889.17943 -10869816.57742  22161561.770    22161557.923
  22244277.717   -14900148.52243 -10902161.19142  22244279.819    22244275.804
  20723806.069   -22939924.41144 -17370857.45742  20723808.404    20723802.949
 03  2 28  2 27 30.0000000  0  8G17G15G 9G14G31G 3G23G18
  21319189.589   -18872741.43943 -14496962.17042  21319191.230    21319187.629
  20233538.671   -26512131.33144 -20612103.28842  20233540.594    20233536.499
  23587892.221   -10623796.61443  -8273124.63442  23587895.002    23587891.811
  21999340.462   -17361091.86443 -13289080.02542  21999343.245    21999338.864
  23947664.070    -3471235.33843  -2489484.41542  23947666.441    23947662.930
  22154399.055   -14307517.75643 -10899137.52242  22154401.281    22154397.423
  22255121.101   -14843166.16343 -10857759.33442  22255123.188    22255119.199
  20728916.641   -22913067.98544 -17349930.34942  20728918.964    20728913.520
 03  2 28  2 28  0.0000000  0  8G17G15G 9G14G31G 3G23G18
  21327329.390   -18829966.48943 -14463631.03242  21327331.019    21327327.429
  20232809.385   -26515963.61944 -20615089.47342  20232811.314    20232807.218
  23579226.864   -10669333.20243  -8308607.61042  23579229.619    23579226.369
  21981997.885   -17452227.31943 -13360094.58942  21982000.711    21981996.277
  23932492.480    -3550962.28843  -2551609.24842  23932494.862    23932491.316
  22147340.951   -14344608.01243 -10928038.99942  22147343.197    22147339.345
  22265977.254   -14786116.57643 -10813305.09442  22265979.345    22265975.376
  20734071.934   -22885976.70844 -17328820.24142  20734074.246    20734068.787
 03  2 28  2 28 30.0000000  0  8G17G15G 9G14G31G 3G23G18
  21335535.793   -18786841.33243 -14430027.00142  21335537.464    21335533.852
  20232150.377   -26519426.63544 -20617787.90842  20232152.308    20232148.216
  23570644.250   -10714435.13343  -8343751.89642  23570646.958    23570643.641
  21964722.247   -17543011.12743 -13430835.14142  21964725.051    21964720.599
  23917395.279    -3630298.36943  -2613429.52642  23917397.616    23917394.094
  22140385.879   -14381156.99643 -10956518.69642  22140388.132    22140384.267
  22276846.403   -14728998.82743 -10768797.74042  22276848.487    22276844.508
  20739272.001   -22858650.15244 -17307526.80142  20739274.317    20739268.824
 03  2 28  2 29  0.0000000  0  8G17G15G 9G14G31G 3G23G18
  21343803.537   -18743393.91043 -14396171.85742  21343805.210    21343801.584
  20231556.467   -26522547.70844 -20620219.89542  20231558.373    20231554.294
  23562139.370   -10759128.14643  -8378577.53842  23562142.087    23562138.794
  21947508.478   -17633469.67743 -13501322.24642  21947511.291    21947506.863
  23902367.506    -3709269.83443  -2674965.68442  23902369.855    23902366.275
  22133528.576   -14417192.05743 -10984597.93642  22133530.841    22133526.984
  22287722.869   -14671842.50543 -10724260.31942  22287724.970    22287720.969
  20744511.206   -22831117.82544 -17286073.01742  20744513.525    20744508.014
 03  2 28  2 29 30.0000000  0  8G17G15G 9G14G31G 3G23G18
  21352133.706   -18699618.57043 -14362061.19742  21352135.369    21352131.753
  20231029.019   -26525319.40144 -20622379.63842  20231030.933    20231026.851
  23553714.066   -10803403.36043  -8413077.62542  23553716.785    23553713.378
  21930358.220   -17723594.42943 -13571549.25942  21930361.041    21930356.614
  23887410.769    -3787867.86843  -2736210.84842  23887413.150    23887409.535
  22126770.498   -14452705.73343 -11012270.90242  22126772.770    22126768.913
  22298607.706   -14614642.07143 -10679688.53542  22298609.841    22298605.838
  20749790.587   -22803374.43544 -17264454.77342  20749792.898    20749787.400
 03  2 28  2 30  0.0000000  0  8G17G15G 9G14G31G 3G23G18
  21360527.752   -18655507.61243 -14327689.01742  21360529.414    21360525.773
  20230569.541   -26527733.97944 -20624261.11042  20230571.447    20230567.355
  23545369.975   -10847251.73543  -8447245.11442  23545372.759    23545369.243
  21913273.189   -17813376.54043 -13641509.27742  21913276.007    21913271.602
  23872526.830    -3866083.68643  -2797158.18342  23872529.125    23872525.480
  22120113.115   -14487690.34443 -11039531.61642  22120115.383    22120111.525
  22309502.023   -14557392.09543 -10635078.15042  22309504.145    22309500.112
  20755111.078   -22775414.90644 -17242668.10942  20755113.404    20755107.897
 03  2 28  2 30 30.0000000  0  8G17G15G 9G14G31G 3G23G18
  21368984.084   -18611069.04543 -14293061.55642  21368985.782    21368982.145
  20230176.679   -26529798.32244 -20625869.66842  20230178.593    20230174.501
  23537105.995   -10890678.74343  -8481084.26342  23537108.825    23537105.334
  21896252.271   -17902821.77443 -13711206.79242  21896255.071    21896250.672
  23857714.523    -3943922.94043  -2857812.08742  23857716.755    23857713.104
  22113555.113   -14522152.87943 -11066385.51742  22113557.376    22113553.492
  22320404.057   -14500101.45143 -10590436.06842  22320406.180    22320402.139
  20760471.030   -22747248.21444 -17220720.01942  20760473.332    20760467.829
 03  2 28  2 31  0.0000000  0  8G17G15G 9G14G31G 3G23G18
  21377504.756   -18566292.52543 -14258170.76042  21377506.467    21377502.799
  20229852.603   -26531501.18644 -20627196.55742  20229854.528    20229850.450
  23528924.744   -10933671.56443  -8514585.08842  23528927.541    23528923.967
  21879297.749   -17991918.14943 -13780632.47142  21879300.524    21879296.137
  23842976.181    -4021373.24243  -2918162.91142  23842978.432    23842974.797
  22107098.541   -14556082.34243 -11092824.03442  22107100.812    22107096.902
  22331315.588   -14442760.83543 -10545755.05242  22331317.716    22331313.689
  20765872.054   -22718865.48444 -17198603.58842  20765874.365    20765868.864
 03  2 28  2 31 30.0000000  0  8G17G15G 9G14G31G 3G23G18
  21386095.013   -18521150.58543 -14222995.21542  21386096.713    21386092.975
  20229602.621   -26532814.82744 -20628220.15542  20229604.538    20229600.459
  23520831.635   -10976200.65843  -8547724.56642  23520834.431    23520830.846
  21862415.213   -18080636.23443 -13849763.38042  21862417.986    21862413.583
  23828317.385    -4098405.37543  -2978187.90042  23828319.651    23828316.010
  22100748.743   -14589450.90843 -11118825.48942  22100750.976    22100747.046
  22342241.550   -14385344.28743 -10501014.86442  22342243.705    22342239.698
  20771319.128   -22690240.84344 -17176298.65042  20771321.439    20771315.939
 03  2 28  2 32  0.0000000  0  8G17G15G 9G14G31G 3G23G18
  21394754.520   -18475644.70143 -14187536.08442  21394756.192    21394752.430
  20229426.569   -26533739.84644 -20628940.93142  20229428.497    20229424.405
  23512826.897   -11018265.30843  -8580502.14342  23512829.648    23512826.111
  21845604.712   -18168975.81043 -13918599.35042  21845607.481    21845603.051
  23813738.227    -4175018.94943  -3037886.72742  23813740.542    23813736.896
  22094505.427   -14622259.61643 -11144390.69642  22094507.672    22094503.714
  22353181.444   -14327854.64943 -10456217.72742  22353183.597    22353179.607
  20776811.619   -22661377.52144 -17153807.72742  20776813.928    20776808.429
 03  2 28  2 32 30.0000000  0  8G17G15G 9G14G31G 3G23G18
  21403474.465   -18429820.96343 -14151829.27542  21403476.160    21403472.383
  20229315.915   -26534321.16444 -20629393.88642  20229317.852    20229313.736
  23504902.258   -11059909.32743  -8612951.95042  23504904.976    23504901.535
  21828857.914   -18256980.63343 -13987174.47142  21828860.669    21828856.191
  23799230.412    -4251257.67643  -3097293.47542  23799232.720    23799229.064
  22088360.105   -14654553.36243 -11169554.63042  22088362.354    22088358.390
  22364126.292   -14270339.02543 -10411400.34042  22364128.433    22364124.433
  20782340.556   -22632322.57444 -17131167.48542  20782342.877    20782337.374
 03  2 28  2 33  0.0000000  0  8G17G15G 9G14G31G 3G23G18
  21412261.483   -18383644.63243 -14115847.71542  21412263.184    21412259.448
  20229277.396   -26534523.68644 -20629551.67742  20229279.314    20229275.163
  23497064.678   -11101095.98643  -8645045.38842  23497067.355    23497063.848
  21812181.686   -18344614.58443 -14055460.60142  21812184.428    21812179.934
  23784800.912    -4327085.13543  -3156379.74542  23784803.186    23784799.553
  22082319.376   -14686297.19943 -11194290.06242  22082321.664    22082317.713
  22375082.439   -14212763.98143 -10366536.65042  22375084.557    22375080.599
  20787912.228   -22603043.14744 -17108352.32542  20787914.565    20787909.051
 03  2 28  2 33 30.0000000  0  8G17G15G 9G14G31G 3G23G18
  21421110.823   -18337140.96743 -14079611.09242  21421112.491    21421108.824
  20229306.299   -26534371.78344 -20629433.29142  20229308.211    20229304.034
  23489309.736   -11141848.44343  -8676800.46542  23489312.395    23489308.847
  21795571.551   -18431901.08643 -14123475.99642  21795574.297    21795569.784
  23770445.186    -4402524.67343  -3215163.73542  23770447.411    23770443.863
  22076378.591   -14717516.01143 -11218616.38842  22076380.875    22076376.960
  22386044.856   -14155155.96643 -10321647.27242  22386046.995    22386043.017
  20793521.550   -22573565.95044 -17085383.06142  20793523.881    20793518.353
 03  2 28  2 34  0.0000000  0  8G17G15G 9G14G31G 3G23G18
  21430023.279   -18290305.67643 -14043116.06042  21430024.917    21430021.332
  20229403.566   -26533860.57944 -20629034.93542  20229405.464    20229401.296
  23481638.621   -11182160.26943  -8708212.20742  23481641.241    23481637.679
  21779028.677   -18518834.03043 -14191215.88642  21779031.428    21779026.918
  23756164.452    -4477570.10143  -3273640.63842  23756166.710    23756163.155
  22070538.688   -14748204.70443 -11242529.63342  22070540.957    22070537.040
  22397014.099   -14097512.00943 -10276729.88442  22397016.216    22397012.294
  20799169.000   -22543888.31244 -17062257.60442  20799171.345    20799165.768
 03  2 28  2 34 30.0000000  0  8G17G15G 9G14G31G 3G23G18
  21439001.545   -18243124.67843 -14006351.64542  21439003.174    21438999.592
  20229572.119   -26532974.72744 -20628344.64342  20229574.037    20229569.839
  23474054.594   -11222014.65243  -8739267.48942  23474057.181    23474053.618
  21762556.220   -18605397.10343 -14258667.57142  21762558.962    21762554.463
  23741961.832    -4552204.92343  -3331797.57942  23741964.145    23741960.543
  22064802.538   -14778348.09043 -11266017.95742  22064804.826    22064800.895
  22407992.695   -14039818.93043 -10231774.22442  22407994.798    22407990.892
  20804857.134   -22513996.85144 -17038965.53342  20804859.475    20804853.879
 03  2 28  2 35  0.0000000  0  8G17G15G 9G14G31G 3G23G18
  21448047.382   -18195588.72643 -13969310.64842  21448048.993    21448045.399
  20229813.881   -26531704.22844 -20627354.62342  20229815.787    20229811.598
  23466559.659   -11261400.23543  -8769957.48042  23466562.262    23466558.667
  21746156.274   -18691579.16143 -14325822.35542  21746159.012    21746154.495
  23727839.543    -4626418.08543  -3389625.95842  23727841.856    23727838.182
  22059172.032   -14807936.57243 -11289073.89442  22059174.280    22059170.355
  22418982.184   -13982068.58743 -10186773.94442  22418984.285    22418980.402
  20810587.386   -22483884.01444 -17015500.96542  20810589.734    20810584.118
 03  2 28  2 35 30.0000000  0  8G17G15G 9G14G31G 3G23G18
  21457159.533   -18147704.22043 -13931998.04942  21457161.164    21457157.536
  20230127.737   -26530054.78044 -20626069.32042  20230129.668    20230125.468
  23459153.077   -11300321.49843  -8800285.65442  23459155.754    23459152.156
  21729827.897   -18777385.10543 -14392684.06342  21729830.634    21729826.098
  23713796.544    -4700214.22843  -3447129.37942  23713798.857    23713795.211
  22053645.985   -14836976.17943 -11311702.13642  22053648.215    22053644.281
  22429981.120   -13924268.70343 -10141735.06342  22429983.224    22429979.357
  20816358.281   -22453557.57444 -16991869.95042  20816360.626    20816355.008
 03  2 28  2 36  0.0000000  0  8G17G15G 9G14G31G 3G23G18
  21466335.384   -18099484.79343 -13894424.47742  21466337.051    21466333.401
  20230511.301   -26528039.04244 -20624498.59642  20230513.230    20230509.017
  23451832.849   -11338789.56643  -8830260.70742  23451835.443    23451831.833
  21713568.945   -18862826.36243 -14459261.60042  21713571.672    21713567.109
  23699830.814    -4773604.62343  -3504316.64542  23699833.065    23699829.399
  22048221.900   -14865479.95143 -11333912.84942  22048224.131    22048220.164
  22440986.752   -13866433.62143 -10096668.75242  22440988.852    22440984.983
  20822166.993   -22423032.46944 -16968084.13242  20822169.325    20822163.712
 03  2 28  2 36 30.0000000  0  8G17G15G 9G14G31G 3G23G18
  21475577.290   -18050918.34743 -13856580.50142  21475578.955    21475575.302
  20230966.963   -26525644.38544 -20622632.61142  20230968.894    20230964.689
  23444601.451   -11376790.48143  -8859871.73442  23444604.072    23444600.483
  21697381.979   -18947889.12743 -14525544.21142  21697384.743    21697380.123
  23685944.875    -4846575.48243  -3561177.00242  23685947.172    23685943.436
  22042902.156   -14893435.20643 -11355696.14742  22042904.380    22042900.463
  22452001.208   -13808552.48843 -10051566.56442  22452003.284    22451999.387
  20828015.548   -22392298.08244 -16944135.24742  20828017.869    20828012.244
 03  2 28  2 37  0.0000000  0  8G17G15G 9G14G31G 3G23G18
  21484886.355   -18001998.89543 -13818461.45842  21484888.013    21484884.375
  20231496.020   -26522863.98544 -20620466.04542  20231497.944    20231493.762
  23437460.469   -11414316.17943  -8889112.46042  23437463.135    23437459.447
  21681268.525   -19032565.79743 -14591525.96742  21681271.262    21681266.612
  23672140.256    -4919119.02143  -3617704.36442  23672142.556    23672138.796
  22037687.993   -14920835.81943 -11377047.25242  22037690.186    22037686.293
  22463025.269   -13750620.65643 -10006424.86342  22463027.363    22463023.421
  20833904.792   -22361349.86544 -16920019.73442  20833907.105    20833901.482
 03  2 28  2 37 30.0000000  0  8G17G15G 9G14G31G 3G23G18
  21494255.119   -17952765.85943 -13780098.06642  21494256.745    21494253.127
  20232091.167   -26519736.39744 -20618028.94342  20232093.084    20232088.915
  23430402.807   -11451404.08143  -8918012.05042  23430405.476    23430401.817
  21665221.358   -19116893.96843 -14657236.16642  21665224.082    21665219.430
  23658409.794    -4991272.60343  -3673927.86742  23658412.089    23658408.352
  22032571.924   -14947720.68943 -11397996.47842  22032574.128    22032570.260
  22474051.325   -13692678.45543  -9961275.08142  22474053.403    22474049.445
  20839826.907   -22330228.77544 -16895769.51642  20839829.245    20839823.609
 03  2 28  2 38  0.0000000  0  8G17G15G 9G14G31G 3G23G18
  21503693.029   -17903169.44943 -13741451.51442  21503694.618    21503691.022
  20232762.039   -26516210.89344 -20615281.77642  20232763.952    20232759.773
  23423438.425   -11488001.86943  -8946529.71842  23423441.142    23423437.360
  21649250.367   -19200821.71643 -14722634.35042  21649253.100    21649248.454
  23644763.445    -5062984.22643  -3729806.99942  23644765.730    23644762.008
  22027563.707   -14974038.96143 -11418504.19542  22027565.889    22027562.044
  22485088.650   -13634676.77043  -9916078.95642  22485090.745    22485086.776
  20845791.239   -22298885.90744 -16871346.48342  20845793.569    20845787.943
 03  2 28  2 38 30.0000000  0  8G17G15G 9G14G31G 3G23G18
  21513197.264   -17853224.36343 -13702533.27942  21513198.875    21513195.270
  20233506.076   -26512300.89744 -20612235.00342  20233507.990    20233503.819
  23416564.948   -11524121.87543  -8974675.11142  23416567.620    23416563.836
  21633353.192   -19284361.57943 -14787730.28842  21633355.907    21633351.308
  23631198.860    -5134266.36043  -3785351.46642  23631201.155    23631197.427
  22022660.625   -14999804.68443 -11438581.35242  22022662.805    22022659.009
  22496134.380   -13576631.11443  -9870848.55842  22496136.484    22496132.470
  20851794.781   -22267337.05944 -16846762.95242  20851797.105    20851791.473
 03  2 28  2 39  0.0000000  0  8G17G15G 9G14G31G 3G23G18
  21522767.949   -17802930.18543 -13663343.01642  21522769.552    21522765.952
  20234323.408   -26508005.59944 -20608887.99342  20234325.338    20234321.197
  23409782.861   -11559761.90043  -9002446.47042  23409785.499    23409781.688
  21617530.181   -19367511.65643 -14852522.49542  21617532.915    21617528.309
  23617716.378    -5205117.02543  -3840559.70242  23617718.681    23617714.922
  22017862.791   -15025017.36143 -11458227.56442  22017864.997    22017861.180
  22507188.269   -13518542.49643  -9825584.68442  22507190.350    22507186.337
  20857837.275   -22235583.41544 -16822019.83642  20857839.598    20857833.952
 03  2 28  2 39 30.0000000  0  8G17G15G 9G14G31G 3G23G18
  21532403.429   -17752295.54043 -13623887.45642  21532405.045    21532401.397
  20235212.591   -26503332.83544 -20605246.86342  20235214.518    20235210.383
  23403090.810   -11594928.37343  -9029848.83942  23403093.435    23403089.618
  21601780.082   -19450278.68643 -14917016.22442  21601782.803    21601778.218
  23604314.745    -5275542.81143  -3895436.87842  23604317.116    23604313.245
  22013168.660   -15049685.13643 -11477449.17942  22013170.885    22013167.044
  22518248.529   -13460420.43943  -9780294.75242  22518250.596    22518246.579
  20863916.939   -22203634.62644 -16797124.66342  20863919.242    20863913.596
 03  2 28  2 40  0.0000000  0  8G17G15G 9G14G31G 3G23G18
  21542102.688   -17701325.79143 -13584170.76942  21542104.290    21542100.627
  20236172.689   -26498287.43944 -20601315.36542  20236174.618    20236170.464
  23396488.223   -11629624.87743  -9056885.00342  23396490.818    23396487.022
  21586102.168   -19532666.39543 -14981214.37842  21586104.906    21586100.294
  23590993.357    -5345547.26643  -3949985.74942  23590995.656    23590991.773
  22008577.254   -15073813.23043 -11496250.26642  22008579.488    22008575.614
  22529313.962   -13402271.20543  -9734983.65242  22529316.031    22529311.956
  20870032.398   -22171497.55844 -16772082.77542  20870034.721    20870029.049
 03  2 28  2 40 30.0000000  0  8G17G15G 9G14G31G 3G23G18
  21551866.498   -17650016.56443 -13544189.56842  21551868.121    21551864.448
  20237204.691   -26492864.33444 -20597089.55042  20237206.597    20237202.424
  23389976.279   -11663845.03243  -9083549.98742  23389978.883    23389975.106
  21570497.599   -19614668.70343 -15045112.21742  21570500.370    21570495.697
  23577753.285    -5415124.21043  -4004201.49942  23577755.579    23577751.653
  22004089.459   -15097396.93243 -11514627.15442  22004091.688    22004087.741
  22540385.160   -13344091.55843  -9689648.84542  22540387.247    22540383.160
  20876184.235   -22139169.37144 -16746891.96442  20876186.560    20876180.899
 03  2 28  2 41  0.0000000  0  8G17G15G 9G14G31G 3G23G18
  21561695.589   -17598364.37243 -13503941.11942  21561697.220    21561693.544
  20238309.368   -26487059.14344 -20592566.00642  20238311.279    20238307.072
  23383556.088   -11697583.18443  -9109839.40642  23383558.678    23383554.896
  21554967.410   -19696280.14443 -15108705.49342  21554970.178    21554965.478
  23564595.587    -5484268.25143  -4058079.92042  23564597.870    23564593.967
  21999706.036   -15120432.12043 -11532576.62842  21999708.274    21999704.265
  22551462.656   -13285878.77543  -9644288.22042  22551464.731    22551460.646
  20882372.889   -22106647.81644 -16721550.47242  20882375.188    20882369.528
 03  2 28  2 41 30.0000000  0  8G17G15G 9G14G31G 3G23G18
  21571591.591   -17546360.46543 -13463418.60442  21571593.216    21571589.578
  20239488.704   -26480861.66544 -20587736.78842  20239490.597    20239486.384
  23377229.791   -11730827.95643  -9135744.35942  23377232.386    23377228.616
  21539513.684   -19777489.72743 -15171985.62642  21539516.462    21539511.722
  23551522.404    -5552968.07043  -4111612.20142  23551524.693    23551520.747
  21995428.766   -15142909.31143 -11550091.30642  21995431.012    21995426.952
  22562548.049   -13227624.65443  -9598895.38142  22562550.085    22562546.009
  20888599.883   -22073924.68444 -16696051.90742  20888602.205    20888596.519
 03  2 28  2 42  0.0000000  0  8G17G15G 9G14G31G 3G23G18
  21581558.434   -17493984.43043 -13422606.11442  21581560.068    21581556.451
  20240746.704   -26474250.73044 -20582585.39242  20240748.603    20240744.383
  23371001.576   -11763557.32943  -9161247.70742  23371004.199    23371000.320
  21524140.564   -19858275.64843 -15234935.63542  21524143.347    21524138.607
  23538538.007    -5621201.59343  -4164781.13142  23538540.264    23538536.253
  21991261.597   -15164807.86543 -11567155.08842  21991263.853    21991259.767
  22573644.909   -13169310.03343  -9553455.39442  22573646.941    22573642.909
  20894868.856   -22040980.99344 -16670381.47542  20894871.181    20894865.495
 03  2 28  2 42 30.0000000  0  8G17G15G 9G14G31G 3G23G18
  21591587.520   -17441281.33643 -13381538.77642  21591589.144    21591585.553
  20242074.889   -26467270.94744 -20577146.58242  20242076.815    20242072.563
  23364863.138   -11795814.52443  -9186383.12142  23364865.720    23364861.905
  21508839.825   -19938681.30943 -15297589.33942  21508842.591    21508837.868
  23525633.992    -5689012.27143  -4217620.58442  23525636.256    23525632.239
  21987195.977   -15186172.88743 -11583803.13542  21987198.219    21987194.106
  22584744.546   -13110980.95043  -9508004.14142  22584746.573    22584742.533
  20901170.907   -22007863.39644 -16644575.53242  20901173.232    20901167.562
 03  2 28  2 43  0.0000000  0  8G17G15G 9G14G31G 3G23G18
  21601683.743   -17388225.43943 -13340196.52742  21601685.352    21601681.758
  20243478.432   -26459895.26644 -20571399.28742  20243480.352    20243476.111
  23358820.041   -11827571.01543  -9211128.38642  23358822.614    23358818.660
  21493616.788   -20018678.62743 -15359924.85642  21493619.532    21493614.828
  23512815.875    -5756371.69943  -4270108.41242  23512818.147    23512814.133
  21983236.978   -15206977.49543 -11600014.49542  21983239.205    21983235.105
  22595851.793   -13052611.79843  -9462521.67342  22595853.846    22595849.773
  20907510.842   -21974546.81744 -16618614.54242  20907513.155    20907507.481
 03  2 28  2 43 30.0000000  0  8G17G15G 9G14G31G 3G23G18
  21611845.120   -17334827.09643 -13298587.43342  21611846.734    21611843.127
  20244955.474   -26452133.17244 -20565350.88742  20244957.403    20244953.176
  23352870.574   -11858835.41943  -9235490.20242  23352873.118    23352869.142
  21478469.833   -20098276.27143 -15421948.93542  21478472.559    21478467.862
  23500081.948    -5823288.68043  -4322251.47642  23500084.215    23500080.206
  21979382.614   -15227232.08243 -11615797.26842  21979384.828    21979380.746
  22606964.529   -12994213.91643  -9417016.81442  22606966.591    22606962.498
  20913886.447   -21941042.70044 -16592507.41742  20913888.754    20913883.103
 03  2 28  2 44  0.0000000  0  8G17G15G 9G14G31G 3G23G18
  21622070.979   -17281089.77643 -13256714.20142  21622072.593    21622069.006
  20246505.553   -26443987.54444 -20559003.62542  20246507.439    20246503.228
  23347014.408   -11889609.36443  -9259469.83142  23347016.944    23347012.982
  21463398.655   -20177475.82243 -15483662.81142  21463401.352    21463396.636
  23487431.974    -5889764.60443  -4374050.85142  23487434.205    23487430.303
  21975632.373   -15246939.73343 -11631153.85342  21975634.555    21975630.498
  22618081.892   -12935791.64943  -9371492.95342  22618083.972    22618079.859
  20920296.815   -21907355.76544 -16566257.83842  20920299.142    20920293.502
 03  2 28  2 44 30.0000000  0  8G17G15G 9G14G31G 3G23G18
  21632363.158   -17227004.12943 -13214569.56042  21632364.735    21632361.146
  20248130.498   -26435448.27644 -20552349.63242  20248132.397    20248128.194
  23341253.808   -11919881.16343  -9283058.20142  23341256.341    23341252.326
  21448405.339   -20256266.02143 -15545057.71342  21448408.043    21448403.286
  23474868.082    -5955788.21543  -4425497.78142  23474870.223    23474866.370
  21971988.034   -15266090.78543 -11646076.73142  21971990.194    21971986.162
  22629205.524   -12877336.41543  -9325943.40542  22629207.638    22629203.518
  20926743.545   -21873477.78044 -16539859.38842  20926745.883    20926740.257
 03  2 28  2 45  0.0000000  0  8G17G15G 9G14G31G 3G23G18
  21642721.764   -17172569.33643 -13172152.84642  21642723.332    21642719.736
  20249830.706   -26426513.66244 -20545387.58142  20249832.582    20249828.375
  23335589.301   -11949648.19043  -9306253.22042  23335591.884    23335587.841
  21433490.394   -20334644.49043 -15606131.78642  21433493.078    21433488.265
  23462390.731    -6021356.82143  -4476590.16042  23462392.934    23462388.989
  21968449.857   -15284683.95443 -11660564.89842  21968452.020    21968447.969
  22640335.496   -12818848.09043  -9280368.07142  22640337.592    22640333.447
  20933226.596   -21839409.08844 -16513312.33942  20933228.931    20933223.299
 03  2 28  2 45 30.0000000  0  8G17G15G 9G14G31G 3G23G18
  21653147.887   -17117779.61743 -13129459.58042  21653149.475    21653145.896
  20251607.418   -26417176.90644 -20538112.17242  20251609.301    20251605.084
  23330022.338   -11978902.63743  -9329048.83242  23330024.946    23330020.946
  21418655.275   -20412603.38943 -15666878.92242  21418657.955    21418653.099
  23450001.448    -6086462.65643  -4527321.93042  23450003.644    23449999.679
  21965019.005   -15302713.12643 -11674613.58542  21965021.170    21965017.097
  22651472.689   -12760321.63643  -9234763.02242  22651474.786    22651470.672
  20939746.885   -21805144.74344 -16486612.83442  20939749.213    20939743.560
 03  2 28  2 46  0.0000000  0  8G17G15G 9G14G31G 3G23G18
  21663638.039   -17062653.62643 -13086504.27942  21663639.588    21663636.062
  20253457.328   -26407455.48044 -20530537.01942  20253459.214    20253454.982
  23324549.727   -12007661.26543  -9351458.10042  23324552.407    23324548.315
  21403896.711   -20490159.82943 -15727312.45342  21403899.393    21403894.515
  23437697.037    -6151122.40443  -4577706.10042  23437699.236    23437695.272
  21961691.942   -15320196.90543 -11688237.29042  21961694.086    21961690.006
  22662613.462   -12701776.43743  -9189143.37142  22662615.562    22662611.442
  20946300.620   -21770704.57644 -16459776.32542  20946302.959    20946297.285
 03  2 28  2 46 30.0000000  0  8G17G15G 9G14G31G 3G23G18
  21674197.090   -17007165.47343 -13043266.77542  21674198.616    21674195.145
  20255385.455   -26397322.93644 -20522641.51342  20255387.353    20255383.106
  23319176.731   -12035896.04043  -9373459.16042  23319179.432    23319175.401
  21389220.021   -20567286.00143 -15787410.70742  21389222.722    21389217.816
  23425482.800    -6215308.27143  -4627721.02842  23425485.017    23425481.071
  21958473.613   -15337109.04643 -11701415.56342  21958475.784    21958471.699
  22673762.595   -12643187.19743  -9143489.40142  22673764.712    22673760.616
  20952892.560   -21736063.68744 -16432783.40942  20952894.894    20952889.211
 03  2 28  2 47  0.0000000  0  8G17G15G 9G14G31G 3G23G18
  21684819.910   -16951342.10543 -12999768.06042  21684821.456    21684818.000
  20257386.860   -26386805.43044 -20514446.04042  20257388.755    20257384.503
  23313898.741   -12063631.77443  -9395071.35242  23313901.465    23313897.408
  21374620.472   -20644006.89943 -15847193.16542  21374623.164    21374618.261
  23413353.974    -6279045.21743  -4677386.13542  23413356.254    23413352.271
  21955359.069   -15353476.13843 -11714169.11842  21955361.189    21955357.130
  22684914.879   -12584581.52243  -9097822.62642  22684916.975    22684912.891
  20959517.328   -21701250.16144 -16405655.96942  20959519.687    20959513.984
 03  2 28  2 47 30.0000000  0  8G17G15G 9G14G31G 3G23G18
  21695507.888   -16895176.33643 -12956002.53242  21695509.422    21695506.046
  20259463.029   -26375895.00544 -20505944.39142  20259464.943    20259460.671
  23308717.399   -12090859.66743  -9416287.82542  23308720.117    23308716.103
  21360099.694   -20720313.88444 -15906653.09342  21360102.416    21360097.500
  23401312.297    -6342324.37743  -4726694.52242  23401314.595    23401310.612
  21952349.589   -15369290.84543 -11726492.25142  21952351.741    21952347.669
  22696071.469   -12525953.16843  -9052138.18142  22696073.569    22696069.503
  20966176.130   -21666257.92844 -16378389.27842  20966178.475    20966172.756
 03  2 28  2 48  0.0000000  0  8G17G15G 9G14G31G 3G23G18
  21706261.793   -16838664.23443 -12911967.14642  21706263.328    21706259.954
  20261614.932   -26364586.56244 -20497132.60242  20261616.861    20261612.591
  23303633.902   -12117573.50343  -9437103.73742  23303636.552    23303632.627
  21345658.831   -20796200.96443 -15965785.82742  21345661.575    21345656.632
  23389358.879    -6405139.82343  -4775641.56742  23389361.190    23389357.186
  21949446.061   -15384548.89943 -11738381.62542  21949448.226    21949444.112
  22707233.008   -12467298.64343  -9006433.33842  22707235.136    22707231.095
  20972869.502   -21631084.03244 -16350981.03242  20972871.831    20972866.109
 03  2 28  2 48 30.0000000  0  8G17G15G 9G14G31G 3G23G18
  21717083.596   -16781795.43443 -12867653.80842  21717085.155    21717081.733
  20263844.765   -26352868.67044 -20488001.76742  20263846.683    20263842.437
  23298650.612   -12143760.89943  -9457509.42342  23298653.250    23298649.255
  21331300.308   -20871655.40644 -16024581.44442  21331303.050    21331298.102
  23377496.164    -6467478.74043  -4824217.30342  23377498.495    23377494.444
  21946650.604   -15399239.22243 -11749828.61542  21946652.752    21946648.627
  22718401.511   -12408607.76243  -8960700.17742  22718403.629    22718399.559
  20979599.326   -21595718.64844 -16323423.57342  20979601.647    20979595.910
 03  2 28  2 49  0.0000000  0  8G17G15G 9G14G31G 3G23G18
  21727970.031   -16724586.91943 -12823075.76542  21727971.598    21727968.183
  20266149.326   -26340758.12544 -20478564.96342  20266151.226    20266146.981
  23293764.453   -12169437.48543  -9477517.08642  23293767.080    23293763.026
  21317020.998   -20946693.42044 -16083052.56742  21317023.761    21317018.802
  23365721.139    -6529356.92943  -4872434.03142  23365723.421    23365719.400
  21943959.866   -15413379.30643 -11760846.84442  21943961.989    21943957.823
  22729573.464   -12349898.73643  -8914952.87042  22729575.567    22729571.470
  20986362.042   -21560180.33544 -16295731.36542  20986364.356    20986358.622
 03  2 28  2 49 30.0000000  0  8G17G15G 9G14G31G 3G23G18
  21738926.235   -16667011.72843 -12778212.00042  21738927.821    21738924.384
  20268533.951   -26328226.74744 -20468800.23642  20268535.853    20268531.615
  23288981.096   -12194574.28943  -9497104.14742  23288983.746    23288979.639
  21302826.452   -21021286.08743 -16141176.66842  21302829.219    21302824.256
  23354039.258    -6590745.37543  -4920269.12342  23354041.585    23354037.562
  21941378.943   -15426941.84743 -11771415.03842  21941381.133    21941376.966
  22740753.909   -12291145.08143  -8869170.78642  22740756.008    22740751.917
  20993162.682   -21524442.72644 -16267883.85942  20993165.002    20993159.226
 03  2 28  2 50  0.0000000  0  8G17G15G 9G14G31G 3G23G18
  21749949.169   -16609085.63043 -12733074.79542  21749950.767    21749947.361
  20270995.889   -26315289.03944 -20458718.88742  20270997.808    20270993.562
  23284297.879   -12219184.51543  -9516280.87742  23284300.556    23284296.378
  21288714.121   -21095446.82144 -16198964.19442  21288716.848    21288711.882
  23342448.013    -6651657.44443  -4967733.02642  23342450.360    23342446.340
  21938905.082   -15439941.97643 -11781544.98742  21938907.286    21938903.111
  22751939.859   -12232362.53443  -8823366.20142  22751941.941    22751937.861
  20999998.099   -21488522.29044 -16239893.89142  21000000.412    20999994.632
 03  2 28  2 50 30.0000000  0  8G17G15G 9G14G31G 3G23G18
  21761036.057   -16550823.35143 -12687675.62242  21761037.664    21761034.313
  20273532.425   -26301959.33844 -20448332.09042  20273534.361    20273530.090
  23279712.383   -12243281.19443  -9535057.46842  23279715.093    23279710.880
  21274681.443   -21169188.70643 -16256425.34942  21274684.185    21274679.213
  23330945.007    -6712106.10443  -5014835.83742  23330947.330    23330943.326
  21936535.448   -15452394.51643 -11791248.24142  21936537.628    21936533.454
  22763128.373   -12173566.63643  -8777551.20342  22763130.436    22763126.302
  21006865.285   -21452434.89644 -16211773.82842  21006867.605    21006861.784
 03  2 28  2 51  0.0000000  0  8G17G15G 9G14G31G 3G23G18
  21772186.685   -16492226.41043 -12642015.67942  21772188.284    21772184.960
  20276143.555   -26288237.76844 -20437639.94642  20276145.466    20276141.216
  23275224.647   -12266863.83143  -9553433.47142  23275227.380    23275223.217
  21260728.560   -21242511.40244 -16313559.86242  21260731.268    21260726.337
  23319530.285    -6772090.91943  -5061577.19142  23319532.570    23319528.604
  21934269.757   -15464300.63543 -11800525.71842  21934271.971    21934267.780
  22774319.078   -12114759.15843  -8731727.18642  22774321.144    22774316.984
  21013763.769   -21416182.91544 -16183525.51342  21013766.088    21013760.263
 03  2 28  2 51 30.0000000  0  8G17G15G 9G14G31G 3G23G18
  21783402.427   -16433287.43543 -12596089.21542  21783404.002    21783400.667
  20278830.709   -26274116.73044 -20426636.52842  20278832.610    20278828.351
  23270836.386   -12289923.64643  -9571402.10642  23270839.090    23270834.990
  21246857.065   -21315406.27743 -16370361.00542  21246859.768    21246854.844
  23308205.430    -6831603.11943  -5107950.28442  23308207.757    23308203.787
  21932109.400   -15475653.40943 -11809372.01542  21932111.597    21932107.392
  22785513.159   -12055933.68243  -8685889.13942  22785515.255    22785511.093
  21020694.804   -21379760.02244 -16155144.02542  21020697.124    21020691.274
 03  2 28  2 52  0.0000000  0  8G17G15G 9G14G31G 3G23G18
  21794684.862   -16373997.88043 -12549889.56442  21794686.449    21794683.107
  20281595.702   -26259586.53944 -20415314.28742  20281597.594    20281593.341
  23266549.664   -12312450.17643  -9588955.19942  23266552.301    23266548.329
  21233068.986   -21387862.89044 -16426820.65142  21233071.683    21233066.771
  23296972.543    -6890632.05043  -5153946.80342  23296974.905    23296970.958
  21930056.066   -15486443.76343 -11817780.06742  21930058.271    21930054.055
  22796712.240   -11997082.06143  -8640030.71842  22796714.338    22796710.175
  21027659.783   -21343158.67944 -16126623.48342  21027662.093    21027656.247
 03  2 28  2 52 30.0000000  0  8G17G15G 9G14G31G 3G23G18
  21806035.141   -16314351.83943 -12503412.14142  21806036.727    21806033.372
  20284439.878   -26244640.26244 -20403667.82242  20284441.759    20284437.520
  23262365.876   -12334435.45943  -9606086.52642  23262368.503    23262364.603
  21219365.810   -21459873.26244 -16482932.57142  21219368.516    21219363.601
  23285833.166    -6949169.88143  -5199560.65542  23285835.521    23285831.554
  21928110.921   -15496665.45243 -11825745.00342  21928113.115    21928108.902
  22807917.342   -11938198.64143  -8594147.52042  22807919.440    22807915.321
  21034659.790   -21306373.33244 -16097959.56242  21034662.099    21034656.255
 03  2 28  2 53  0.0000000  0  8G17G15G 9G14G31G 3G23G18
  21817452.272   -16254354.49743 -12456660.97342  21817453.905    21817450.499
  20287362.378   -26229282.30344 -20391700.56842  20287364.271    20287360.018
  23258284.525   -12355882.82043  -9622798.70042  23258287.137    23258283.256
  21205746.848   -21531441.17244 -16538699.72142  21205749.563    21205744.632
  23274786.611    -7007219.87443  -5244794.36842  23274788.922    23274784.914
  21926273.019   -15506323.72643 -11833270.91642  21926275.189    21926270.985
  22819127.460   -11879289.00643  -8548243.89142  22819129.546    22819125.478
  21041693.619   -21269410.31844 -16069157.19642  21041695.906    21041690.075
 03  2 28  2 53 30.0000000  0  8G17G15G 9G14G31G 3G23G18
  21828932.917   -16194023.39543 -12409649.73742  21828934.555    21828931.124
  20290360.063   -26213529.33544 -20379425.51442  20290361.971    20290357.699
  23254302.490   -12376808.17443  -9639104.12842  23254305.125    23254301.325
  21192209.157   -21602582.13944 -16594134.18642  21192211.874    21192206.900
  23263829.876    -7064797.73843  -5289660.19542  23263832.211    23263828.139
  21924538.954   -15515436.02143 -11840371.39042  21924541.168    21924536.969
  22830339.135   -11820371.06743  -8502333.79842  22830341.220    22830337.192
  21048757.785   -21232287.77444 -16040230.51842  21048760.098    21048754.260
 03  2 28  2 54  0.0000000  0  8G17G15G 9G14G31G 3G23G18
  21840481.268   -16133336.52643 -12362361.28042  21840482.931    21840479.443
  20293437.331   -26197358.26744 -20366824.67342  20293439.213    20293434.944
  23250424.310   -12397187.50943  -9654984.07842  23250426.984    23250423.156
  21178757.207   -21673272.38544 -16649217.44042  21178759.941    21178754.927
  23252967.566    -7121879.45543  -5334139.40442  23252969.874    23252965.782
  21922913.040   -15523980.13343 -11847029.12042  21922915.240    21922911.067
  22841556.524   -11761423.13843  -8456400.33542  22841558.583    22841554.629
  21055856.339   -21194984.47444 -16011162.99442  21055858.673    21055852.804
 03  2 28  2 54 30.0000000  0  8G17G15G 9G14G31G 3G23G18
  21852096.118   -16072300.21243 -12314800.52042  21852097.764    21852094.269
  20296593.123   -26180774.37444 -20353902.14742  20296595.035    20296590.747
  23246649.214   -12417025.38443  -9670442.11742  23246651.933    23246648.033
  21165390.229   -21743516.23444 -16703952.85342  21165392.943    21165387.906
  23242198.817    -7178469.43343  -5378235.44842  23242201.092    23242196.918
  21921394.048   -15531962.26043 -11853248.93742  21921396.237    21921392.097
  22852778.343   -11702451.96943  -8410448.75942  22852780.415    22852776.472
  21062987.977   -21157507.41544 -15981960.07542  21062990.301    21062984.423
 03  2 28  2 55  0.0000000  0  8G17G15G 9G14G31G 3G23G18
  21863774.826   -16010928.15643 -12266978.14542  21863776.483    21863772.949
  20299824.983   -26163790.77044 -20340668.15642  20299826.886    20299822.631
  23242974.949   -12436333.69343  -9685487.50442  23242977.615    23242973.737
  21152105.820   -21813325.93644 -16758349.97142  21152108.538    21152103.504
  23231521.374    -7234579.67743  -5421957.67642  23231523.647    23231519.480
  21919979.422   -15539395.98443 -11859041.43342  21919981.617    21919977.488
  22864001.914   -11643471.57043  -8364489.99742  22864003.973    22864000.054
  21070149.884   -21119871.29244 -15952633.20642  21070152.207    21070146.316
 03  2 28  2 55 30.0000000  0  8G17G15G 9G14G31G 3G23G18
  21875519.101   -15949211.47443 -12218887.23242  21875520.773    21875517.233
  20303134.769   -26146397.60344 -20327115.02642  20303136.673    20303132.428
  23239403.628   -12455101.62843  -9700111.83242  23239406.178    23239402.212
  21138906.098   -21882690.78244 -16812400.44842  21138908.810    21138903.757
  23220937.181    -7290199.34943  -5465297.64142  23220939.526    23220935.346
  21918670.896   -15546272.34843 -11864399.61742  21918673.071    21918668.943
  22875228.863   -11584473.36843  -8318517.36142  22875230.943    22875227.055
  21077343.623   -21082067.76044 -15923175.89142  21077345.961    21077340.075
 03  2 28  2 56  0.0000000  0  8G17G15G 9G14G31G 3G23G18
  21887331.364   -15887137.67443 -12170518.04842  21887333.000    21887329.479
  20306525.043   -26128581.48944 -20313232.33042  20306526.958    20306522.701
  23235937.746   -12473315.09443  -9714304.09342  23235940.284    23235936.199
  21125793.689   -21951596.78144 -16866093.38142  21125796.377    21125791.334
  23210449.103    -7345314.35243  -5508244.35942  23210451.400    23210447.252
  21917470.735   -15552579.01743 -11869313.88842  21917472.939    21917468.818
  22886461.524   -11525445.31243  -8272521.46842  22886463.597    22886459.744
  21084571.440   -21044085.18544 -15893579.06642  21084573.780    21084567.920
 03  2 28  2 56 30.0000000  0  8G17G15G 9G14G31G 3G23G18
  21899210.722   -15824711.21343 -12121874.05842  21899212.356    21899208.853
  20309995.175   -26110345.72644 -20299022.63242  20309997.094    20309992.834
  23232576.897   -12490976.29143  -9728066.02142  23232579.479    23232575.399
  21112768.167   -22020046.11344 -16919430.46942  21112770.867    21112765.822
  23200056.677    -7399926.75943  -5550799.43742  23200058.970    23200054.755
  21916378.261   -15558320.01143 -11873787.37342  21916380.464    21916376.325
  22897699.074   -11466391.76443  -8226505.71042  22897701.133    22897697.217
  21091832.436   -21005928.30244 -15863846.41142  21091834.773    21091828.923
 03  2 28  2 57  0.0000000  0  8G17G15G 9G14G31G 3G23G18
  21911152.937   -15761954.62443 -12072972.83442  21911154.531    21911151.058
  20313541.024   -26091712.10644 -20284502.91342  20313542.942    20313538.664
  23229317.219   -12508106.18143  -9741413.93142  23229319.828    23229315.652
  21099825.577   -22088059.69444 -16972428.01342  21099828.266    21099823.198
  23189755.916    -7454057.48443  -5592979.18942  23189758.199    23189754.034
  21915389.112   -15563518.06643 -11877837.79142  21915391.306    21915387.143
  22908937.066   -11407335.68943  -8180487.98742  22908939.130    22908935.172
  21099122.116   -20967620.61144 -15833996.24742  21099124.473    21099118.620
 03  2 28  2 57 30.0000000  0  8G17G15G 9G14G31G 3G23G18
  21923163.564   -15698838.18243 -12023791.19842  21923165.165    21923161.740
  20317168.332   -26072650.45744 -20269649.66742  20317170.229    20317165.960
  23226164.489   -12524673.72643  -9754323.66942  23226167.077    23226162.897
  21086971.774   -22155606.62044 -17025061.92942  21086974.467    21086969.376
  23179552.805    -7507675.31343  -5634759.27242  23179554.990    23179550.913
  21914508.896   -15568143.73143 -11881442.19442  21914511.081    21914506.883
  22920181.157   -11348247.86843  -8134445.52942  22920183.210    22920179.229
  21106446.013   -20929133.21044 -15804006.04642  21106448.353    21106442.519
 03  2 28  2 58  0.0000000  0  8G17G15G 9G14G31G 3G23G18
  21935239.043   -15635381.11443 -11974344.13442  21935240.616    21935237.240
  20320873.606   -26053179.13644 -20254477.19542  20320875.489    20320871.219
  23223115.442   -12540696.65743  -9766809.02542  23223117.959    23223113.762
  21074203.427   -22222704.63844 -17077346.04642  21074206.110    21074200.966
  23169443.837    -7560797.87743  -5676153.42742  23169446.085    23169441.973
  21913733.879   -15572216.53543 -11884615.79542  21913736.052    21913731.836
  22931427.441   -11289148.03543  -8088393.70142  22931429.490    22931425.531
  21113800.226   -20890486.45844 -15773891.67442  21113802.578    21113796.745
 03  2 28  2 58 30.0000000  0  8G17G15G 9G14G31G 3G23G18
  21947378.259   -15571589.08943 -11924636.07542  21947379.862    21947376.456
  20324656.092   -26033302.02144 -20238988.51942  20324657.952    20324653.708
  23220169.438   -12556177.87943  -9778872.27342  23220171.989    23220167.722
  21061519.950   -22289356.53644 -17129282.54142  21061522.625    21061517.464
  23159428.600    -7613428.08443  -5717163.94842  23159430.827    23159426.688
  21913063.179   -15575741.11143 -11887362.20942  21913065.347    21913061.123
  22942675.118   -11230040.96843  -8042336.24842  22942677.189    22942673.235
  21121183.788   -20851685.51044 -15743657.15042  21121186.148    21121180.327
 03  2 28  2 59  0.0000000  0  8G17G15G 9G14G31G 3G23G18
  21959585.733   -15507438.60743 -11874648.69842  21959587.308    21959583.888
  20328520.357   -26012995.14144 -20223164.96242  20328522.229    20328517.963
  23217331.230   -12571092.80643  -9790494.25342  23217333.743    23217329.429
  21048926.064   -22355537.65344 -17180852.19542  21048928.743    21048923.568
  23149511.784    -7665541.05843  -5757771.41542  23149514.021    23149509.880
  21912501.174   -15578694.43343 -11889663.49142  21912503.349    21912499.105
  22953928.490   -11170904.06143  -7996255.53442  22953930.572    22953926.637
  21128600.945   -20812708.02244 -15713285.06142  21128603.294    21128597.474
 03  2 28  2 59 30.0000000  0  8G17G15G 9G14G31G 3G23G18
  21971855.418   -15442961.11243 -11824406.50242  21971856.978    21971853.527
  20332460.551   -25992289.10944 -20207030.37542  20332462.448    20332458.175
  23214595.076   -12585471.18743  -9801698.14742  23214597.534    23214593.198
  21036416.113   -22421277.77944 -17232078.21742  21036418.777    21036413.590
  23139687.762    -7717166.45543  -5797998.95242  23139690.012    23139685.843
  21912041.869   -15581107.93643 -11891544.13142  21912044.056    21912039.797
  22965181.585   -11111768.78443  -7950176.09342  22965183.667    22965179.697
  21136045.630   -20773585.89244 -15682800.26942  21136047.989    21136042.139
 03  2 28  3  0  0.0000000  0  8G17G15G 9G14G31G 3G23G18
  21984193.532   -15378124.07343 -11773884.14842  21984195.068    21984191.591
  20336483.083   -25971150.54844 -20190558.75642  20336484.973    20336480.688
  23211967.524   -12599278.88843  -9812457.34842  23211969.964    23211965.631
  21023996.560   -22486542.68044 -17282933.93642  21023999.254    21023994.064
  23129963.058    -7768269.96543  -5837819.82842  23129965.356    23129961.116
  21911691.481   -15582949.21243 -11892978.88042  21911693.646    21911689.409
  22976440.488   -11052602.73043  -7904072.67142  22976442.562    22976438.580
  21143523.913   -20734287.16644 -15652177.87842  21143526.280    21143520.399
 03  2 28  3  0 30.0000000  0  8G17G15G 9G14G31G 3G23G18
  21996597.125   -15312942.89743 -11723093.64042  21996598.651    21996595.161
  20340585.142   -25949593.99944 -20173761.43542  20340587.061    20340582.727
  23209445.951   -12612529.50543  -9822782.45442  23209448.444    23209444.052
  21011664.847   -22551346.12744 -17333430.07942  21011667.530    21011662.358
  23120335.099    -7818865.25143  -5877244.67942  23120337.378    23120333.145
  21911447.051   -15584233.76943 -11893979.82242  21911449.179    21911444.957
  22987702.310   -10993421.35243  -7857957.30042  22987704.421    22987700.411
  21151032.774   -20694827.93044 -15621430.40342  21151035.111    21151029.223
 03  2 28  3  1  0.0000000  0  8G17G15G 9G14G31G 3G23G18
  22009066.590   -15247415.38543 -11672033.25542  22009068.157    22009064.625
  20344767.443   -25927615.83644 -20156635.57742  20344769.369    20344764.996
  23207031.169   -12625218.95743  -9832670.29942  23207033.697    23207029.278
  20999421.734   -22615683.83844 -17383563.31342  20999424.439    20999419.264
  23110804.622    -7868947.94743  -5916270.12342  23110806.950    23110802.616
  21911309.011   -15584959.11943 -11894545.02442  21911311.139    21911306.916
  22998967.507   -10934222.23843  -7811828.11842  22998969.635    22998965.636
  21158572.549   -20655206.01344 -15590556.16842  21158574.881    21158568.986
 03  2 28  3  1 30.0000000  0  8G17G15G 9G14G31G 3G23G18
  22021600.854   -15181547.27643 -11620707.47342  22021602.443    22021598.912
  20349029.004   -25905221.11644 -20139185.13342  20349030.923    20349026.543
  23204722.324   -12637351.60243  -9842124.25842  23204724.875    23204720.520
  20987266.450   -22679560.07144 -17433336.95742  20987269.133    20987263.989
  23101370.936    -7918522.25343  -5954899.41242  23101373.266    23101368.912
  21911276.196   -15585131.51143 -11894679.34942  21911278.335    21911274.090
  23010234.961   -10875011.48143  -7765689.84942  23010237.072    23010233.041
  21166141.996   -20615428.17744 -15559560.44142  21166144.339    21166138.436
 03  2 28  3  2  0.0000000  0  8G17G15G 9G14G31G 3G23G18
  22034202.716   -15115323.99143 -11569104.93642  22034204.300    22034200.797
  20353372.796   -25882394.32444 -20121398.01342  20353374.695    20353370.322
  23202522.616   -12648910.81443  -9851131.38642  23202525.194    23202520.884
  20975202.102   -22742958.43744 -17482738.23242  20975204.779    20975199.644
  23092037.158    -7967571.75743  -5993119.76242  23092039.444    23092035.035
  21911351.397   -15584736.22743 -11894371.33042  21911353.547    21911349.292
  23021507.417   -10815774.43043  -7719531.09942  23021509.530    23021505.501
  21173743.839   -20575480.18644 -15528432.12542  21173746.167    21173740.277
 03  2 28  3  2 30.0000000  0  8G17G15G 9G14G31G 3G23G18
  22046867.898   -15048767.94743 -11517243.09542  22046869.493    22046866.022
  20357794.669   -25859157.28944 -20103291.21342  20357796.552    20357792.165
  23200427.921   -12659917.94843  -9859708.32442  23200430.528    23200426.258
  20963224.638   -22805900.16944 -17531783.69142  20963227.326    20963222.179
  23082799.205    -8016117.37943  -6030947.48442  23082801.513    23082797.065
  21911530.287   -15583796.04843 -11893638.71042  21911532.438    21911528.187
  23032780.566   -10756533.81343  -7673369.57442  23032782.677    23032778.593
  21181373.670   -20535385.25044 -15497189.30642  21181375.995    21181370.082
 03  2 28  3  3  0.0000000  0  8G17G15G 9G14G31G 3G23G18
  22059596.232   -14981880.10743 -11465122.72042  22059597.844    22059594.366
  20362294.591   -25835510.08344 -20084864.80842  20362296.469    20362292.069
  23198438.538   -12670372.28043  -9867854.52942  23198441.057    23198436.888
  20951334.236   -22868384.37044 -17580472.63242  20951336.922    20951331.794
  23073657.300    -8064158.33143  -6068381.95742  23073659.614    23073655.164
  21911812.731   -15582311.84343 -11892482.17442  21911814.879    21911810.624
  23044054.203   -10697290.66043  -7627206.06542  23044056.298    23044052.188
  21189031.204   -20495144.72544 -15465833.03842  21189033.521    21189027.579
 03  2 28  3  3 30.0000000  0  8G17G15G 9G14G31G 3G23G18
  22072387.435   -14914661.94943 -11412744.94942  22072389.071    22072385.594
  20366872.459   -25811453.17344 -20066119.15142  20366874.331    20366869.950
  23196554.305   -12680273.59343  -9875569.78042  23196556.832    23196552.669
  20939530.972   -22930410.69444 -17628804.78542  20939533.668    20939528.522
  23064611.545    -8111694.03843  -6105422.72642  23064613.825    23064609.378
  21912198.397   -15580285.04043 -11890902.83742  21912200.548    21912196.295
  23055328.106   -10638046.18843  -7581041.53942  23055330.195    23055326.001
  21196716.135   -20454760.18444 -15434364.55242  21196718.466    21196712.501
 03  2 28  3  4  0.0000000  0  8G17G15G 9G14G31G 3G23G18
  22085248.511   -14847076.71143 -11360081.15242  22085250.144    22085246.666
  20371535.460   -25786948.88344 -20047024.89142  20371537.341    20371532.947
  23194782.567   -12689583.94743  -9882824.56342  23194785.205    23194780.940
  20927822.129   -22991940.98744 -17676750.41542  20927824.817    20927819.655
  23055669.169    -8158686.28743  -6142040.02942  23055671.454    23055667.013
  21912694.221   -15577679.32643 -11888872.40142  21912696.368    21912692.131
  23066609.119   -10578763.92343  -7534847.55842  23066611.277    23066607.031
  21204435.300   -20414195.65944 -15402755.81642  21204437.636    21204431.659
 03  2 28  3  4 30.0000000  0  8G17G15G 9G14G31G 3G23G18
  22098176.231   -14779140.98743 -11307144.23442  22098177.879    22098174.417
  20376280.620   -25762012.73144 -20027594.11542  20376282.515    20376278.105
  23193120.496   -12698318.00043  -9889630.27542  23193123.168    23193118.853
  20916204.893   -23052989.89844 -17724320.95142  20916207.569    20916202.383
  23046827.485    -8205149.72343  -6178245.26442  23046829.787    23046825.267
  21913297.040   -15574511.52243 -11886403.97242  21913299.183    21913294.921
  23077894.268   -10519460.18243  -7488636.83842  23077896.373    23077892.136
  21212185.558   -20373467.78144 -15371019.79742  21212187.856    21212181.893
 03  2 28  3  5  0.0000000  0  8G17G15G 9G14G31G 3G23G18
  22111169.597   -14710860.49543 -11253938.68042  22111171.238    22111167.778
  20381107.079   -25736649.33044 -20007830.41342  20381108.965    20381104.585
  23191567.401   -12706479.58043  -9895989.90942  23191570.034    23191565.695
  20904678.536   -23113561.27944 -17771519.38442  20904681.195    20904675.997
  23038085.689    -8251088.16343  -6214041.42842  23038087.970    23038083.408
  21914005.672   -15570787.34543 -11883501.99942  21914007.830    21914003.618
  23089182.408   -10460140.46843  -7442413.68442  23089184.500    23089180.300
  21219965.701   -20332582.83644 -15339161.38542  21219967.966    21219962.025
 03  2 28  3  5 30.0000000  0  8G17G15G 9G14G31G 3G23G18
  22124223.293   -14642262.90243 -11200486.02642  22124224.919    22124221.462
  20386009.698   -25710885.75444 -19987754.88942  20386011.571    20386007.229
  23190118.209   -12714095.22043  -9901924.13642  23190120.791    23190116.366
  20893238.010   -23173681.56344 -17818366.31242  20893240.657    20893235.424
  23029438.793    -8296527.84843  -6249448.94542  23029441.051    23029436.484
  21914814.920   -15566534.70643 -11880188.24342  21914817.069    21914812.853
  23100468.294   -10400832.49343  -7396199.66842  23100470.409    23100466.208
  21227770.372   -20291568.83344 -15307202.40642  21227772.635    21227766.691
 03  2 28  3  6  0.0000000  0  8G17G15G 9G14G31G 3G23G18
  22137340.963   -14573329.23743 -11146771.49642  22137342.539    22137339.113
  20390992.244   -25684702.31544 -19967352.20442  20390994.087    20390989.765
  23188776.723   -12721144.50543  -9907417.04442  23188779.292    23188774.906
  20881887.242   -23233329.96844 -17864845.53942  20881889.912    20881884.651
  23020890.743    -8341447.92943  -6284451.57342  23020892.999    23020888.477
  21915728.290   -15561734.69443 -11876447.96142  21915730.449    21915726.261
  23111755.576   -10341517.13443  -7349979.90042  23111757.723    23111753.559
  21235603.213   -20250406.98744 -15275128.22542  21235605.473    21235599.488
 03  2 28  3  6 30.0000000  0  8G17G15G 9G14G31G 3G23G18
  22150525.775   -14504042.52443 -11092781.87042  22150527.352    22150523.951
  20396058.151   -25658080.85244 -19946608.20142  20396060.005    20396055.661
  23187546.604   -12727608.70843  -9912454.04942  23187549.100    23187544.741
  20870629.847   -23292487.81944 -17910942.52042  20870632.499    20870627.235
  23012445.203    -8385829.61843  -6319034.67842  23012447.428    23012442.856
  21916748.939   -15556370.71243 -11872268.21742  21916751.151    21916747.005
  23123047.576   -10282177.20643  -7303740.98042  23123049.681    23123045.518
  21243467.361   -20209080.58344 -15242925.82042  21243469.634    21243463.614
 03  2 28  3  7  0.0000000  0  8G17G15G 9G14G31G 3G23G18
  22163775.606   -14434414.08943 -11038525.96042  22163777.192    22163773.819
  20401205.440   -25631031.75244 -19925530.97242  20401207.274    20401202.945
  23186425.969   -12733497.66043  -9917042.80942  23186428.528    23186424.034
  20859463.965   -23351164.76944 -17956664.77342  20859466.611    20859461.315
  23004100.239    -8429682.56443  -6353205.77442  23004102.468    23004097.899
  21917874.838   -15550454.06443 -11867657.82642  21917877.047    21917872.896
  23134342.163   -10222823.82643  -7257491.58242  23134344.221    23134340.059
  21251360.629   -20167601.19544 -15210604.20442  21251362.907    21251356.865
 03  2 28  3  7 30.0000000  0  8G17G15G 9G14G31G 3G23G18
  22177090.886   -14364441.96843 -10984002.24642  22177092.451    22177089.091
  20406434.570   -25603552.35344 -19904118.44842  20406436.428    20406432.110
  23185415.379   -12738808.09143  -9921180.76842  23185417.939    23185413.509
  20848390.232   -23409357.51744 -18002009.73342  20848392.869    20848387.560
  22995856.554    -8473003.35543  -6386962.21342  22995858.777    22995854.131
  21919106.171   -15543983.20343 -11862615.58242  21919108.376    21919104.251
  23145639.655   -10163455.11243  -7211230.24642  23145641.696    23145637.562
  21259283.205   -20125967.63844 -15178162.45742  21259285.487    21259279.457
 03  2 28  3  8  0.0000000  0  8G17G15G 9G14G31G 3G23G18
  22190468.523   -14294142.21043 -10929223.23342  22190470.082    22190466.708
  20411742.790   -25575657.54444 -19882382.22742  20411744.633    20411740.319
  23184512.229   -12743554.26843  -9924879.04542  23184514.752    23184510.342
  20837405.949   -23467080.15644 -18046988.37042  20837408.597    20837403.269
  22987711.397    -8515806.02043  -6420314.90442  22987713.639    22987709.006
  21920439.911   -15536974.19443 -11857154.00442  21920442.126    21920438.010
  23156937.076   -10104086.66443  -7164969.11242  23156939.109    23156934.940
  21267232.092   -20084195.82244 -15145612.97842  21267234.379    21267228.374
 03  2 28  3  8 30.0000000  0  8G17G15G 9G14G31G 3G23G18
  22203912.289   -14223495.01243 -10874173.48742  22203913.828    22203910.444
  20417133.912   -25547326.86944 -19860306.37042  20417135.791    20417131.449
  23183720.385   -12747715.31943  -9928121.39042  23183722.920    23183718.504
  20826515.159   -23524311.59844 -18091584.26142  20826517.791    20826512.443
  22979668.924    -8558069.40843  -6453247.38242  22979671.182    22979666.542
  21921879.746   -15529407.83643 -11851258.12742  21921881.952    21921877.814
  23168238.223   -10044698.79243  -7118692.83542  23168240.239    23168236.056
  21275210.970   -20042266.36344 -15112940.65942  21275213.278    21275207.279
 03  2 28  3  9  0.0000000  0  8G17G15G 9G14G31G 3G23G18
  22217420.096   -14152511.03843 -10818861.32042  22217421.650    22217418.285
  20422606.192   -25518569.96444 -19837898.38642  20422608.061    20422603.698
  23183038.072   -12751300.42643  -9930914.94942  23183040.680    23183036.233
  20815716.145   -23581060.70944 -18135804.30842  20815718.763    20815713.408
  22971727.359    -8599802.40143  -6485766.56842  22971729.666    22971724.992
  21923423.683   -15521294.52343 -11844936.05542  21923425.857    21923421.709
  23179541.095    -9985301.79443  -7072409.45242  23179543.119    23179538.905
  21283217.788   -20000190.12844 -15080153.96842  21283220.103    21283214.117
 03  2 28  3  9 30.0000000  0  8G17G15G 9G14G31G 3G23G18
  22230992.164   -14081189.36443 -10763286.01742  22230993.728    22230990.375
  20428159.942   -25489384.86644 -19815156.74742  20428161.820    20428157.420
  23182465.883   -12754307.26443  -9933257.91042  23182468.475    23182464.115
  20805009.334   -23637325.07644 -18179646.62942  20805011.977    20805006.607
  22963887.248    -8641002.32143  -6517870.37342  22963889.548    22963884.877
  21925071.707   -15512633.98743 -11838187.57742  21925073.908    21925069.700
  23190845.901    -9925894.52443  -7026118.06242  23190847.971    23190843.727
  21291252.713   -19957966.30244 -15047252.26742  21291255.013    21291249.027
 03  2 28  3 10  0.0000000  0  8G17G15G 9G14G31G 3G23G18
  22244627.777   -14009533.80743 -10707450.53842  22244629.357    22244626.030
  20433794.554   -25459774.77844 -19792083.94742  20433796.446    20433792.017
  23182003.201   -12756738.26843  -9935152.18242  23182005.828    23182001.469
  20794394.367   -23693106.94044 -18223112.97542  20794396.999    20794391.604
  22956148.093    -8681671.51643  -6549560.62242  22956150.415    22956145.763
  21926823.048   -15503430.53743 -11831016.04542  21926825.254    21926821.031
  23202152.039    -9866480.59143  -6979821.48342  23202154.086    23202149.779
  21299314.915   -19915599.00644 -15014238.77642  21299317.249    21299311.246
 03  2 28  3 10 30.0000000  0  8G17G15G 9G14G31G 3G23G18
  22258327.958   -13937539.03543 -10651350.72642  22258329.511    22258326.195
  20439511.287   -25429733.19844 -19768674.92042  20439513.151    20439508.718
  23181651.547   -12758586.39643  -9936592.26242  23181654.096    23181649.775
  20783872.500   -23748399.46344 -18266198.01642  20783875.155    20783869.719
  22948511.346    -8721802.83243  -6580831.74642  22948513.645    22948509.002
  21928678.732   -15493678.77443 -11823417.26042  21928680.945    21928676.691
  23213460.531    -9807054.06743  -6933515.09742  23213462.586    23213458.229
  21307405.381   -19873083.09644 -14981109.47642  21307407.729    21307401.745
 03  2 28  3 11  0.0000000  0  8G17G15G 9G14G31G 3G23G18
  22272092.008   -13865208.56943 -10594989.34142  22272093.567    22272090.238
  20445309.538   -25399263.05044 -19744931.94142  20445311.419    20445306.990
  23181410.329   -12759853.93243  -9937579.92242  23181412.853    23181408.558
  20773443.404   -23803204.45344 -18308903.16342  20773446.088    20773440.627
  22940976.526    -8761398.37043  -6611685.38042  22940978.843    22940974.216
  21930638.056   -15483382.60943 -11815394.26042  21930640.232    21930635.960
  23224770.752    -9747618.38543  -6887201.57042  23224772.804    23224768.434
  21315523.455   -19830422.24144 -14947867.23342  21315525.808    21315519.831
 03  2 28  3 11 30.0000000  0  8G17G15G 9G14G31G 3G23G18
  22285922.047   -13792531.19343 -10538357.64142  22285923.631    22285920.306
  20451191.655   -25368352.31644 -19720845.65042  20451193.503    20451189.073
  23181281.996   -12760528.33943  -9938105.40542  23181284.491    23181280.188
  20763109.549   -23857509.06944 -18351218.40642  20763112.226    20763106.746
  22933546.187    -8800445.11943  -6642111.38842  22933548.466    22933543.862
  21932702.993   -15472531.11543 -11806938.53742  21932705.198    21932700.914
  23236084.926    -9688161.96143  -6840871.89042  23236086.996    23236082.551
  21323671.185   -19787605.38144 -14914503.43642  21323673.548    21323667.620
 03  2 28  3 12  0.0000000  0  8G17G15G 9G14G31G 3G23G18
  22299814.357   -13719526.79843 -10481471.11842  22299815.910    22299812.565
  20457154.060   -25337019.65244 -19696430.58742  20457155.891    20457151.464
  23181262.955   -12760628.03643  -9938183.06542  23181265.465    23181261.156
  20752867.418   -23911331.58144 -18393157.98842  20752870.115    20752864.617
  22926216.801    -8838961.28643  -6672123.95642  22926219.057    22926214.444
  21934869.791   -15461144.56343 -11798065.88642  21934871.979    21934867.699
  23247399.366    -9628704.28243  -6794541.22042  23247401.428    23247396.992
  21331844.874   -19744652.36544 -14881033.54142  21331847.226    21331841.296
 03  2 28  3 12 30.0000000  0  8G17G15G 9G14G31G 3G23G18
  22313768.339   -13646198.18743 -10424331.95742  22313769.914    22313766.564
  20463196.440   -25305266.75844 -19671688.06342  20463198.251    20463193.822
  23181352.984   -12760154.37943  -9937813.95942  23181355.583    23181351.280
  20742716.815   -23964673.15044 -18434722.80442  20742719.505    20742714.023
  22918988.131    -8876948.08843  -6701724.03742  22918990.367    22918985.782
  21937137.837   -15449225.94043 -11788778.63642  21937140.005    21937135.743
  23258713.566    -9569247.65843  -6748211.38042  23258715.682    23258711.206
  21340043.930   -19701565.86144 -14847459.62842  21340046.290    21340040.407
 03  2 28  3 13  0.0000000  0  8G17G15G 9G14G31G 3G23G18
  22327788.456   -13572522.15343 -10366922.08242  22327789.969    22327786.644
  20469323.267   -25273069.98344 -19646599.66942  20469325.121    20469320.644
  23181556.792   -12759083.37643  -9936979.37742  23181559.389    23181555.041
  20732662.339   -24017509.50644 -18475893.94742  20732665.035    20732659.567
  22911864.797    -8914381.07343  -6730892.56642  22911867.080    22911862.512
  21939511.393   -15436752.67643 -11779059.19642  21939513.607    21939509.341
  23270031.929    -9509768.92243  -6701864.29542  23270034.134    23270029.615
  21348272.667   -19658323.48744 -14813764.26342  21348275.030    21348269.166
 03  2 28  3 13 30.0000000  0  8G17G15G 9G14G31G 3G23G18
  22341872.952   -13498507.65243 -10309248.46742  22341874.466    22341871.147
  20475533.104   -25240437.19844 -19621171.51942  20475534.950    20475530.449
  23181872.906   -12757422.60143  -9935685.24342  23181875.428    23181870.984
  20722702.605   -24069848.05644 -18516677.19642  20722705.284    20722699.841
  22904845.477    -8951267.50443  -6759635.21842  22904847.795    22904843.224
  21941988.799   -15423733.97443 -11768914.73642  21941990.976    21941986.714
  23281352.980    -9450276.51143  -6655506.55842  23281355.144    23281350.640
  21356529.392   -19614934.09244 -14779954.32842  21356531.737    21356525.900
 03  2 28  3 14  0.0000000  0  8G17G15G 9G14G31G 3G23G18
  22356021.967   -13424154.24543 -10251310.76642  22356023.477    22356020.157
  20481826.136   -25207366.99644 -19595402.52142  20481828.000    20481823.507
  23182301.579   -12755169.91243  -9933929.86942  23182304.111    23182299.606
  20712838.095   -24121686.20044 -18557070.51942  20712840.752    20712835.351
  22897930.656    -8987605.01043  -6787950.13242  22897932.928    22897928.420
  21944569.980   -15410169.61443 -11758345.09442  21944572.172    21944567.901
  23292676.808    -9390769.24443  -6609137.25742  23292678.968    23292674.506
  21364814.303   -19571396.64244 -14746029.02942  21364816.633    21364810.790
 03  2 28  3 14 30.0000000  0  8G17G15G 9G14G31G 3G23G18
  22370227.344   -13349504.59543 -10193142.22042  22370228.907    22370225.531
  20488194.401   -25173901.47644 -19569325.48142  20488196.259    20488191.776
  23182834.840   -12752367.13843  -9931745.85142  23182837.469    23182832.925
  20703060.911   -24173065.52944 -18597106.32442  20703063.557    20703058.158
  22891112.388    -9023435.05643  -6815869.62342  22891114.642    22891110.142
  21947246.836   -15396102.89743 -11747384.00642  21947248.981    21947244.682
  23303995.408    -9331289.66543  -6562789.52642  23303997.539    23303993.074
  21373119.164   -19527754.35744 -14712022.04442  21373121.487    21373115.603
 03  2 28  3 15  0.0000000  0  8G17G15G 9G14G31G 3G23G18
  22384499.007   -13274506.63343 -10134702.26142  22384500.609    22384497.165
  20494648.028   -25139987.31044 -19542898.85542  20494649.904    20494645.442
  23183483.096   -12748960.45043  -9929091.25242  23183485.695    23183481.181
  20693381.274   -24223932.29244 -18636742.72542  20693383.894    20693378.502
  22884400.962    -9058703.69043  -6843351.64142  22884403.221    22884398.708
  21950029.153   -15381481.65743 -11735990.82142  21950031.306    21950026.998
  23315318.788    -9271784.94543  -6516422.20342  23315320.882    23315316.448
  21381453.927   -19483954.92444 -14677892.60042  21381456.225    21381450.323
 03  2 28  3 15 30.0000000  0  8G17G15G 9G14G31G 3G23G18
  22398834.077   -13199175.56743 -10076002.74642  22398835.713    22398832.219
  20501184.367   -25105638.60044 -19516133.62342  20501186.227    20501181.779
  23184243.556   -12744963.99043  -9925977.09842  23184246.146    23184241.638
  20683796.570   -24274300.05944 -18675990.29942  20683799.223    20683793.803
  22877793.761    -9093424.66343  -6870406.92542  22877795.969    22877791.485
  21952914.044   -15366321.67043 -11724177.84042  21952916.150    21952911.791
  23326644.150    -9212269.67343  -6470046.65842  23326646.223    23326641.843
  21389815.690   -19440013.58044 -14643652.58242  21389817.975    21389812.088
 03  2 28  3 16  0.0000000  0  8G17G15G 9G14G31G 3G23G18
  22413231.745   -13123515.49043 -10017046.85142  22413233.424    22413229.872
  20507802.704   -25070859.07144 -19489032.68842  20507804.567    20507800.100
  23185115.654   -12740380.82343  -9922405.76342  23185118.232    23185113.759
  20674306.265   -24324171.87844 -18714851.41842  20674308.907    20674303.477
  22871290.237    -9127600.73243  -6897037.60442  22871292.435    22871287.952
  21955900.472   -15350627.69343 -11711948.76642  21955902.597    21955898.218
  23337970.767    -9152747.87543  -6423666.02242  23337972.813    23337968.465
  21398203.647   -19395934.56844 -14609305.29142  21398205.931    21398200.040
 03  2 28  3 16 30.0000000  0  8G17G15G 9G14G31G 3G23G18
  22427695.716   -13047506.76643  -9957819.28842  22427697.397    22427693.835
  20514506.920   -25035628.27544 -19461580.11342  20514508.782    20514504.304
  23186103.420   -12735190.22343  -9918361.11642  23186105.904    23186101.487
  20664914.371   -24373526.54344 -18753309.55842  20664917.027    20664911.553
  22864894.430    -9161210.78643  -6923227.22842  22864896.688    22864892.118
  21958992.150   -15334380.86443 -11699288.89742  21958994.246    21958989.870
  23349302.466    -9093199.27243  -6377264.49742  23349304.531    23349300.152
  21406621.589   -19351698.04544 -14574835.26242  21406623.887    21406617.942
